[[{"header":{"parameterUnit":"m.s-1","parameterCategory":1,"la1":30.6,"la2":29.2853,"lo1":-89.7004,"lo2":-87.6739,"dy":0.0162,"dx":0.0183,"nx":112,"ny":82,"refTime":"2023-11-16T06:00:00:Z","depth":0,"parameterNumber":2,"parameterNumberName":"U-component_of_WINDS"},"data":[0.0,0.0,0.0,0.0,0.0,0.0,0.0,0.0,0.0,0.0,0.0,0.0,0.0,0.0,0.0,0.0,0.0,0.0,0.0,0.0,0.0,0.0,0.0,0.0,0.0,0.0,0.0,0.0,0.0,0.0,0.0,0.0,0.0,0.0,0.0,0.0,0.0,0.0,0.0,0.0,0.0,0.0,0.0,0.0,0.0,0.0,0.0,0.0,0.0,0.0,0.0,0.0,0.0,0.0,0.0,0.0,0.0,0.0,0.0,0.0,0.0,0.0,0.0,0.0,0.0,0.0,0.0,0.0,0.0,0.0,0.0,0.0,0.0,0.0,0.0,0.0,0.0,0.0,0.0,0.0,0.0,0.0,0.0,0.0,0.0,0.0,0.0,0.0,0.0,0.0,2.4639,2.5862,2.6946,2.6362,2.3361,2.3006,2.2239,2.0595,0.0,0.0,0.0,0.0,0.0,0.0,0.0,0.0,0.0,0.0,0.0,0.0,0.0,0.0,0.0,0.0,0.0,0.0,0.0,0.0,0.0,0.0,0.0,0.0,0.0,0.0,0.0,0.0,0.0,0.0,0.0,0.0,0.0,0.0,0.0,0.0,0.0,0.0,0.0,0.0,0.0,0.0,0.0,0.0,0.0,0.0,0.0,0.0,0.0,0.0,0.0,0.0,0.0,0.0,0.0,0.0,0.0,0.0,0.0,0.0,0.0,0.0,0.0,0.0,0.0,0.0,0.0,0.0,0.0,0.0,0.0,0.0,0.0,0.0,0.0,0.0,0.0,0.0,0.0,0.0,0.0,0.0,0.0,0.0,0.0,0.0,0.0,0.0,0.0,0.0,0.0,0.0,0.0,0.0,0.0,0.0,0.0,0.0,0.0,0.0,0.0,0.0,0.0,0.0,2.5261,2.6291,2.5721,2.4933,2.4092,2.1803,2.0699,2.1293,0.0,0.0,0.0,0.0,0.0,0.0,0.0,0.0,0.0,0.0,0.0,0.0,0.0,0.0,0.0,0.0,0.0,0.0,0.0,0.0,0.0,0.0,0.0,0.0,0.0,0.0,0.0,0.0,0.0,0.0,0.0,0.0,0.0,0.0,0.0,0.0,0.0,0.0,0.0,0.0,0.0,0.0,0.0,0.0,0.0,0.0,0.0,0.0,0.0,0.0,0.0,0.0,0.0,0.0,0.0,0.0,0.0,0.0,0.0,0.0,0.0,0.0,0.0,0.0,0.0,0.0,0.0,0.0,0.0,0.0,0.0,0.0,0.0,0.0,0.0,0.0,0.0,0.0,0.0,0.0,0.0,0.0,0.0,0.0,0.0,0.0,0.0,0.0,0.0,0.0,0.0,0.0,0.0,0.0,0.0,0.0,0.0,0.0,0.0,0.0,0.0,0.0,0.0,2.5605,2.5755,2.5616,2.512,2.4304,2.3062,2.1293,2.0605,2.1332,1.9729,0.0,0.0,0.0,0.0,0.0,0.0,0.0,0.0,0.0,0.0,0.0,0.0,0.0,0.0,0.0,0.0,0.0,0.0,0.0,0.0,0.0,0.0,0.0,0.0,0.0,0.0,0.0,0.0,0.0,0.0,0.0,0.0,0.0,0.0,0.0,0.0,0.0,0.0,0.0,0.0,0.0,0.0,0.0,0.0,0.0,0.0,0.0,0.0,0.0,0.0,0.0,0.0,0.0,0.0,0.0,0.0,0.0,0.0,0.0,0.0,0.0,0.0,0.0,0.0,0.0,0.0,0.0,0.0,0.0,0.0,0.0,0.0,0.0,0.0,0.0,0.0,0.0,0.0,0.0,0.0,0.0,0.0,0.0,0.0,0.0,0.0,0.0,0.0,0.0,0.0,0.0,0.0,0.0,0.0,0.0,0.0,0.0,0.0,0.0,0.0,0.0,0.0,2.5818,2.5484,2.4872,2.447,2.3674,2.2173,2.1311,2.0958,2.1251,1.9654,0.0,0.0,0.0,0.0,0.0,0.0,0.0,0.0,0.0,0.0,0.0,0.0,0.0,0.0,0.0,0.0,0.0,0.0,0.0,0.0,0.0,0.0,0.0,0.0,0.0,0.0,0.0,0.0,0.0,0.0,0.0,0.0,0.0,0.0,0.0,0.0,0.0,0.0,0.0,0.0,0.0,0.0,0.0,0.0,0.0,0.0,0.0,0.0,0.0,0.0,0.0,0.0,0.0,0.0,0.0,0.0,0.0,0.0,0.0,0.0,0.0,0.0,0.0,0.0,0.0,0.0,0.0,0.0,0.0,0.0,0.0,0.0,0.0,0.0,0.0,0.0,0.0,0.0,0.0,0.0,0.0,0.0,0.0,0.0,0.0,0.0,0.0,0.0,0.0,0.0,0.0,0.0,0.0,0.0,0.0,0.0,0.0,0.0,0.0,0.0,0.0,0.0,2.4213,2.3862,2.4724,2.3523,2.2605,2.248,2.1885,2.1451,2.121,2.0352,0.0,0.0,0.0,0.0,0.0,0.0,0.0,0.0,0.0,0.0,0.0,0.0,0.0,0.0,0.0,0.0,0.0,0.0,0.0,0.0,0.0,0.0,0.0,0.0,0.0,0.0,0.0,0.0,0.0,0.0,0.0,0.0,0.0,0.0,0.0,0.0,0.0,0.0,0.0,0.0,0.0,0.0,0.0,0.0,0.0,0.0,0.0,0.0,0.0,0.0,0.0,0.0,0.0,0.0,0.0,0.0,0.0,0.0,0.0,0.0,0.0,0.0,0.0,0.0,0.0,0.0,0.0,0.0,0.0,0.0,0.0,0.0,0.0,0.0,0.0,0.0,0.0,0.0,0.0,0.0,0.0,0.0,0.0,0.0,0.0,0.0,0.0,0.0,0.0,0.0,0.0,0.0,0.0,0.0,0.0,0.0,0.0,0.0,0.0,0.0,0.0,0.0,2.4361,2.4192,2.3779,2.3227,2.2674,2.2168,2.1134,2.0566,2.0624,0.0,0.0,0.0,0.0,0.0,0.0,0.0,0.0,0.0,0.0,0.0,0.0,0.0,0.0,0.0,0.0,0.0,0.0,0.0,0.0,0.0,0.0,0.0,0.0,0.0,0.0,0.0,0.0,0.0,0.0,0.0,0.0,0.0,0.0,0.0,0.0,0.0,0.0,0.0,0.0,0.0,0.0,0.0,0.0,0.0,0.0,0.0,0.0,0.0,0.0,0.0,0.0,0.0,0.0,0.0,0.0,0.0,0.0,0.0,0.0,0.0,0.0,0.0,0.0,0.0,0.0,0.0,0.0,0.0,0.0,0.0,0.0,0.0,0.0,0.0,0.0,0.0,0.0,0.0,0.0,0.0,0.0,0.0,0.0,0.0,0.0,0.0,0.0,0.0,0.0,0.0,0.0,0.0,0.0,0.0,0.0,0.0,0.0,0.0,0.0,0.0,0.0,2.4258,2.4116,2.3776,2.3166,2.2869,2.244,2.1738,2.0664,2.0117,2.0391,0.0,0.0,0.0,0.0,0.0,0.0,0.0,0.0,0.0,0.0,0.0,0.0,0.0,0.0,0.0,0.0,0.0,0.0,0.0,0.0,0.0,0.0,0.0,0.0,0.0,0.0,0.0,0.0,0.0,0.0,0.0,0.0,0.0,0.0,0.0,0.0,0.0,0.0,0.0,0.0,0.0,0.0,0.0,0.0,0.0,0.0,0.0,0.0,0.0,0.0,0.0,0.0,0.0,0.0,0.0,0.0,0.0,0.0,0.0,0.0,0.0,0.0,0.0,0.0,0.0,0.0,0.0,0.0,0.0,0.0,0.0,0.0,0.0,0.0,0.0,0.0,0.0,0.0,0.0,0.0,0.0,0.0,0.0,0.0,0.0,0.0,0.0,0.0,0.0,0.0,0.0,0.0,0.0,0.0,0.0,0.0,0.0,0.0,0.0,0.0,0.0,0.0,2.4498,2.3063,2.2207,2.3003,2.2362,2.1719,2.1229,2.0642,2.0383,0.0,0.0,0.0,0.0,0.0,0.0,0.0,0.0,0.0,0.0,0.0,0.0,0.0,0.0,0.0,0.0,0.0,0.0,0.0,0.0,0.0,0.0,0.0,0.0,0.0,0.0,0.0,0.0,0.0,0.0,0.0,0.0,0.0,0.0,0.0,0.0,0.0,0.0,0.0,0.0,0.0,0.0,0.0,0.0,0.0,0.0,0.0,0.0,0.0,0.0,0.0,0.0,0.0,0.0,0.0,0.0,0.0,0.0,0.0,0.0,0.0,0.0,0.0,0.0,0.0,0.0,0.0,0.0,0.0,0.0,0.0,0.0,0.0,0.0,0.0,0.0,0.0,0.0,0.0,0.0,0.0,0.0,0.0,0.0,0.0,0.0,0.0,0.0,0.0,0.0,0.0,0.0,0.0,0.0,0.0,0.0,0.0,0.0,0.0,0.0,0.0,0.0,0.0,2.4338,2.296,2.2207,2.3003,2.2635,2.201,2.1249,1.992,2.0012,2.2166,0.0,0.0,0.0,0.0,0.0,0.0,0.0,0.0,0.0,0.0,0.0,0.0,0.0,0.0,0.0,0.0,0.0,0.0,0.0,0.0,0.0,0.0,0.0,0.0,0.0,0.0,0.0,0.0,0.0,0.0,0.0,0.0,0.0,0.0,0.0,0.0,0.0,0.0,0.0,0.0,0.0,0.0,0.0,0.0,0.0,0.0,0.0,0.0,0.0,0.0,0.0,0.0,0.0,0.0,0.0,0.0,0.0,0.0,0.0,0.0,0.0,0.0,0.0,0.0,0.0,0.0,0.0,0.0,0.0,0.0,0.0,0.0,0.0,0.0,0.0,0.0,0.0,0.0,0.0,0.0,0.0,0.0,0.0,0.0,0.0,0.0,0.0,0.0,0.0,0.0,0.0,0.0,0.0,0.0,0.0,0.0,0.0,0.0,0.0,0.0,0.0,0.0,2.4656,2.3123,2.2148,2.2791,2.2498,2.1836,2.0781,1.9397,1.9351,2.1135,0.0,0.0,0.0,0.0,0.0,0.0,0.0,0.0,0.0,0.0,0.0,0.0,0.0,0.0,0.0,0.0,0.0,0.0,0.0,0.0,0.0,0.0,0.0,0.0,0.0,0.0,0.0,0.0,0.0,0.0,0.0,0.0,0.0,0.0,0.0,0.0,0.0,0.0,0.0,0.0,0.0,0.0,0.0,0.0,0.0,0.0,0.0,0.0,0.0,0.0,0.0,0.0,0.0,0.0,0.0,0.0,0.0,0.0,0.0,0.0,0.0,0.0,0.0,0.0,0.0,0.0,0.0,0.0,0.0,0.0,0.0,0.0,0.0,0.0,0.0,0.0,0.0,0.0,0.0,0.0,0.0,0.0,0.0,0.0,0.0,0.0,0.0,0.0,0.0,0.0,0.0,0.0,0.0,0.0,0.0,0.0,0.0,0.0,0.0,0.0,0.0,0.0,2.5251,2.3389,2.2051,2.2461,2.2129,2.1348,2.0001,1.9085,1.8693,1.8885,0.0,0.0,0.0,0.0,0.0,0.0,0.0,0.0,0.0,0.0,0.0,0.0,0.0,0.0,0.0,0.0,0.0,0.0,0.0,0.0,0.0,0.0,0.0,0.0,0.0,0.0,0.0,0.0,0.0,0.0,0.0,0.0,0.0,0.0,0.0,0.0,0.0,0.0,0.0,0.0,0.0,0.0,0.0,0.0,0.0,0.0,0.0,0.0,0.0,0.0,0.0,0.0,0.0,0.0,0.0,0.0,0.0,0.0,0.0,0.0,2.3196,2.3482,0.0,0.0,0.0,0.0,0.0,0.0,0.0,0.0,0.0,0.0,0.0,0.0,0.0,0.0,0.0,0.0,0.0,0.0,0.0,0.0,0.0,0.0,0.0,0.0,0.0,0.0,0.0,0.0,0.0,0.0,0.0,0.0,0.0,0.0,0.0,0.0,0.0,0.0,0.0,0.0,2.5357,2.3425,2.2051,2.2461,2.2129,2.1348,2.0001,1.9085,1.9291,2.0935,1.9802,0.0,0.0,0.0,0.0,0.0,0.0,0.0,0.0,0.0,0.0,0.0,0.0,0.0,0.0,0.0,0.0,0.0,0.0,0.0,0.0,0.0,0.0,0.0,0.0,0.0,0.0,0.0,0.0,0.0,0.0,0.0,0.0,0.0,0.0,0.0,0.0,0.0,0.0,0.0,0.0,0.0,0.0,0.0,0.0,0.0,0.0,0.0,0.0,0.0,0.0,0.0,0.0,0.0,0.0,0.0,0.0,0.0,0.0,0.0,2.5711,2.4929,0.0,0.0,0.0,0.0,0.0,0.0,0.0,0.0,0.0,0.0,0.0,0.0,0.0,0.0,0.0,0.0,0.0,0.0,0.0,0.0,0.0,0.0,0.0,0.0,0.0,0.0,0.0,0.0,0.0,0.0,0.0,0.0,0.0,0.0,0.0,0.0,0.0,0.0,0.0,0.0,2.5509,2.347,2.1973,2.2187,2.2012,2.1348,2.0001,1.9298,1.9214,1.9871,1.9767,0.0,0.0,0.0,0.0,0.0,0.0,0.0,0.0,0.0,0.0,0.0,0.0,0.0,0.0,0.0,0.0,0.0,0.0,0.0,0.0,0.0,0.0,0.0,0.0,0.0,0.0,0.0,0.0,0.0,0.0,0.0,0.0,0.0,0.0,0.0,0.0,0.0,0.0,0.0,0.0,0.0,0.0,0.0,0.0,0.0,0.0,0.0,0.0,0.0,0.0,0.0,0.0,0.0,2.9838,3.0708,3.1236,3.1759,3.1709,3.1067,2.876,2.6937,2.5619,2.5553,0.0,0.0,0.0,0.0,0.0,0.0,0.0,0.0,0.0,0.0,0.0,0.0,0.0,0.0,0.0,0.0,0.0,0.0,0.0,0.0,0.0,0.0,2.3183,2.2996,2.3186,2.3063,2.1855,0.0,0.0,0.0,0.0,0.0,0.0,0.0,0.0,0.0,0.0,0.0,2.5336,2.3451,2.1993,2.1915,2.1915,2.1348,2.0001,1.9531,1.8965,1.8147,1.9483,1.9812,0.0,0.0,0.0,0.0,0.0,0.0,0.0,0.0,0.0,0.0,0.0,0.0,0.0,0.0,0.0,0.0,0.0,0.0,0.0,0.0,0.0,0.0,0.0,0.0,0.0,0.0,0.0,0.0,0.0,0.0,0.0,0.0,1.9522,1.9699,0.0,0.0,0.0,0.0,0.0,0.0,0.0,0.0,0.0,0.0,0.0,0.0,0.0,2.9315,2.9909,3.125,3.1797,3.1626,3.2796,3.3147,3.2803,3.3333,3.3283,3.2778,3.2237,0.0,2.8655,2.6772,0.0,0.0,0.0,0.0,0.0,0.0,0.0,0.0,0.0,0.0,0.0,0.0,0.0,0.0,0.0,0.0,0.0,0.0,0.0,0.0,0.0,0.0,2.242,2.1667,2.2079,2.2493,2.1966,2.3041,2.4001,2.3591,2.2606,2.2268,0.0,0.0,0.0,0.0,0.0,0.0,2.4061,2.3143,2.2285,2.1954,2.1915,2.1348,2.0001,1.9531,1.9082,1.8559,1.8424,1.8444,1.8598,2.0129,0.0,0.0,0.0,0.0,0.0,0.0,0.0,0.0,0.0,0.0,0.0,0.0,0.0,0.0,0.0,0.0,0.0,0.0,0.0,0.0,0.0,0.0,0.0,0.0,0.0,0.0,0.0,0.0,0.0,1.9927,2.1639,2.1405,2.2553,2.3065,0.0,0.0,0.0,0.0,0.0,0.0,0.0,0.0,0.0,2.9999,3.1256,3.2106,3.2546,3.3405,3.3937,3.4053,3.4901,3.5175,3.4949,3.5527,3.5477,3.4904,3.3961,3.2697,3.1119,2.922,2.8436,2.8262,0.0,0.0,0.0,0.0,2.5318,2.5571,2.4319,2.4258,2.4633,2.3939,0.0,0.0,0.0,0.0,0.0,0.0,0.0,2.4776,2.3906,2.4147,2.4266,2.2979,2.3144,2.3477,2.3047,2.3564,2.4078,2.4002,2.3634,2.3695,2.4748,2.4521,0.0,0.0,0.0,2.3342,2.399,2.315,2.2363,2.1934,2.1915,2.1466,2.0371,1.9883,1.9551,1.9357,1.8713,1.842,1.8598,1.9524,2.0036,0.0,0.0,0.0,0.0,0.0,0.0,0.0,0.0,0.0,0.0,0.0,0.0,0.0,0.0,0.0,0.0,0.0,0.0,0.0,0.0,0.0,0.0,0.0,0.0,0.0,0.0,0.0,0.0,2.1762,2.3493,2.2694,2.4257,2.5007,0.0,0.0,0.0,0.0,0.0,0.0,2.9935,3.0471,3.1491,3.3215,3.4081,3.4665,3.4951,3.5504,3.5958,3.6384,3.6833,3.7034,3.7059,3.7462,3.7336,3.6737,3.5234,3.4121,3.3126,3.0841,2.9353,2.8433,2.7835,2.7885,2.8139,2.7042,2.7036,2.7371,2.6164,2.5487,2.5054,2.4616,2.4246,2.3799,2.3017,0.0,0.0,0.0,0.0,2.5398,2.4662,2.5374,2.5946,2.4749,2.4687,2.4805,2.4375,2.4199,2.412,2.4067,2.41,2.4444,2.5526,2.5159,0.0,2.4849,2.3943,2.3382,2.3722,2.3109,2.2498,2.209,2.1974,2.1602,2.082,2.0234,1.9903,1.9903,1.9201,1.8791,1.8791,1.9121,1.9476,1.985,0.0,0.0,0.0,0.0,0.0,0.0,0.0,0.0,0.0,0.0,0.0,0.0,0.0,0.0,0.0,0.0,0.0,0.0,0.0,0.0,0.0,0.0,0.0,0.0,0.0,0.0,0.0,0.0,0.0,2.2861,2.619,0.0,0.0,0.0,0.0,2.8175,2.9601,3.0849,3.1809,3.2835,3.3998,3.533,3.6458,3.7262,3.7789,3.8391,3.8693,3.8718,3.8743,3.8768,3.8768,3.8793,3.8492,3.784,3.6367,3.54,3.4565,3.055,2.863,2.8166,2.7634,2.8507,2.985,2.8004,2.8166,2.8835,2.5613,2.4474,2.4444,2.4401,2.4382,2.4447,2.4975,2.505,0.0,0.0,2.7308,2.6504,2.7201,2.6872,2.6358,2.6294,2.6269,2.6172,2.5718,2.5312,2.4554,2.2912,2.2308,2.2455,2.378,0.0,2.2518,2.3764,2.3475,2.299,2.2622,2.2852,2.2927,2.2498,2.2129,2.1699,2.121,2.0391,1.9903,1.9903,1.9492,1.9258,1.9258,1.9296,1.9706,2.0527,2.1649,0.0,0.0,0.0,0.0,0.0,0.0,0.0,0.0,0.0,0.0,0.0,0.0,0.0,0.0,0.0,0.0,0.0,0.0,0.0,0.0,0.0,0.0,0.0,0.0,0.0,0.0,0.0,0.0,2.7827,2.9562,0.0,2.9441,2.992,3.0539,3.1178,3.2185,3.3366,3.4758,3.5512,3.6612,3.8141,3.8944,3.9571,4.0123,4.0324,4.0424,4.0424,4.0424,4.0424,4.0398,3.9106,3.8915,3.9416,3.5692,3.432,3.4471,3.1106,2.9841,3.0015,2.9483,2.9522,2.9758,2.863,2.8359,2.8291,2.6644,2.591,2.5586,2.5019,2.4473,2.4111,2.4573,2.4703,2.4886,2.5999,2.6335,2.6466,2.6759,2.6808,2.6797,2.6797,2.6797,2.668,2.625,2.6035,2.559,2.4418,2.3401,2.2977,2.37,2.2745,2.2133,2.2871,2.2842,2.2654,2.2539,2.2849,2.2967,2.2537,2.2129,2.1699,2.1229,2.0684,2.0351,2.0351,1.9686,1.9432,1.9687,1.9434,1.9569,2.0137,2.0546,2.1446,0.0,0.0,0.0,0.0,0.0,0.0,0.0,0.0,0.0,0.0,0.0,0.0,0.0,0.0,0.0,0.0,0.0,0.0,0.0,0.0,0.0,0.0,0.0,0.0,0.0,2.8064,3.0172,3.0998,3.2394,3.3125,3.2689,3.2835,3.3356,3.424,3.4883,3.6006,3.7688,3.8115,3.8894,4.0199,4.0777,4.1153,4.1302,4.1503,4.1503,4.1302,4.1302,4.1302,4.1248,3.9346,3.9041,3.969,3.5234,3.3685,3.4086,3.1507,3.0676,3.0984,3.0324,3.0486,3.0968,3.0092,2.9855,2.9731,2.8015,2.707,2.6484,2.5766,2.516,2.4687,2.4801,2.4937,2.5137,2.5454,2.6177,2.6842,2.6842,2.7129,2.7441,2.7441,2.7344,2.7168,2.69,2.6699,2.6426,2.584,2.4711,2.415,2.513,2.4487,2.4202,2.5176,2.5332,2.5284,2.514,2.4711,2.4313,2.4062,2.2871,2.1914,2.1464,2.1379,2.1126,2.0625,2.0391,2.0236,2.0156,2.0216,2.0333,2.0467,2.1057,2.1933,2.3038,0.0,0.0,0.0,0.0,0.0,0.0,0.0,0.0,0.0,0.0,0.0,0.0,0.0,0.0,0.0,0.0,0.0,0.0,0.0,0.0,0.0,0.0,0.0,2.7225,3.0716,3.3001,3.2005,3.4609,3.5854,3.4248,3.5054,3.6133,3.7236,3.7814,3.8818,4.0475,4.0549,4.08,4.1352,4.1934,4.1959,4.1376,4.1959,4.1959,4.1378,4.1403,4.1376,4.1324,3.9647,3.8907,3.8749,3.5178,3.3683,3.3555,3.1678,3.0898,3.0801,2.997,3.1319,3.3515,3.2227,3.2556,3.3149,2.9567,2.7773,2.7012,2.6621,2.6465,2.6348,2.5932,2.6113,2.6445,2.6465,2.7096,2.7761,2.7761,2.8054,2.834,2.834,2.8034,2.7721,2.7721,2.7344,2.7006,2.6986,2.5996,2.579,2.7773,2.7818,2.8288,3.0389,3.0693,0.0,3.0151,2.8215,2.6889,2.6967,2.4293,2.2362,2.2031,2.2497,2.2182,2.0723,2.1562,2.167,2.0625,2.1511,2.189,2.1591,2.3321,2.36,2.2305,0.0,0.0,0.0,0.0,0.0,0.0,0.0,0.0,0.0,0.0,0.0,0.0,0.0,0.0,0.0,0.0,0.0,0.0,0.0,0.0,0.0,2.9266,3.0847,3.1194,3.3347,3.5248,3.6152,3.741,3.819,3.8115,3.8718,3.942,4.0123,4.0324,4.0775,4.1683,4.1733,4.1984,4.2509,4.2688,4.2889,4.3112,4.3288,4.3288,4.3137,4.351,4.3485,4.3028,3.9933,3.8902,3.9292,3.4639,3.3019,3.3576,3.1967,3.1172,3.0859,3.0654,3.0807,3.1162,3.079,3.0701,3.0599,2.9581,2.8848,2.8437,2.866,2.8093,2.7428,2.7864,2.791,2.7832,2.8144,2.8613,2.907,2.907,2.9168,2.9246,2.9246,2.8887,2.8496,2.821,2.7819,2.7428,2.707,2.6719,2.6451,2.6413,2.5771,2.5508,2.6094,2.5937,2.5718,2.5596,2.4773,2.4687,2.5987,2.421,2.3304,2.4217,2.3242,2.2153,2.1113,2.1031,2.0915,2.0605,2.0547,2.076,2.1297,2.2041,2.2392,0.0,0.0,0.0,0.0,0.0,0.0,0.0,0.0,0.0,0.0,0.0,0.0,0.0,0.0,0.0,0.0,0.0,0.0,0.0,0.0,0.0,0.0,3.2049,3.4405,3.5587,3.6422,3.7438,3.8894,3.9572,4.0124,4.0703,4.1054,4.153,4.2281,4.2331,4.261,4.3162,4.3215,4.3338,4.3664,4.3664,4.3815,4.4141,4.4141,4.37,4.2794,4.4024,4.3846,4.2393,4.0487,3.9832,3.9916,3.6112,3.4402,3.4257,3.3178,3.2127,3.1133,0.0,0.0,0.0,0.0,3.112,3.0701,3.0077,2.9551,2.9199,2.9277,2.8789,2.8281,2.8769,2.875,2.8633,2.9062,2.9403,2.9598,2.9598,2.9598,2.9598,2.9598,2.9403,2.9082,2.8652,2.8359,2.8066,2.7637,2.7402,0.0,2.6641,2.6562,2.6875,2.7793,2.7578,2.7175,2.682,2.5762,2.5353,2.6222,2.4369,2.3366,2.4017,2.3525,0.0,0.0,0.0,2.1816,2.1768,2.1392,0.0,0.0,0.0,2.3083,2.2617,2.3593,0.0,0.0,2.2989,2.3544,0.0,0.0,0.0,0.0,0.0,0.0,0.0,0.0,0.0,0.0,0.0,0.0,0.0,0.0,0.0,0.0,3.5238,3.8243,3.9825,3.9723,3.9773,4.0601,4.1227,4.1779,4.2311,4.2464,4.2889,4.3915,4.394,4.4141,4.4665,4.464,0.0,0.0,0.0,4.469,4.469,4.4565,4.3619,4.1891,4.3649,4.3232,4.0877,4.1153,4.0858,4.003,3.8049,3.6305,3.4819,3.4402,3.3109,3.1406,3.1035,3.171,3.2851,3.2851,3.26,3.2051,3.0738,0.0,0.0,2.9258,2.9054,2.9004,2.9015,2.9035,2.9141,2.9559,2.9715,2.9755,2.9755,2.9755,2.9755,2.9755,2.9715,2.9559,2.9141,2.8996,2.8887,2.8516,2.8132,2.7839,2.7839,2.866,2.995,3.1797,3.1749,3.1151,3.0343,2.856,2.7246,2.7032,2.4758,0.0,2.2962,2.3652,2.3469,2.2069,2.2812,2.3282,2.3233,2.2967,2.3223,2.4169,2.4902,2.4515,2.2998,2.4212,2.423,2.3196,2.4468,2.5264,0.0,0.0,0.0,0.0,0.0,0.0,0.0,0.0,0.0,0.0,0.0,0.0,0.0,0.0,0.0,3.536,3.8081,4.0456,4.2135,4.2635,4.2612,4.1934,4.271,4.3363,4.3463,4.389,4.4418,4.5121,4.4719,4.4719,4.5296,4.4869,4.4815,4.5296,4.5321,4.5321,4.5321,4.4354,4.4154,4.4704,4.4154,0.0,4.2404,4.1222,3.9441,3.7179,3.5518,3.4015,3.2782,3.2683,3.1998,3.0996,3.0918,3.1083,3.1325,3.1325,3.1285,3.1148,3.0858,3.0449,3.0117,3.041,3.0019,2.954,2.9844,2.9941,0.0,3.0059,3.038,3.0644,3.0644,3.0644,3.0644,3.0644,3.0351,3.0059,2.9961,2.9687,2.9442,2.9364,2.8965,2.8672,2.8672,2.8027,2.7539,2.7617,2.7266,2.6791,2.6292,2.5518,2.5562,2.6929,2.5315,2.459,2.5641,2.4585,2.3443,2.244,2.2277,2.2196,2.2202,2.212,2.2328,2.2862,2.3036,2.3271,2.3632,2.2838,2.2602,2.2864,2.2628,2.2822,0.0,0.0,0.0,0.0,0.0,0.0,0.0,0.0,0.0,0.0,0.0,2.8899,3.0785,0.0,3.6333,3.82,4.0786,4.2961,4.4066,4.4719,4.4644,4.3514,4.3865,4.4317,4.4618,4.4895,4.5397,4.625,4.602,4.6095,4.6677,4.6426,4.6401,4.6677,4.5798,4.5366,4.5366,4.4479,4.3381,4.2053,4.3153,4.2382,3.9998,4.0061,3.9224,3.7647,3.6609,3.5324,3.3913,3.2927,3.2226,3.1797,3.1367,3.1074,3.0898,3.0898,3.0898,3.0898,3.0898,3.0742,3.0547,3.0547,3.0254,2.995,3.0137,3.0351,3.0547,3.0547,3.0859,3.1152,3.0937,3.0898,3.0898,3.0898,3.0703,3.0488,3.0254,3.0039,2.9852,2.9637,2.9422,2.9238,2.9238,2.8711,2.8034,2.7174,2.666,2.6211,2.5806,2.5352,2.5314,2.6021,2.5076,2.4672,2.5402,2.4438,2.3516,2.2849,2.2596,2.2617,2.2832,2.2854,2.3047,2.3435,2.2792,2.2733,2.3303,2.1948,2.1657,2.2324,2.1452,2.1593,0.0,0.0,0.0,0.0,0.0,0.0,0.0,2.6153,2.7434,2.9655,3.1086,3.2599,3.4637,3.7271,3.955,4.0845,4.3257,4.5146,4.5723,4.6276,4.625,4.5217,4.4991,4.5141,4.5748,4.5723,4.61,4.7174,4.7174,4.7324,4.7883,4.7908,4.7752,4.7383,4.6038,4.509,4.4554,4.3872,4.2056,3.9125,4.1542,4.0828,3.7453,3.8755,3.8887,3.8064,3.7418,3.6453,3.5201,3.3409,3.2676,3.2598,3.1914,3.1445,3.1113,3.0957,3.0996,3.1113,3.0957,3.0996,3.1074,3.0605,3.0508,3.0586,3.0586,3.084,3.1133,3.1133,3.1387,3.1562,3.123,3.1133,3.1113,3.1035,3.1016,3.0898,3.043,3.0332,3.0234,2.9931,2.9774,2.9715,2.9715,2.9657,2.9227,2.8112,2.7539,2.7109,2.668,2.6225,2.5815,2.5512,2.498,2.4586,2.441,2.4102,2.3769,2.3376,2.3335,2.3552,2.4023,2.4043,2.4124,2.4228,2.3173,2.2612,2.2635,2.1279,2.1037,2.1778,2.0647,2.0836,2.3044,2.3138,2.3941,2.5071,2.5671,2.6655,0.0,3.0105,3.0973,3.2962,3.4656,3.6321,3.8037,3.98,4.1683,4.3768,4.5221,4.6296,4.6848,4.7375,4.7506,4.6898,4.6396,4.6321,4.6873,4.6471,4.6677,4.7732,4.735,4.7324,4.7883,4.7908,4.7163,4.5557,4.5785,4.4701,4.2216,4.1127,4.0678,4.0892,3.9725,3.8897,3.8429,3.8205,3.7041,3.5084,3.3925,3.3483,3.3591,3.2651,3.2276,3.2257,3.2159,3.2101,3.1964,3.1201,3.1397,3.1944,3.1182,3.1416,3.1983,3.1504,3.1641,3.1983,3.1983,3.2022,3.2061,3.2061,3.2081,3.212,3.2081,3.2061,3.1964,3.1543,3.1416,3.1328,3.0898,3.082,3.0801,3.0762,3.041,3.0137,3.0137,2.9852,2.9422,2.8867,2.8418,2.8008,2.7604,2.7148,2.683,2.6797,2.605,2.5249,2.4469,2.4352,2.4293,2.4254,2.4254,2.4473,2.4926,2.4945,2.4526,2.363,2.3458,2.2912,2.1985,2.0647,2.0494,2.1421,2.0116,2.0215,2.4927,2.4835,2.5326,2.7109,2.8116,2.9248,3.1518,3.2596,3.3651,3.5452,3.6909,3.8441,4.0426,4.1882,4.336,4.5267,4.6496,4.7431,4.8008,4.7732,4.7224,4.6697,4.5844,4.5643,4.6547,4.6697,4.7074,4.7857,4.8033,4.7843,4.7288,4.8295,4.8039,4.6213,4.5309,4.4311,4.3141,4.1276,3.984,3.8942,3.8921,3.8303,3.7072,3.6629,3.5792,3.4668,3.4141,3.3867,3.3769,3.3449,3.3125,3.2871,3.2637,3.2863,3.3176,3.2061,3.1885,3.214,3.1788,3.1905,3.2179,3.1953,3.2042,3.2198,3.2198,3.2374,3.2511,3.2276,3.2374,3.2511,3.2257,3.2198,3.2159,3.1934,3.1894,3.1855,3.171,3.1426,3.125,3.125,3.0898,3.0605,3.0605,3.0478,3.0302,3.0098,2.9258,2.8594,2.8418,2.7812,2.7305,2.7025,2.6674,2.6206,2.5625,2.5566,2.5449,2.5171,2.5171,2.5367,2.5845,2.4998,2.4507,2.4485,2.2838,2.194,2.1843,2.0499,2.0156,2.0699,2.034,2.0452,2.6359,2.6484,2.7103,2.9378,3.07,3.1904,3.3611,3.4977,3.6257,3.7588,3.8919,4.0326,4.2085,4.3316,4.4568,4.6245,4.7305,4.8109,4.8718,4.7832,4.6848,4.6175,4.5095,4.4544,4.4903,4.5979,4.7048,4.8083,4.8385,4.8095,4.7055,4.8271,4.7916,4.554,4.4192,4.3145,4.2397,4.0647,3.8904,3.7164,3.8191,3.7752,3.5996,3.5586,3.5215,3.4883,3.4766,3.459,3.4466,3.4329,3.4062,3.373,3.3301,3.3594,3.4153,3.3117,3.2726,3.2667,3.2316,3.2433,3.2707,3.2589,3.2707,3.2902,3.2902,3.3086,3.3262,3.298,3.3086,3.3223,3.2824,3.2726,3.2667,3.2433,3.2374,3.2335,3.2218,3.1816,3.1494,3.1494,3.1172,3.0898,3.0898,3.0898,3.0898,3.0898,2.9961,2.9277,2.9277,2.8535,2.7878,2.7422,2.7266,2.707,2.6783,2.6621,2.6484,2.6264,2.5827,2.5774,2.6244,2.4873,2.4224,2.4469,2.2398,2.1349,2.1347,2.0369,2.0067,2.033,2.0575,2.0753,2.6895,2.7936,2.934,3.1944,3.3561,3.4876,3.6031,3.7563,3.8944,3.9522,4.0954,4.2288,4.2864,4.3865,4.5116,4.6798,4.7525,4.8109,4.8718,4.7832,4.6697,4.5648,4.4518,4.3218,4.1683,4.3969,4.6426,4.8617,4.8234,4.7816,4.7502,4.7529,4.5909,4.2249,4.209,4.0776,3.8128,3.8037,3.7535,3.6734,3.716,3.6871,3.5996,3.5586,3.5391,3.5351,3.4902,3.4941,3.5312,3.4863,3.4668,3.4609,3.4231,3.4329,3.4629,3.4212,3.4055,3.386,3.2628,3.3,3.3977,3.3516,3.3945,3.4629,3.4629,3.4629,3.4648,3.4629,3.4629,3.4551,3.4153,3.4055,3.384,3.2969,3.2773,3.2656,3.2276,3.1816,3.1494,3.1494,3.1172,3.0898,3.0898,3.0898,3.0898,3.0898,3.0469,3.0156,3.0156,2.9414,2.8711,2.8301,2.7917,2.7663,2.7663,2.7246,2.7168,2.7604,2.6104,2.5442,2.5892,2.4738,2.3636,2.2602,2.2498,2.1737,2.0244,2.0214,2.0374,2.0699,2.0699,2.0828,2.8944,3.0541,3.2337,3.412,3.6026,3.7663,3.8417,3.9295,4.0124,4.065,4.0153,4.0029,4.1317,4.1175,4.194,4.5182,4.5978,4.6813,4.8548,4.8134,4.6462,4.3281,4.2836,4.1784,3.912,4.2521,4.5231,4.6029,4.61,4.5966,4.5668,4.6531,4.5496,4.2126,4.2932,4.2362,4.0182,3.897,3.8066,3.75,3.709,3.6875,3.6836,3.6133,3.5976,3.6245,3.5781,3.5508,3.5391,3.5234,3.498,3.4687,3.4551,3.4766,3.5098,3.4648,3.4687,3.4837,3.3821,3.3938,3.4414,3.3984,3.4238,3.4707,3.4707,3.4707,3.4707,3.4707,3.4707,3.4668,3.4531,3.4492,3.4336,3.3801,3.3665,3.3535,3.3086,3.2656,3.2363,3.2363,3.2031,3.167,3.1348,3.1309,3.1211,3.0937,3.0488,3.0098,2.9852,2.9559,2.9324,2.9188,2.9051,2.8953,2.8953,2.8816,2.8314,2.7354,2.6752,2.6049,2.5133,2.3766,2.2958,2.2765,2.1809,2.1139,2.0815,2.0815,2.0869,2.0962,2.1194,2.1341,3.121,3.3073,3.499,3.6606,3.8241,3.9546,3.9898,4.0249,4.0477,4.0356,3.9247,3.8563,3.9397,3.9113,3.9803,4.2996,4.3883,4.5067,4.7568,4.6538,4.4646,4.2353,4.1392,4.0021,3.7577,4.0592,4.3258,4.4625,4.599,4.6541,4.6023,4.6242,4.5114,4.2379,4.2308,4.1707,4.0336,3.9188,3.8437,3.8144,3.7305,3.7109,3.75,3.6797,3.6621,3.691,3.6601,3.6328,3.6055,3.5918,3.5684,3.5371,3.5059,3.5215,3.5566,3.5117,3.5234,3.5488,3.4609,3.459,3.4902,3.4629,3.4824,3.5176,3.5176,3.5176,3.5176,3.5176,3.5176,3.5137,3.498,3.4941,3.4844,3.4427,3.4297,3.418,3.375,3.332,3.2969,3.2832,3.2492,3.2101,3.1797,3.1758,3.1601,3.1172,3.0859,3.0527,3.0126,2.9931,2.9813,2.9813,2.9696,2.9657,2.9813,2.9124,2.8323,2.7424,2.6249,2.5188,2.4251,2.2899,2.2305,2.2589,2.1564,2.1167,2.1416,2.1323,2.1323,2.143,2.1649,2.1743,3.369,3.5532,3.7278,3.9296,4.0174,4.0524,4.0499,4.045,4.0027,3.8812,3.8281,3.7899,3.7276,3.7709,3.874,4.0512,4.1643,4.3243,4.5999,4.3666,4.1965,4.2722,4.0441,3.8295,3.6999,3.8397,4.0873,4.4405,4.7511,4.8928,4.8183,4.6526,4.4703,4.2711,4.0485,3.9114,3.8611,3.8611,3.8611,3.8591,3.7734,3.7559,3.7933,3.75,3.7324,3.7363,3.7324,3.7305,3.7266,3.691,3.6734,3.6656,3.5801,3.5742,3.6001,3.5644,3.5742,3.5957,3.5117,3.5098,3.543,3.541,3.5684,3.5982,3.5982,3.5982,3.5982,3.5982,3.5982,3.5903,3.5527,3.543,3.5312,3.4844,3.4726,3.4609,3.4231,3.3789,3.3347,3.2969,3.257,3.2257,3.2257,3.2237,3.2061,3.1621,3.1562,3.1387,3.0937,3.0508,3.0234,3.0254,2.9931,2.9872,3.0254,2.8403,2.738,2.7728,2.4729,2.3044,2.323,2.2203,2.1743,2.201,2.1743,2.1743,2.1991,2.1743,2.1743,2.1991,2.2004,2.2004,3.6449,3.824,3.9723,4.065,4.1001,4.1001,4.0575,3.9649,3.8641,3.7929,3.6333,3.5194,3.545,3.5753,3.7111,4.0543,4.2349,4.4291,4.7085,4.7807,4.6501,4.2218,4.2392,4.1097,3.667,3.8991,4.181,4.4231,4.44,4.4909,4.6083,4.5785,4.4091,4.0744,4.1037,4.0407,3.8611,3.8611,3.8611,3.8611,3.8027,3.8144,3.8848,3.7773,3.7637,3.8223,3.7578,3.7305,3.7285,3.7187,3.7148,3.7109,3.6894,3.6875,3.6953,3.6855,3.6875,3.6934,3.6719,3.6289,3.5801,3.5488,3.5684,3.5982,3.5982,3.5982,3.5982,3.5982,3.5982,3.5962,3.5845,3.5859,3.5742,3.5312,3.5215,3.5098,3.4629,3.4453,3.4336,3.4238,3.3613,3.3105,3.3105,3.2578,3.2159,3.2042,3.2042,3.1768,3.0996,3.0781,3.084,3.1152,3.1094,3.1191,3.1651,2.9955,2.8429,2.7362,2.5234,2.3513,2.2387,2.2059,2.1943,2.1991,2.1943,2.1943,2.1991,2.1943,2.1943,2.1991,2.2205,2.2311,3.9272,4.0701,4.1681,4.1982,4.1882,4.1381,4.0204,3.9095,3.7927,3.6424,3.4984,3.3938,3.3602,3.4079,3.5484,3.8401,4.0591,4.3166,4.6708,4.7555,4.6908,4.4491,4.4481,4.3432,4.0296,4.178,4.3486,4.4756,4.443,4.4999,4.6919,4.5528,4.3602,4.1245,4.089,4.0144,3.8884,3.8848,3.8945,3.9197,3.8906,3.9043,3.9473,3.8769,3.8594,3.8828,3.834,3.8027,3.7851,3.7656,3.7578,3.7559,3.7363,3.7305,3.7305,3.7305,3.7305,3.7305,3.7305,3.6992,3.6543,3.6309,3.6387,3.6582,3.6582,3.6445,3.6309,3.6309,3.6172,3.5982,3.5982,3.5982,3.5923,3.5723,3.5664,3.5547,3.5098,3.5156,3.5215,3.5039,3.4453,3.3984,3.3984,3.3437,3.3039,3.3039,3.2726,3.2049,3.0898,3.118,3.1255,3.0664,3.148,3.1462,3.0007,2.9295,2.8128,2.6246,2.4494,2.3236,2.2599,2.2445,2.2432,2.2579,2.2445,2.2432,2.2579,2.2432,2.2546,2.28,2.2939,2.3006,4.1892,4.2914,4.3316,4.314,4.2537,4.1435,3.9449,3.8409,3.7177,3.467,3.409,3.3581,3.2156,3.3018,3.448,3.6075,3.8389,4.1534,4.5999,4.5795,4.5885,4.7748,4.6657,4.5605,4.5292,4.5325,4.548,4.5752,4.5889,4.6609,4.8251,4.5238,4.3136,4.2356,4.0341,3.9258,3.9199,3.9258,3.9492,3.9902,3.9902,3.9922,3.998,3.9922,3.9707,3.9375,3.9316,3.9082,3.873,3.834,3.8108,3.803,3.7695,3.7519,3.7461,3.7461,3.7461,3.7461,3.7461,3.7461,3.7441,3.7324,3.7305,3.7305,3.7305,3.7051,3.6792,3.6792,3.6484,3.6157,3.6157,3.6157,3.6157,3.6157,3.6157,3.6094,3.5723,3.5937,3.6074,3.5723,3.5273,3.4961,3.4961,3.4355,3.3979,3.4238,3.3122,3.1929,3.0897,3.1446,3.1266,2.9534,3.1089,3.0867,2.7468,2.7654,2.7154,2.5215,2.3523,2.2832,2.3332,2.3126,2.3148,2.3345,2.3161,2.3113,2.338,2.3113,2.3295,2.3803,2.3803,2.3803,4.3718,4.4618,4.4819,4.389,4.2208,4.0277,3.8236,3.6447,3.4831,3.3638,3.3534,3.3407,3.246,3.3969,3.6071,3.8281,4.0158,4.3008,4.7688,4.8589,4.8649,4.8437,4.8859,4.8378,4.6397,4.6496,4.6693,4.6746,4.5326,4.4417,4.4329,4.3775,4.2381,3.9909,3.9796,3.959,3.9199,3.959,3.9824,3.9902,3.9902,4.0078,4.0372,4.0059,4.0039,4.0273,3.9922,3.9726,3.9668,3.959,3.9336,3.8984,3.8906,3.8652,3.8359,3.8359,3.8359,3.8359,3.8359,3.8359,3.8278,3.7519,3.7305,3.7305,3.7305,3.7246,3.7187,3.7187,3.7129,3.707,3.707,3.707,3.707,3.707,3.707,3.7051,3.6992,3.7031,3.7051,3.6973,3.6656,3.6362,3.6362,3.4373,3.3307,3.4923,3.2047,3.017,3.1497,3.0936,2.9924,2.8726,2.8943,2.901,2.8672,2.7455,2.6537,2.618,2.4519,2.3581,2.3723,2.3683,2.3669,2.3688,2.3669,2.3669,2.3688,2.3669,2.371,2.3803,2.3803,2.3803,4.4133,4.5536,4.6426,4.502,4.2785,4.0251,3.78,3.5848,3.4251,3.3161,3.3506,3.3761,3.3005,3.4451,3.6183,3.7479,3.8737,4.1347,4.6511,4.7372,4.8169,5.013,5.1048,5.0655,4.8469,4.8439,4.7686,4.5627,4.464,4.3991,4.3744,4.2597,4.1296,3.9902,3.9902,3.9902,3.9883,4.0117,4.0332,4.0605,4.0605,4.0664,4.0859,4.0644,4.0547,4.0469,4.0312,4.0098,3.9902,3.9902,3.9766,3.9551,3.9551,3.9434,3.9258,3.9258,3.9258,3.9258,3.9258,3.9258,3.9199,3.8789,3.834,3.8005,3.8005,3.7812,3.7617,3.7617,3.7461,3.7305,3.7305,3.7461,3.7617,3.7617,3.6931,3.6269,3.6341,3.5285,3.4358,3.4431,3.4108,3.384,3.384,3.2525,3.1894,3.3037,3.1075,2.9614,3.0006,2.933,2.8478,2.7651,2.8766,2.8764,2.687,2.7146,2.6953,2.5794,2.4948,2.4553,2.4676,2.4529,2.4486,2.4486,2.4486,2.4486,2.4486,2.4486,2.4486,2.4486,2.4609,2.4596,4.4623,4.6325,4.7481,4.5748,4.3037,4.0102,3.7433,3.5456,3.3938,3.3068,3.3651,3.4111,3.3441,3.4618,3.5878,3.6382,3.7273,3.9728,4.489,4.5805,4.7244,5.0712,5.2154,5.198,4.9605,4.9748,4.8361,4.4377,4.3718,4.3432,4.3328,4.1624,4.0586,4.0391,4.0254,4.0273,4.0489,4.0625,4.084,4.1211,4.1211,4.1211,4.1211,4.1211,4.0976,4.0664,4.0664,4.0469,4.0176,4.0176,4.0117,4.0039,4.0039,3.9696,3.9183,3.9183,3.9183,3.9183,3.9183,3.9505,3.9902,3.9902,3.9434,3.8904,3.8904,3.8613,3.834,3.834,3.8105,3.7851,3.7851,3.8105,3.8195,3.774,3.622,3.4923,3.5036,3.3436,3.2005,3.2118,3.1872,3.1675,3.1675,3.0945,3.0598,3.1399,3.0112,2.8954,2.8612,2.7972,2.7329,2.6844,2.8429,2.8226,2.506,2.6711,2.7122,2.5297,2.5237,2.5344,2.5504,2.5291,2.517,2.517,2.517,2.517,2.517,2.517,2.517,2.5184,2.5411,2.5384,4.6276,4.7355,4.738,4.5217,4.1882,3.8617,3.6718,3.4474,3.2904,3.3413,3.3835,3.397,3.34,3.4428,3.5691,3.6844,3.8097,4.0387,4.4494,4.6357,4.7465,4.7873,5.0871,5.1408,4.7649,4.8938,4.8361,4.4377,4.2445,4.1286,4.0854,4.1034,4.0762,3.998,4.0702,4.0879,4.0489,4.0918,4.1172,4.1211,4.1211,4.1211,4.1211,4.1211,4.1191,4.1152,4.1152,4.1094,4.1093,4.1093,4.082,4.043,4.043,3.8993,3.6916,3.6916,3.6916,3.6916,3.6916,3.8234,3.9902,3.9902,3.9844,3.9766,3.9766,3.9746,3.9726,3.9726,3.9687,3.9668,3.9668,3.9687,3.9199,3.7191,3.5098,3.3597,3.3597,3.3424,3.3234,3.3234,3.3201,3.3185,3.3185,3.1144,3.0215,3.2258,2.9023,2.7042,2.8889,2.7824,2.6866,2.6812,2.6293,2.5832,2.5438,2.5911,2.6017,2.5491,2.577,2.581,2.5518,2.5491,2.5478,2.5478,2.5478,2.5478,2.5478,2.5478,2.5478,2.5478,2.5504,2.5504,4.3369,4.5931,4.7908,4.5698,4.2009,3.8466,3.6861,3.4237,3.2352,3.3203,3.3737,3.4074,3.3986,3.4956,3.5865,3.6026,3.6399,3.759,4.0382,4.148,4.2774,4.4785,4.7143,4.7744,4.5459,4.5961,4.5313,4.256,4.1657,4.1132,4.0918,4.1113,4.1054,4.0684,4.1035,4.1094,4.0918,4.1132,4.1211,4.1211,4.1211,4.1211,4.1211,4.1211,4.1211,4.1211,4.1211,4.1211,4.1094,3.9767,3.9105,3.8799,3.7503,3.6368,3.5475,3.5475,3.5475,3.5475,3.5475,3.603,3.6759,3.6759,3.7641,3.8833,3.966,3.9902,3.9902,3.9902,3.8937,3.791,3.791,3.7136,3.6184,3.5622,3.3781,3.2162,3.2,3.0921,2.9905,2.9756,2.9727,2.9727,2.9727,2.8842,2.8448,2.9308,2.7911,2.7094,2.7951,2.7486,2.7094,2.7094,2.6774,2.6573,2.6573,2.672,2.6734,2.6573,2.672,2.6734,2.6573,2.6573,2.648,2.6306,2.6267,2.6213,2.6039,2.6039,2.5959,2.5785,2.5959,2.5945,4.1124,4.4156,4.6768,4.515,4.1683,3.829,3.6996,3.4208,3.2204,3.3158,3.3829,3.4249,3.4298,3.5426,3.6207,3.5718,3.5904,3.6687,3.824,3.8734,3.9828,4.2347,4.3922,4.4334,4.3252,4.3201,4.2675,4.1288,4.1211,4.1211,4.1211,4.1211,4.1211,4.1211,4.1211,4.1211,4.1211,4.1211,4.1211,4.1211,4.1211,4.0841,4.0217,4.0217,3.9864,3.9295,3.9295,3.9668,4.006,3.7856,3.7339,3.7697,3.554,3.4286,3.3716,3.3716,3.3716,3.3716,3.3716,3.4164,3.4692,3.4692,3.5702,3.7153,3.8082,3.8801,3.93,3.93,3.7704,3.6035,3.6035,3.4647,3.333,3.3668,3.2052,3.041,3.0219,2.8966,2.7776,2.7603,2.7563,2.7563,2.7563,2.7496,2.7469,2.755,2.7496,2.7469,2.755,2.7563,2.7563,2.7563,2.7563,2.7496,2.7322,2.7389,2.7403,2.7309,2.7389,2.7403,2.7309,2.7309,2.7202,2.6961,2.6867,2.676,2.6693,2.656,2.6453,2.6386,2.66,2.6573,4.0714,4.246,4.329,4.3095,4.0501,3.7788,3.6895,3.4357,3.2491,3.3492,3.4187,3.4504,3.4171,3.5705,3.6805,3.6285,3.765,3.8938,3.9497,3.9875,4.0306,4.087,4.1823,4.202,4.0938,4.1061,4.1211,4.1211,4.1211,4.1211,4.1211,4.1211,4.1211,4.1211,4.1211,4.1211,4.1211,4.1211,4.1211,4.1211,4.1211,4.006,3.7935,3.7935,3.6762,3.4773,3.4773,3.5943,3.7777,3.5621,3.6,3.7697,3.554,3.3349,3.1433,3.1433,3.1433,3.1433,3.1433,3.2858,3.4692,3.4692,3.4732,3.4732,3.4773,3.6224,3.7917,3.7917,3.6384,3.4732,3.4732,3.3104,3.1433,3.1433,2.9774,2.8221,2.8221,2.8221,2.8179,2.8179,2.8179,2.8179,2.8179,2.7924,2.7789,2.8138,2.7924,2.7802,2.8138,2.8179,2.8179,2.8179,2.8179,2.7938,2.7362,2.7522,2.7575,2.7322,2.7535,2.7562,2.7322,2.7309,2.7309,2.7309,2.6974,2.6961,2.7296,2.6961,2.6961,2.7296,2.7296,2.7296,3.7028,3.8839,4.0334,3.9724,3.7663,3.568,3.5397,3.3715,3.2449,3.3327,3.3773,3.4123,3.4542,3.5605,3.6423,3.6514,3.7667,3.8061,3.6702,3.809,3.8983,3.8387,4.0243,4.1436,4.1107,4.1148,4.1211,4.1211,4.1211,4.1211,4.1211,4.1211,4.1211,4.1211,4.1211,4.1211,4.1211,4.1211,4.1211,4.1172,3.9649,3.8587,3.7856,3.6402,3.5339,3.4692,3.4692,3.5097,3.554,3.3349,3.2817,3.3227,3.1076,2.9815,2.9202,2.9202,2.9202,2.9202,2.9202,2.9648,3.026,3.026,3.1241,3.2463,3.2463,3.3961,3.5379,3.3879,3.2981,3.2093,3.0634,2.9732,2.9202,2.9202,2.867,2.8179,2.8179,2.8179,2.8179,2.8179,2.8179,2.8179,2.8179,2.8112,2.8072,2.8165,2.8098,2.8072,2.8179,2.8179,2.8179,2.8179,2.8179,2.8112,2.7924,2.7991,2.8005,2.7911,2.7991,2.8005,2.7911,2.7911,2.7804,2.7562,2.7468,2.7375,2.7309,2.7215,2.7215,2.7309,2.7309,2.7416,3.448,3.61,3.7464,3.7133,3.5927,3.474,3.4449,3.3445,3.2641,3.295,3.3413,3.3903,3.4303,3.5188,3.6012,3.6467,3.7414,3.7618,3.6381,3.6955,3.7238,3.6435,3.914,4.0954,4.0677,4.0995,4.1211,4.1211,4.1211,4.1211,4.1211,4.1211,4.1211,4.1211,4.1211,4.1289,4.1406,4.1289,4.084,4.017,3.8621,3.7042,3.542,3.4042,3.3022,3.2258,3.2258,3.271,0.0,3.1076,3.0661,3.12,2.9048,2.8179,2.8179,2.8179,2.8179,2.8179,2.8179,2.8179,2.8179,2.8179,2.9076,3.0176,3.0176,3.1722,3.2997,3.0786,3.0176,2.9899,2.8558,2.8179,2.8179,2.8179,2.8272,2.8366,2.8366,2.8446,2.8486,2.8379,2.8366,2.8326,2.8205,2.8179,2.8179,2.8179,2.8179,2.8179,2.8179,2.8179,2.8179,2.8179,2.8179,2.8179,2.8179,2.8179,2.8179,2.8179,2.8179,2.8179,2.8179,2.8179,2.8098,2.7911,2.7749,2.7669,2.7643,2.7643,2.7643,2.7643,2.7643,2.7737,0.0,3.3973,3.4618,3.509,3.4989,3.4622,3.3991,3.3467,0.0,3.2553,3.3236,3.3853,3.3659,3.463,3.5692,3.6339,3.7072,3.7643,3.7896,3.6588,3.5577,3.5498,3.8664,4.0539,3.981,4.0601,4.1211,4.1211,4.1211,4.1211,4.1211,4.1211,4.1211,4.1211,4.1211,4.1367,4.1758,4.1406,4.0348,3.8715,3.7996,3.5557,3.167,3.1324,3.0107,2.8179,2.8179,2.9328,3.1034,2.9034,2.937,3.0951,2.8964,2.8179,2.8179,2.8179,2.8179,2.8179,2.8179,2.8179,2.8179,2.8179,2.8179,2.8192,2.8205,2.9607,3.0773,2.8754,2.8219,2.8245,2.8219,2.8232,2.8245,2.8245,2.843,2.8644,2.8644,2.8801,2.8921,2.8684,2.8644,2.8551,2.8299,2.8232,2.8219,2.8219,2.8205,2.8179,2.8179,2.8179,2.8179,2.8179,2.8205,2.8219,2.8219,2.8205,2.8179,2.8179,2.8179,2.8179,2.8179,2.8179,2.8179,2.8179,2.7869,2.7911,2.8179,2.8179,2.8179,2.8179,2.8179,2.8179,3.082,0.0,3.1879,3.2252,3.2612,3.291,0.0,3.319,3.3068,3.2961,3.356,3.4265,3.465,3.5087,3.5914,3.7633,3.8012,3.7957,3.7534,3.744,3.7889,3.9205,4.0385,4.0788,3.9935,4.0682,4.1211,4.1211,4.1211,4.1211,4.1211,4.1211,4.1211,4.1211,4.1211,4.1269,4.1328,4.1269,4.1132,4.0966,3.7236,3.5085,3.4267,3.0611,2.867,2.8179,2.8179,2.8473,2.8922,2.8431,2.8516,2.8922,2.8389,2.8179,2.8179,2.8179,2.8179,2.8179,2.8179,2.8179,2.8179,2.8179,2.8179,2.8232,2.843,2.8868,2.9111,2.8414,2.8513,2.8778,2.8551,2.8657,2.8831,2.8831,2.8841,2.8895,2.8895,2.8948,2.8975,2.8908,2.8895,2.8868,2.8801,2.8644,2.8497,2.8497,2.8339,2.8179,2.8179,2.8179,2.8179,2.8179,2.8393,2.8497,2.8497,2.8326,2.8179,2.8179,2.8179,2.8179,2.8179,2.8179,2.8179,2.8179,2.8112,2.8112,2.8179,2.8179,2.8179,2.8179,2.8179,2.8179,2.9991,3.0494,3.1035,3.104,3.1699,3.242,3.2638,3.2914,3.3101,3.3155,3.3539,3.4101,3.4838,3.5108,3.5696,3.7121,3.7254,3.6998,3.6531,3.7129,3.8126,3.9496,4.0226,4.0605,4.0488,4.0937,4.1211,4.1211,4.1211,4.1211,4.1211,4.1211,4.1211,4.1211,4.1211,4.0801,3.9971,3.9783,3.8869,3.7282,3.449,3.2803,3.1953,2.9355,2.8179,2.8192,2.8339,2.8312,2.8192,2.8339,2.8312,2.8205,2.8339,2.8393,2.8419,2.8511,2.847,2.8393,2.8393,2.8299,2.8179,2.8179,2.8179,2.8245,2.8511,2.8698,2.8764,2.8604,2.8791,2.8961,2.8801,2.8881,2.9001,2.9001,2.9095,2.9245,2.9245,2.9352,2.9362,2.9272,2.9245,2.9205,2.9015,2.8804,2.8657,2.8791,2.8551,2.8446,2.8537,2.8551,2.8551,2.8551,2.8711,2.8761,2.8761,2.8657,2.8497,2.8406,2.8393,2.8339,2.8192,2.8179,2.8179,2.8179,2.8179,2.8179,2.8179,2.8179,2.8179,2.8179,2.8179,2.8179,2.9963,3.0562,3.1125,3.0668,3.1446,3.2261,3.2189,3.2618,3.3102,3.3264,3.3578,3.395,3.442,3.4797,3.5198,3.575,3.5971,3.6153,3.6431,3.7078,3.7814,3.8651,3.9534,4.0332,4.0957,4.1132,4.1211,4.1211,4.1211,4.1211,4.1211,4.1211,4.1055,4.0724,4.0685,3.9661,3.7437,3.7739,3.6091,3.2483,3.1749,3.0497,2.878,2.8374,2.8179,2.8205,2.8417,2.8433,2.8205,2.843,2.8446,2.8286,2.8497,2.8631,2.8711,2.8908,2.8841,2.8671,2.8671,2.847,2.8259,2.8259,2.8259,2.8312,2.8577,2.8885,2.9068,2.9121,2.9135,2.9121,2.9081,2.9095,2.9148,2.9188,2.9432,2.9633,2.9673,2.9873,2.998,2.9726,2.9646,2.9539,2.9242,2.8965,2.8818,2.9028,2.8858,2.8721,2.8961,2.9001,2.9001,2.9001,2.9041,2.9068,2.9068,2.9108,2.9001,2.8764,2.8698,2.8537,2.8272,2.8259,2.8232,2.8179,2.8179,2.8179,2.8179,2.8232,2.8232,2.8179,2.8232,2.8232,3.0357,3.0899,3.1199,3.0519,3.0859,3.1513,3.1932,3.2445,3.3042,3.3651,3.4535,3.4787,3.345,3.404,3.4747,3.4682,3.6169,3.8146,4.0508,3.9706,3.9245,4.0238,4.0711,4.0742,4.0156,4.0781,4.1211,4.1211,4.1211,4.1211,4.1211,4.1211,4.0353,3.8469,3.8429,3.6499,3.2525,3.6098,3.6874,3.4768,3.2494,3.1417,3.1349,2.9201,2.8179,2.8192,2.8232,2.8232,2.8192,2.8232,2.8379,2.8537,2.8591,2.8764,2.8935,2.8975,2.8961,2.8935,2.8935,2.8778,2.8537,2.8537,2.8537,2.8591,2.8841,2.9179,2.9472,2.9713,2.978,2.9726,2.9472,2.9593,2.9847,3.01,3.0239,3.0333,3.0541,3.0621,3.0648,3.0595,3.044,3.0253,3.0212,2.9713,2.9366,2.9406,2.9165,2.8948,2.8988,2.9001,2.9001,2.9001,2.9259,2.9419,2.9419,2.9646,2.9659,2.9366,2.9112,2.8801,2.8551,2.8537,2.8417,2.8192,2.8179,2.8179,2.8179,2.8446,2.8404,2.8192,2.8417,2.8433,3.0105,3.0557,3.0948,3.0811,3.1506,3.2189,3.2032,3.2477,3.3052,3.3527,3.4172,3.4344,3.344,3.4616,3.5784,3.5888,3.6929,3.8106,3.9213,3.8862,3.8947,4.0121,4.0395,4.0508,4.0586,4.0976,4.1211,4.1211,4.1211,4.1211,4.1211,4.1211,4.0197,3.7975,3.7896,3.5822,3.1433,3.339,3.3388,3.1464,3.0248,2.9761,2.9902,2.8738,2.8179,2.8192,2.8366,2.8339,2.8205,2.8497,2.8524,2.8446,2.8885,2.9058,2.9015,2.9219,2.9285,2.9259,2.9055,2.8908,2.8801,2.8801,2.8801,2.8855,2.9192,2.9379,2.9579,3.0034,3.0047,2.9887,2.9753,2.982,2.9953,3.0087,3.0293,3.044,3.0574,3.0675,3.0795,3.0795,3.0688,3.0641,3.0641,3.0279,3.0052,3.0167,2.994,2.9806,2.9967,2.998,2.998,2.998,3.0114,3.0127,3.0012,3.0087,2.9967,2.9513,2.9205,2.8935,2.8801,2.8801,2.8778,2.8631,2.847,2.847,2.8631,2.8486,2.8406,2.8433,2.8537,2.8444,2.9955,3.0343,3.0778,3.1022,3.1894,3.2609,3.2416,3.2767,3.3289,3.3765,3.4095,3.4088,3.3553,3.4848,3.6275,3.7085,3.7808,3.8236,3.8083,3.8418,3.9062,4.0078,4.0195,4.0449,4.1152,4.1211,4.1211,4.1211,4.1211,4.1211,4.1211,4.0724,3.9413,3.7201,3.6642,3.453,3.0703,3.0661,2.9815,2.8179,2.8179,2.8179,2.8179,2.8179,2.8179,2.8205,2.8433,2.8406,2.8219,2.8644,2.8644,2.846,2.9112,2.9325,2.9228,2.9499,2.9579,2.9553,2.9282,2.9161,2.9095,2.9095,2.9095,2.9192,2.9419,2.9579,2.9824,3.0279,3.0247,3.0127,3.0127,3.0127,3.014,3.0207,3.0394,3.0627,3.0694,3.0895,3.0996,3.0996,3.0942,3.0889,3.0889,3.0648,3.0587,3.0755,3.0654,3.0587,3.0768,3.0795,3.0795,3.0795,3.0795,3.0702,3.052,3.0507,3.0319,2.982,2.9446,2.9202,2.9202,2.9135,2.9068,2.9001,2.8818,2.8775,2.9001,2.8687,2.858,2.8711,2.8778,2.8644,3.0407,3.0799,3.1037,3.0874,3.1097,3.1721,3.3162,3.3523,3.3883,3.5019,3.5328,3.4909,3.3261,3.37,3.493,3.6936,3.8667,3.9881,4.0234,4.0664,4.1015,4.1113,4.1113,4.1152,4.1211,4.1211,4.1211,4.1211,4.1211,4.1211,4.1211,3.9237,3.7162,3.4975,3.294,3.0744,2.8473,2.8431,2.8347,2.8179,2.8179,2.8179,2.8179,2.8179,2.8179,2.8179,2.8205,2.8205,2.8192,2.8232,2.8511,2.8935,2.9001,2.9348,2.986,2.9873,2.9887,2.9887,2.986,2.9673,2.9446,2.9446,2.9446,2.9459,2.9472,2.9905,3.0346,3.04,3.0541,3.0728,3.0728,3.0728,3.0795,3.1062,3.1096,3.1236,3.1564,3.1644,3.1657,3.1657,3.1383,3.1196,3.1196,3.0955,3.0768,3.0795,3.0768,3.0768,3.0795,3.0795,3.0795,3.0795,3.0795,3.0782,3.0768,3.0755,3.0742,3.0702,3.0167,2.986,2.986,2.9593,2.9325,2.9001,2.8975,2.8975,2.9001,2.9272,2.9259,2.8975,2.9285,2.9259,3.0214,3.1493,3.2438,3.1459,3.2689,3.4054,3.3731,3.4371,3.5172,3.5676,3.6164,3.6243,3.5425,3.5732,3.6523,3.7871,3.9551,4.0742,4.0898,4.1113,4.1211,4.1211,4.1211,4.1211,4.1211,4.1211,4.1211,4.1211,4.1211,4.1211,4.1211,3.908,3.6922,3.4773,3.2546,3.0385,2.8221,2.8179,2.8179,2.8179,2.8179,2.8179,2.8179,2.8179,2.8179,2.8179,2.8179,2.8299,2.8444,2.8631,2.8831,2.9015,2.9245,2.9673,3.0167,2.998,3.0034,3.0167,2.998,2.9847,2.978,2.9967,3.0079,3.0105,3.0247,3.0448,3.0662,3.0849,3.0982,3.1022,3.0835,3.0795,3.0822,3.0929,3.1089,3.1203,3.137,3.1543,3.1711,3.1711,3.1583,3.1503,3.1503,3.141,3.1343,3.1343,3.1343,3.1343,3.1343,3.1343,3.1343,3.1343,3.1169,3.1062,3.1062,3.0902,3.0862,3.1049,3.0688,3.0381,3.0207,3.0132,3.0025,2.986,2.9499,2.9499,2.986,2.9419,2.9245,2.9312,2.9432,2.9325,3.0202,3.1235,3.2022,3.1366,3.302,3.4722,3.4516,3.5056,3.5747,3.6322,3.6692,3.7015,3.7082,3.7187,3.7676,3.8809,4.0253,4.1211,4.1211,4.1211,4.1211,4.1211,4.1211,4.1211,4.1211,4.1211,4.1211,4.1211,4.1211,4.088,4.0197,3.8073,3.5903,3.3716,3.1516,2.969,2.8221,2.8179,2.8179,2.8179,2.8179,2.8179,2.8179,2.8179,2.8232,2.8326,2.8232,2.8419,2.8751,2.8815,2.8975,2.9205,2.9499,2.986,3.0194,2.9993,3.0047,3.0194,2.998,2.9913,2.9953,3.0154,3.0221,3.0306,3.0461,3.0581,3.0715,3.1009,3.1156,3.1196,3.1089,3.1076,3.1076,3.1076,3.1223,3.137,3.137,3.1597,3.181,3.181,3.1925,3.1992,3.1992,3.1992,3.1992,3.1992,3.1912,3.181,3.181,3.173,3.1711,3.1711,3.149,3.137,3.137,3.1183,3.1156,3.1356,3.1183,3.0942,3.0648,3.0587,3.0547,3.0547,3.0052,2.9998,3.04,2.9753,2.9513,2.9619,2.9806,2.974,3.0482,2.9852,2.9274,3.0348,3.1535,3.3091,3.5611,3.553,3.5371,3.6996,3.6992,3.6988,3.7793,3.7617,3.791,3.9629,4.0625,4.1211,4.1211,4.1211,4.1211,4.1211,4.1211,4.1211,4.1211,4.1211,4.1211,4.1211,4.1211,4.0236,3.8015,3.5863,3.3676,3.1475,2.9328,2.8179,2.8179,2.8179,2.8179,2.8179,2.8179,2.8179,2.8179,2.8179,2.8353,2.8591,2.8312,2.8484,2.8975,2.8738,2.8965,2.9513,2.9806,2.9913,2.9913,2.9913,2.9913,2.9913,2.9913,2.9913,2.9913,2.9913,2.9913,2.9927,2.9927,3.0127,3.048,3.0715,3.1009,3.1289,3.1597,3.1711,3.1711,3.1711,3.1711,3.1711,3.1724,3.1904,3.2104,3.2104,3.2393,3.2594,3.2594,3.2594,3.2594,3.2594,3.234,3.2104,3.2104,3.1851,3.1711,3.1711,3.1724,3.1724,3.1711,3.1724,3.1724,3.1711,3.1711,3.153,3.1189,3.0942,3.0795,3.0795,3.056,3.0413,3.0413,3.0413,3.0207,2.994,3.0528,3.0635,2.9718,3.0057,3.0389,3.1199,3.3187,3.5104,3.5528,3.616,3.7044,3.835,3.9277,3.9666,3.8945,3.9726,4.043,4.0351,4.1055,4.1621,4.1621,4.1367,4.1211,4.1211,4.1211,4.1211,4.1211,4.1211,4.1211,4.1211,4.1211,4.0236,3.8015,3.5863,3.3676,3.1475,2.9328,2.8179,2.8179,2.8179,2.8179,2.8179,2.8179,2.8179,2.8179,2.8179,2.8232,2.8312,2.8219,2.8484,2.9028,2.9392,2.9633,2.9793,2.9887,3.0047,3.0207,2.9993,3.0047,3.0194,2.9993,2.9913,2.9953,3.0167,3.0266,3.0306,3.0474,3.0742,3.0982,3.1076,3.1303,3.1557,3.165,3.1711,3.1711,3.1711,3.1711,3.173,3.1931,3.2038,3.2171,3.242,3.2541,3.2594,3.2594,3.2594,3.2594,3.2594,3.2527,3.2393,3.2131,3.1851,3.1711,3.1711,3.1851,3.1891,3.1738,3.1851,3.1891,3.1724,3.1711,3.153,3.1189,3.1142,3.1089,3.1089,3.0808,3.0768,3.0969,3.0768,3.0621,3.0541,3.0715,3.0742,2.9711,2.9896,3.0198,3.1902,3.3946,3.5774,3.6696,3.7932,3.9145,4.0051,4.0996,4.1484,4.0859,4.1191,4.1484,4.1308,4.1562,4.1797,4.1797,4.1445,4.1211,4.1211,4.1211,4.1211,4.1211,4.1211,4.1211,4.1211,4.0392,3.8922,3.6762,3.457,3.2381,3.0218,2.888,2.8179,2.8179,2.8179,2.8179,2.8179,2.8179,2.8179,2.8179,2.8179,2.8259,2.8379,2.8486,2.8644,2.8868,2.9499,2.974,2.9753,2.9873,3.002,3.0167,2.998,3.0034,3.0154,2.998,2.9913,2.994,3.0127,3.0181,3.0234,3.0528,3.0662,3.0782,3.1082,3.1276,3.1417,3.1657,3.1711,3.1711,3.1711,3.1805,3.1891,3.2064,3.2291,3.2505,3.2728,3.2862,3.2942,3.2942,3.2942,3.2942,3.2942,3.2741,3.2527,3.2305,3.2024,3.1891,3.2059,3.2219,3.2211,3.2072,3.2233,3.2246,3.2072,3.2059,3.1925,3.1583,3.1463,3.1396,3.1396,3.1116,3.1049,3.1176,3.1049,3.0902,3.0795,3.1036,3.1076,3.0192,2.9728,2.9467,3.2732,3.4417,3.6035,3.8848,4.0488,4.1504,4.1641,4.2207,4.2734,4.2969,4.2247,4.1738,4.2401,4.2168,4.1855,4.1855,4.1465,4.1211,4.1211,4.1211,4.1211,4.1211,4.1211,4.1211,4.1211,3.9158,3.6962,3.4813,3.2612,3.0426,2.8263,2.8179,2.8179,2.8179,2.8179,2.8179,2.8179,2.8179,2.8179,2.8179,2.8179,2.8339,2.8577,2.8828,2.8815,2.8644,2.9219,2.9459,2.9513,2.978,2.99,2.9913,2.9913,2.9913,2.9913,2.9913,2.9913,2.9913,2.9913,2.9913,2.9967,3.0234,3.0154,3.0127,3.0955,3.1022,3.0955,3.1577,3.1711,3.1724,3.1751,3.1904,3.2118,3.2171,3.2599,3.2986,3.3013,3.3227,3.3414,3.3414,3.3414,3.3414,3.3414,3.2933,3.2634,3.2634,3.2332,3.2251,3.2567,3.2621,3.2621,3.2594,3.2621,3.2621,3.2594,3.2594,3.2474,3.2158,3.1864,3.1738,3.1711,3.1396,3.1263,3.1263,3.1263,3.1129,3.0889,3.1423,3.153,3.0644,3.0877,3.1495,3.4643,3.7642,4.0117,4.1445,4.248,4.2715,4.1133,4.2713,4.404,4.2793,4.3457,4.4023,4.3516,4.2793,4.2245,4.2245,4.1641,4.1211,4.1211,4.1211,4.1211,4.1211,4.1211,4.1211,4.1211,3.9158,3.6962,3.4813,3.2612,3.0426,2.8263,2.8179,2.8179,2.8179,2.8179,2.8179,2.8179,2.8179,2.8179,2.8179,2.8179,2.8219,2.8299,2.8564,2.8671,2.8631,2.8991,2.9272,2.9486,2.9553,2.9713,2.9913,2.9913,2.9913,2.9913,2.9913,2.9913,2.9913,2.9913,2.9913,2.9927,2.9993,3.0127,3.04,3.0768,3.1009,3.1209,3.1583,3.1711,3.173,3.1957,3.2051,3.2225,3.2692,3.2893,3.3053,3.328,3.3374,3.3414,3.3414,3.3414,3.3414,3.3414,3.3106,3.2929,3.2929,3.2674,3.2527,3.2581,3.2795,3.2848,3.2607,3.2808,3.2835,3.2607,3.2594,3.2567,3.25,3.2171,3.1904,3.1724,3.161,3.157,3.157,3.157,3.1543,3.1537,3.1657,3.1684,3.0133,3.128,3.3073,3.6897,3.9844,4.1894,4.2284,4.3086,4.3379,4.2266,4.3591,4.4645,4.3574,4.4121,4.4355,4.3262,4.2715,4.2323,4.2148,4.1582,4.1211,4.1211,4.1211,4.1211,4.1211,4.1211,4.1211,4.1211,3.8192,3.588,3.4773,3.1655,2.937,2.8221,2.8179,2.8179,2.8179,2.8179,2.8179,2.8179,2.8179,2.8179,2.8179,2.8179,2.8179,2.8192,2.8353,2.8433,2.846,2.8858,2.9081,2.9299,2.9579,2.978,2.9913,2.9913,2.9913,2.9913,2.9913,2.9913,2.9913,2.9913,2.9913,2.994,3.0087,3.0234,3.0493,3.0875,3.1116,3.1289,3.1597,3.1818,3.1957,3.2286,3.2367,3.2438,3.2879,3.3093,3.3227,3.3387,3.3414,3.3414,3.3414,3.3414,3.3414,3.3414,3.316,3.3026,3.316,3.2982,3.2848,3.2946,3.3093,3.312,3.2973,3.3093,3.312,3.2973,3.2959,3.2955,3.2808,3.2599,3.2385,3.2139,3.1944,3.1877,3.1877,3.1744,3.1711,3.1711,3.1711,3.1711,2.9983,3.2068,3.4897,3.8888,4.1113,4.2324,4.2324,4.2988,4.3594,4.3594,4.4297,4.4766,4.4258,4.4238,4.3867,4.2596,4.2323,4.2207,4.1855,4.1445,4.1211,4.1211,4.1211,4.1211,4.1211,4.1211,4.1016,4.0569,3.6874,3.4415,3.3985,3.0184,2.8031,2.8031,2.8085,2.8112,2.8112,2.8165,2.8179,2.8179,2.8179,2.8179,2.8179,2.8179,2.8179,2.8179,2.8179,2.8179,2.8219,2.8684,2.8868,2.8975,2.9499,2.9713,2.9766,2.982,2.9847,2.9847,2.99,2.9913,2.9913,2.9913,2.9913,2.9967,3.0319,3.04,3.0533,3.1062,3.1176,3.1289,3.1597,3.1891,3.2171,3.2527,3.2634,3.2755,3.2986,3.324,3.3414,3.3414,3.3414,3.3414,3.3414,3.3414,3.3414,3.3414,3.32,3.3146,3.3374,3.32,3.3146,3.3387,3.3414,3.3414,3.3414,3.3414,3.3414,3.3414,3.3414,3.3307,3.3066,3.3053,3.2933,3.2755,3.2358,3.2185,3.2185,3.1944,3.1872,3.1872,3.1872,3.1872,3.2386,3.512,3.7969,3.9515,4.0898,4.1894,4.1894,4.2539,4.3164,4.3164,4.3867,4.4238,4.3398,4.3555,4.3496,4.2538,4.2129,4.1855,4.1816,4.1445,4.1211,4.1211,4.1211,4.1211,4.1211,4.1211,4.0317,3.8149,3.5662,3.3322,3.1197,2.8737,2.7429,2.7429,2.767,2.7762,2.7762,2.8058,2.8179,2.8179,2.8179,2.8179,2.8179,2.8179,2.8179,2.8179,2.8179,2.8179,2.8192,2.8272,2.8417,2.8671,2.8751,2.8938,2.9148,2.9446,2.9539,2.9579,2.9833,2.9913,2.9913,2.9913,2.9913,2.9967,3.0319,3.04,3.0533,3.1062,3.1176,3.1289,3.1597,3.1891,3.2171,3.2527,3.2781,3.3,3.3293,3.3387,3.3414,3.3414,3.3414,3.3414,3.3414,3.3414,3.3414,3.3414,3.3374,3.3374,3.3414,3.3374,3.3374,3.3414,3.3414,3.3414,3.3414,3.3414,3.3414,3.3414,3.3414,3.3387,3.336,3.336,3.3334,3.3293,3.2808,3.2541,3.2541,3.25,3.2474,3.2474,3.2474,3.2474,3.4184,3.5772,3.7325,3.9398,4.0495,4.1211,4.1699,4.2266,4.2715,4.2715,4.3027,4.3183,4.2793,4.2871,4.2715,4.1855,4.1758,4.1719,4.1484,4.1328,4.1211,4.1211,4.1211,4.1211,4.1211,4.0957,3.9931,3.788,3.5309,3.2953,3.0891,2.8587,2.7309,2.7309,2.7429,2.7535,2.7696,2.7871,2.8018,2.8179,2.8179,2.8179,2.8179,2.8179,2.8179,2.8179,2.8179,2.8179,2.8205,2.8379,2.8484,2.8644,2.8965,2.9179,2.9325,2.9619,2.9726,2.974,2.9873,2.9913,2.9913,2.9913,2.9913,2.994,3.0074,3.0341,3.0662,3.0915,3.1223,3.1543,3.1837,3.2131,3.2474,3.2768,3.3013,3.3253,3.3387,3.3414,3.3414,3.3414,3.3414,3.3414,3.3414,3.3414,3.3414,3.3414,3.3414,3.3414,3.3414,3.3414,3.3414,3.3414,3.3414,3.3414,3.3414,3.3414,3.3414,3.3414,3.3414,3.3414,3.3414,3.3414,3.3414,3.3414,3.3,3.2835,3.2835,3.2674,3.2594,3.2594,3.2594,3.2594,3.5219,3.5923,3.6519,3.8716,3.9788,4.05,4.1152,4.1816,4.2246,4.2129,4.2187,4.2226,4.2129,4.2187,4.2031,4.1289,4.1426,4.1523,4.125,4.1113,4.1016,4.1016,4.0918,4.0878,4.0878,4.0644,3.9432,3.6877,3.4812,3.2507,2.9991,2.8067,2.7081,2.7081,2.7162,2.7255,2.7468,2.7629,2.7816,2.8072,2.8152,2.8179,2.8179,2.8179,2.8179,2.8179,2.8179,2.8179,2.8205,2.8433,2.8537,2.8644,2.9085,2.9312,2.9406,2.97,2.9806,2.982,2.9887,2.9913,2.9913,2.9913,2.9913,2.994,3.01,3.0448,3.0822,3.0969,3.1383,3.1824,3.2051,3.2372,3.2755,3.2933,3.32,3.3414,3.3414,3.3414,3.3414,3.3414,3.3414,3.3414,3.3414,3.3414,3.3414,3.3414,3.3414,3.3414,3.3414,3.3414,3.3414,3.3414,3.3414,3.3414,3.3414,3.3414,3.3414,3.3414,3.3414,3.3414,3.3414,3.3414,3.3414,3.3414,3.32,3.3093,3.3093,3.2915,3.2808,3.2808,3.2808,3.2808,3.5191,3.6112,3.6875,3.7406,3.8751,3.9927,3.9973,4.0937,4.1719,4.1328,4.1562,4.1699,4.1348,4.1562,4.168,4.1289,4.123,4.123,4.1211,4.082,4.0566,4.0566,4.0195,3.9961,3.9961,4.0293,3.8515,3.3708,3.3631,3.1693,2.6916,2.6519,2.644,2.644,2.6694,2.6814,2.6867,2.7415,2.7709,2.7722,2.8045,2.8179,2.8179,2.8179,2.8179,2.8179,2.8179,2.8179,2.8179,2.8205,2.8379,2.8604,2.8644,2.8818,2.9055,2.9392,2.9499,2.9539,2.982,2.9913,2.9913,2.9913,2.9913,3.002,3.0581,3.0768,3.0915,3.1463,3.1837,3.2078,3.2104,3.2532,3.2959,3.2973,3.32,3.3414,3.3414,3.3414,3.3414,3.3414,3.3414,3.3414,3.3414,3.3414,3.3414,3.3414,3.3414,3.3414,3.3414,3.3414,3.3414,3.3414,3.3414,3.3414,3.3414,3.3414,3.3414,3.3414,3.3414,3.3414,3.3414,3.3414,3.3414,3.3414,3.34,3.3387,3.3387,3.3374,3.3374,3.3374,3.3374,3.3374,3.5201,3.5645,3.6064,3.7615,3.8392,3.9074,4.0075,4.069,4.1063,4.1014,4.1207,4.1348,4.125,4.1348,4.1348,4.123,4.0937,4.0762,4.0762,4.0391,4.0117,4.0117,3.998,3.9902,3.9902,3.9766,3.8444,3.5568,3.3893,3.1711,2.8795,2.7219,2.6386,2.6386,2.6493,2.664,2.6814,2.7215,2.7509,2.7696,2.7802,2.8005,2.8179,2.8179,2.8179,2.8179,2.8179,2.8179,2.8179,2.8179,2.8245,2.8366,2.8524,2.8671,2.8818,2.9299,2.9486,2.9526,2.982,3.0047,3.0167,2.998,3.0167,3.0488,3.0501,3.0768,3.1156,3.1604,3.1877,3.2185,3.2572,3.2826,3.3026,3.3213,3.3334,3.3414,3.3414,3.3414,3.3414,3.3414,3.3414,3.3414,3.3414,3.3414,3.3414,3.3414,3.3414,3.3414,3.3414,3.3414,3.3414,3.3414,3.3414,3.3414,3.3414,3.3414,3.3414,3.3414,3.3414,3.3414,3.3414,3.3414,3.3414,3.3414,3.3414,3.3414,3.3414,3.3414,3.3414,3.3414,3.3414,3.3414,3.5363,3.5763,3.6284,3.7636,3.8329,3.8905,3.998,4.025,4.0387,4.0774,4.0702,4.0605,4.0723,4.0742,4.082,4.0937,4.0703,4.043,4.0332,3.9941,3.9668,3.9668,3.9531,3.9453,3.9453,3.8682,3.7371,3.5375,3.3039,3.081,2.8848,2.7272,2.6386,2.6386,2.6386,2.648,2.668,2.6974,2.7268,2.7549,2.7655,2.7898,2.8179,2.8179,2.8179,2.8179,2.8179,2.8179,2.8179,2.8179,2.8245,2.8366,2.8524,2.8724,2.8951,2.9339,2.9606,2.9793,2.9887,3.0114,3.036,3.0007,3.0181,3.0501,3.0547,3.0768,3.1156,3.1557,3.1944,3.2345,3.2781,3.2973,3.3173,3.336,3.3414,3.3414,3.3414,3.3414,3.3414,3.3414,3.3414,3.3414,3.3414,3.3414,3.3414,3.3414,3.3414,3.3414,3.3414,3.3414,3.3414,3.3414,3.3414,3.3414,3.3414,3.3414,3.3414,3.3414,3.3414,3.3414,3.3414,3.3414,3.3414,3.3414,3.3414,3.3414,3.3414,3.3414,3.3414,3.3414,3.3414,3.3414,0.0,0.0,0.0,3.7453,3.8446,3.9497,3.9588,3.9537,3.9658,4.0512,3.9895,3.9353,3.9766,3.9863,4.0,4.0391,4.043,4.0332,3.9941,3.9473,3.918,3.918,3.8828,3.8611,3.8611,3.7203,3.5268,3.2847,3.1121,2.9124,2.6702,2.6465,2.6386,2.6386,2.6386,2.6386,2.6386,2.6667,2.6961,2.7309,2.7549,2.7884,2.8179,2.8179,2.8179,2.8179,2.8179,2.8179,2.8179,2.8179,2.8366,2.8591,2.8591,2.8951,2.9459,2.9472,2.9878,3.0346,3.0007,3.0114,3.036,3.002,2.994,3.006,3.0635,3.0808,3.0942,3.1577,3.2152,3.2594,3.2621,3.2986,3.3414,3.3414,3.3414,3.3414,3.3414,3.3414,3.3414,3.3414,3.3414,3.3414,3.3414,3.3414,3.3414,3.3414,3.3414,3.3414,3.3414,3.3414,3.3414,3.3414,3.3414,3.3414,3.3414,3.3414,3.3414,3.3414,3.3414,3.3414,3.3414,3.3414,3.3414,3.3427,3.3414,3.3414,3.3427,3.3414,3.3414,3.3414,3.3414,3.3414,3.6197,0.0,0.0,0.0,0.0,0.0,3.8053,3.8937,3.9407,3.7909,3.8613,3.9374,3.9036,3.8945,3.9021,3.9101,3.9375,3.9531,3.9414,3.9023,3.8787,3.8787,3.8689,3.8611,3.8611,3.8196,3.7511,3.6473,3.3573,3.1383,3.0349,2.7831,2.6386,2.6386,2.6386,2.6386,2.6386,2.6466,2.676,2.7309,2.7389,2.7697,2.8179,2.8179,2.8179,2.8179,2.8179,2.8179,2.8179,2.8179,2.8232,2.8312,2.8312,2.8511,2.8871,2.9085,2.9406,2.974,2.9873,3.0114,3.0386,3.0306,3.0528,3.0842,3.1049,3.1249,3.1591,3.2179,3.2474,3.2688,3.3066,3.3293,3.3414,3.3414,3.3414,3.3414,3.3414,3.3414,3.3414,3.3414,3.3414,3.3414,3.3414,3.3414,3.3414,3.3414,3.3414,3.3414,3.3414,3.3414,3.3414,3.3414,3.3414,3.3414,3.3414,3.3414,3.3414,3.3414,3.3414,3.3414,3.3414,3.3414,3.3521,3.3748,3.3534,3.3521,3.3761,3.3521,3.3414,3.3414,3.3414,3.3414,0.0,0.0,0.0,3.8273,0.0,0.0,3.8657,3.9014,3.8871,3.7058,3.7751,3.839,3.755,3.772,3.8058,3.8165,3.8305,3.8535,3.8887,3.8767,3.8611,3.8611,3.8611,3.8611,3.8611,3.7651,3.6949,3.6667,3.3116,3.055,2.9625,2.7308,2.6132,2.6386,2.6266,2.6305,2.6386,2.6386,2.6627,2.7081,2.7242,2.755,2.8005,2.8125,2.8179,2.8179,2.8179,2.8179,2.8179,2.8179,2.8179,2.8179,2.8179,2.8446,2.8804,2.8935,2.9459,3.002,2.994,3.0194,3.0547,3.0261,3.0488,3.0889,3.1009,3.1249,3.161,3.2198,3.2581,3.2875,3.3293,3.3414,3.3414,3.3414,3.3414,3.3414,3.3414,3.3414,3.3414,3.3414,3.3414,3.3414,3.3414,3.3414,3.3414,3.3414,3.3414,3.3414,3.3414,3.3414,3.3414,3.3414,3.3414,3.3414,3.3414,3.3414,3.3414,3.3414,3.3534,3.3547,3.3414,3.3654,3.3761,3.3694,3.3641,3.3641,3.3694,3.3507,3.3414,3.3414,3.3414,3.3414,0.0,0.0,0.0,0.0,3.8896,0.0,4.0051,3.9387,3.8328,3.7172,3.7212,3.7142,3.6103,3.6616,3.7288,3.7582,3.7431,3.7587,3.8415,3.8496,3.8552,3.8611,3.8611,3.8591,3.8552,3.6528,3.5194,3.5103,3.1306,2.8249,2.6397,2.5798,2.5758,2.6279,2.6078,2.6091,2.6333,2.6346,2.6507,2.6787,2.7121,2.7456,2.7709,2.8045,2.8179,2.8179,2.8179,2.8179,2.8179,2.8179,2.8179,2.8179,2.8179,2.8511,2.9001,2.9001,2.974,3.0621,3.01,3.0261,3.0621,3.0167,3.0194,3.052,3.0795,3.1076,3.1396,3.1984,3.2572,3.3093,3.3347,3.3414,3.3414,3.3414,3.3414,3.3414,3.3414,3.3414,3.3414,3.3414,3.3414,3.3414,3.3414,3.3414,3.3414,3.3414,3.3414,3.3414,3.3414,3.3414,3.3414,3.3414,3.3414,3.3414,3.3414,3.3414,3.3414,3.3414,3.3708,3.3748,3.3427,3.4002,3.4068,3.3521,3.3828,3.3828,3.3507,3.348,3.344,3.3414,3.3414,3.3414,0.0,0.0,0.0,0.0,3.8873,0.0,3.8229,3.8912,3.9002,3.6497,3.7276,3.8208,3.7434,3.7249,3.7334,3.7686,3.7374,3.7302,3.7962,3.8047,3.8184,3.8571,3.8611,3.8437,3.8086,3.759,3.7047,3.6409,3.2676,2.9041,2.5857,2.5571,2.5558,2.5678,2.5625,2.5745,2.6078,2.6078,2.6306,2.6787,2.7121,2.7456,2.7709,2.8045,2.8179,2.8179,2.8179,2.8179,2.8179,2.8179,2.8179,2.8179,2.8179,2.8511,2.9001,2.9001,2.9442,3.0074,2.9953,2.9993,3.014,3.0501,3.0662,3.0808,3.1343,3.1543,3.1751,3.234,3.2879,3.3334,3.34,3.3414,3.3414,3.3414,3.3414,3.3414,3.3414,3.3414,3.3414,3.3414,3.3414,3.3414,3.3414,3.3414,3.3414,3.3414,3.3414,3.3414,3.3414,3.3414,3.3414,3.3414,3.3414,3.3414,3.3414,3.3414,3.3414,3.3414,3.3708,3.3748,3.3427,3.4002,3.4269,3.4148,3.4442,3.4442,3.4135,3.3908,3.3668,3.3414,3.3414,3.3414,0.0,0.0,0.0,3.7937,3.8574,0.0,0.0,3.9417,3.9377,3.6868,3.7634,3.837,3.7128,3.6815,3.6855,3.7244,3.6639,3.635,3.6921,3.7173,3.7383,3.7633,3.7653,3.7574,3.7324,3.7305,3.6723,3.5282,3.2313,2.9497,2.7084,2.5752,2.5173,2.5504,2.5371,2.5543,2.5998,2.5998,2.6212,2.6613,2.6907,2.7201,2.7495,2.7831,2.8045,2.8179,2.8179,2.8179,2.8179,2.8179,2.8179,2.8179,2.8179,2.8511,2.9001,2.9001,2.9499,3.0114,2.9967,3.0007,3.0181,3.0488,3.0675,3.0875,3.1316,3.165,3.1984,3.2474,3.2915,3.3227,3.3374,3.3414,3.3414,3.3414,3.3414,3.3414,3.3414,3.3414,3.3414,3.3414,3.3414,3.3414,3.3414,3.3414,3.3414,3.3414,3.3414,3.3414,3.3414,3.3414,3.3414,3.3414,3.3414,3.348,3.3641,3.3507,3.3547,3.3841,3.3881,3.3881,3.3868,3.4295,3.4536,3.4536,3.4683,3.4616,3.4322,3.4322,3.4162,3.3868,3.3721,3.3721,0.0,0.0,0.0,0.0,3.8287,3.9036,0.0,0.0,0.0,3.7833,3.8231,3.841,3.6805,3.6536,3.6669,3.685,3.6027,3.5531,3.5938,3.6017,3.621,3.6588,3.6465,3.6391,3.6426,3.6304,3.5402,3.3513,3.1299,2.9497,2.829,2.5903,2.4813,2.5293,2.5117,2.5277,2.5904,2.585,2.6024,2.6386,2.6627,2.6921,2.7322,2.7562,2.7856,2.8179,2.8179,2.8179,2.8179,2.8179,2.8179,2.8179,2.8179,2.8511,2.9001,2.9001,2.9566,3.0293,3.0007,3.0114,3.0413,3.0467,3.0675,3.1009,3.1236,3.1677,3.2171,3.2514,3.2808,3.3053,3.3334,3.3414,3.3414,3.3414,3.3414,3.3414,3.3414,3.3414,3.3414,3.3414,3.3414,3.3414,3.3414,3.3414,3.3414,3.3414,3.3414,3.3414,3.3414,3.3414,3.3414,3.3414,3.3467,3.3614,3.3868,3.3708,3.3801,3.4282,3.4162,3.4135,3.4309,3.4603,3.4842,3.4895,3.4895,3.4723,3.4482,3.4723,3.467,3.4309,3.4082,3.4095,0.0,0.0,0.0,3.7978,3.8298,3.8738,4.0128,0.0,3.9709,3.9213,0.0,3.9039,3.814,0.0,0.0,3.7289,3.6309,3.5595,3.564,3.4523,3.4393,3.6299,3.5675,3.5205,3.5527,3.4857,3.3893,3.2715,3.0463,2.8707,2.7653,2.5681,2.4626,2.4693,2.4666,2.4933,2.5558,2.5304,2.5623,2.6386,2.6426,2.6774,2.7322,2.7562,2.7856,2.8179,2.8179,2.8179,2.8179,2.8179,2.8179,2.8179,2.8179,2.8511,2.9001,2.9001,2.9388,2.9967,2.9927,3.0114,3.0453,3.0662,3.1116,3.1617,3.161,3.1851,3.2171,3.2514,3.2808,3.3053,3.3334,3.3414,3.3414,3.3414,3.3414,3.3414,3.3414,3.3414,3.3414,3.3414,3.3414,3.3414,3.3414,3.3414,3.3414,3.3414,3.3414,3.3414,3.3414,3.3414,3.3414,3.3414,3.3668,3.3841,3.3881,3.4082,3.4242,3.4322,3.4536,3.4563,3.4336,3.4603,3.4883,3.5137,3.5151,3.5137,3.5097,3.5137,3.4857,3.4322,3.4282,3.4282,0.0,3.7154,3.7649,3.7376,3.817,3.9136,3.9437,4.0094,4.0371,3.9617,0.0,0.0,0.0,0.0,0.0,0.0,3.5404,3.4511,3.429,3.3421,3.3223,3.4501,3.4081,3.3836,3.4186,3.3425,3.2768,3.2501,3.0804,2.9205,2.7916,2.6601,2.5481,2.4636,2.4599,2.4836,2.5251,2.5304,2.5598,2.6185,2.6306,2.6734,2.7309,2.7429,2.775,2.8179,2.8179,2.8179,2.8179,2.8179,2.8179,2.8179,2.8179,2.8511,2.9015,2.9232,2.9566,2.9913,2.9913,2.9993,3.0181,3.0648,3.1196,3.1711,3.1711,3.1805,3.1944,3.246,3.2688,3.2888,3.3293,3.3414,3.3414,3.3414,3.3414,3.3414,3.3414,3.3414,3.3414,3.3414,3.3414,3.3414,3.3414,3.3414,3.3414,3.3414,3.3414,3.348,3.3668,3.3681,3.3748,3.3921,3.4055,3.4215,3.4427,3.4349,3.4469,3.4803,3.495,3.4803,3.4336,3.4763,3.499,3.495,3.511,3.5191,3.5191,3.5191,3.507,3.483,3.4656,3.467,3.7107,3.7625,3.8163,3.6949,3.7938,3.9113,3.8716,3.9495,4.0087,3.9286,3.8946,0.0,0.0,0.0,3.5893,3.5617,0.0,3.3666,3.3296,3.2583,3.2359,3.3025,3.279,3.25,3.2448,3.1928,3.1734,3.2055,3.0372,2.8976,2.7995,2.6894,2.5719,2.4539,2.4559,2.4746,2.5115,2.5291,2.5585,2.5998,2.6212,2.6653,2.7309,2.7309,2.763,2.8179,2.8179,2.8179,2.8179,2.8179,2.8179,2.8192,2.8272,2.8537,2.8908,2.9245,2.9593,2.9927,3.0007,3.014,3.0341,3.0768,3.1249,3.1711,3.1711,3.1711,3.1675,3.1441,3.1428,3.14,3.1164,3.1139,3.1151,3.1151,3.1151,3.1151,3.1151,3.1151,3.1151,3.1151,3.1151,3.1151,3.1151,3.2384,3.3414,3.3414,3.3414,3.3494,3.3721,3.3828,3.3961,3.4175,3.4349,3.4536,3.4736,3.4643,3.4736,3.5164,3.5124,3.4883,3.4456,3.4776,3.4897,3.4815,3.4963,3.5124,3.5191,3.5191,3.5191,3.5191,3.4977,3.499,3.6286,3.7341,3.8286,3.7108,3.7583,3.8309,3.816,3.8067,3.8037,3.8222,3.7514,3.6793,3.6452,0.0,0.0,0.0,0.0,0.0,0.0,3.2069,3.1657,3.2522,3.223,3.1426,3.0124,3.0406,3.0731,3.0956,2.8487,2.7182,2.7598,2.5862,2.4666,2.4245,2.4452,2.4746,2.5115,2.5128,2.5422,2.5998,2.6011,2.6466,2.7309,2.7309,2.763,2.8179,2.8179,2.8179,2.8179,2.8179,2.8179,2.8219,2.847,2.8604,2.8657,2.8908,2.9375,2.9953,3.0293,3.0715,3.1136,3.1162,3.1423,3.1711,3.1711,3.1711,3.1241,2.8983,2.8442,2.8034,2.5829,2.5348,2.5471,2.5471,2.5471,2.5471,2.5471,2.5471,2.5471,2.5471,2.5471,2.5471,2.5471,2.9876,3.3414,3.3414,3.3414,3.3414,3.3427,3.3694,3.3895,3.3895,3.4467,3.475,3.4698,3.5004,3.5177,3.5191,3.4989,3.4829,3.4802,3.4496,3.4482,3.4815,3.4829,3.491,3.5191,3.5191,3.5191,3.5191,3.5191,3.5191,3.8275,3.885,3.9201,3.7112,3.8189,3.9423,3.8124,3.8913,3.9654,3.8814,3.8611,3.8173,3.6746,0.0,0.0,0.0,0.0,0.0,0.0,3.1453,3.0793,3.035,3.015,3.0044,3.0084,2.9111,2.8714,2.9252,2.8558,2.742,2.5959,2.6115,2.5559,2.3973,2.4195,2.4452,2.4783,2.517,2.5464,2.5678,2.6253,2.6787,2.7309,2.7468,2.7804,2.8179,2.8179,2.8179,2.8179,2.8179,2.8179,2.8192,2.8299,2.843,2.8671,2.9152,2.9459,2.97,3.0239,3.0608,3.0969,3.1122,3.1423,3.1379,2.9625,2.9135,2.8644,2.6409,2.578,2.5729,2.5257,2.5154,2.5215,2.5215,2.5215,2.5215,2.5215,2.5215,2.5215,2.5215,2.5215,2.5215,2.5215,2.6751,2.8596,3.0394,2.9155,2.9377,3.3226,3.2417,3.2235,3.4288,3.4817,3.5044,3.5044,3.5137,3.5191,3.5191,3.5097,3.4883,3.4482,3.2923,3.1914,3.1644,3.2041,3.2275,3.2361,3.4267,3.5191,3.5191,3.5191,3.5191,3.889,3.9353,3.9612,3.7529,3.848,3.9468,3.7642,3.8285,3.8925,3.7789,3.7824,3.7698,3.6491,3.5899,0.0,0.0,0.0,0.0,0.0,3.0581,2.9791,2.9106,2.8996,2.897,2.9036,2.7999,2.7448,2.7694,2.7847,2.7002,2.4926,2.5747,2.5445,2.3665,2.3995,2.4342,2.4599,2.5186,2.5518,2.5518,2.6293,2.6881,2.7309,2.7455,2.7804,2.8179,2.8179,2.8179,2.8179,2.8179,2.8179,2.8179,2.8179,2.8379,2.8671,2.9152,2.9526,2.9891,3.0279,3.0667,3.0982,3.1122,3.0797,3.0032,2.8368,2.7221,2.601,2.3727,2.3099,2.2972,2.2403,2.2286,2.2286,2.2286,2.2286,2.2286,2.2286,2.2286,2.2286,2.2286,2.2286,2.2286,2.2286,2.2286,2.3568,2.7261,2.6342,2.6548,3.0332,2.9561,2.9828,3.2823,3.3441,3.4108,3.5085,3.5191,3.5191,3.5191,3.4123,3.3299,3.2941,3.0394,2.8985,2.8859,2.9063,2.9317,2.9608,3.1255,3.2095,3.2095,3.2095,3.2692]},{"header":{"parameterUnit":"m.s-1","parameterCategory":1,"la1":30.6,"la2":29.2853,"lo1":-89.7004,"lo2":-87.6739,"dy":0.0162,"dx":0.0183,"nx":112,"ny":82,"refTime":"2023-11-16T06:00:00:Z","depth":0,"parameterNumber":3,"parameterNumberName":"V-component_of_WINDS"},"data":[0.0,0.0,0.0,0.0,0.0,0.0,0.0,0.0,0.0,0.0,0.0,0.0,0.0,0.0,0.0,0.0,0.0,0.0,0.0,0.0,0.0,0.0,0.0,0.0,0.0,0.0,0.0,0.0,0.0,0.0,0.0,0.0,0.0,0.0,0.0,0.0,0.0,0.0,0.0,0.0,0.0,0.0,0.0,0.0,0.0,0.0,0.0,0.0,0.0,0.0,0.0,0.0,0.0,0.0,0.0,0.0,0.0,0.0,0.0,0.0,0.0,0.0,0.0,0.0,0.0,0.0,0.0,0.0,0.0,0.0,0.0,0.0,0.0,0.0,0.0,0.0,0.0,0.0,0.0,0.0,0.0,0.0,0.0,0.0,0.0,0.0,0.0,0.0,0.0,0.0,2.9298,3.0821,3.4566,3.6662,3.6017,3.6199,3.585,3.4746,0.0,0.0,0.0,0.0,0.0,0.0,0.0,0.0,0.0,0.0,0.0,0.0,0.0,0.0,0.0,0.0,0.0,0.0,0.0,0.0,0.0,0.0,0.0,0.0,0.0,0.0,0.0,0.0,0.0,0.0,0.0,0.0,0.0,0.0,0.0,0.0,0.0,0.0,0.0,0.0,0.0,0.0,0.0,0.0,0.0,0.0,0.0,0.0,0.0,0.0,0.0,0.0,0.0,0.0,0.0,0.0,0.0,0.0,0.0,0.0,0.0,0.0,0.0,0.0,0.0,0.0,0.0,0.0,0.0,0.0,0.0,0.0,0.0,0.0,0.0,0.0,0.0,0.0,0.0,0.0,0.0,0.0,0.0,0.0,0.0,0.0,0.0,0.0,0.0,0.0,0.0,0.0,0.0,0.0,0.0,0.0,0.0,0.0,0.0,0.0,0.0,0.0,0.0,0.0,3.0508,3.3689,3.6734,3.8256,3.7544,3.5842,3.5228,3.6193,0.0,0.0,0.0,0.0,0.0,0.0,0.0,0.0,0.0,0.0,0.0,0.0,0.0,0.0,0.0,0.0,0.0,0.0,0.0,0.0,0.0,0.0,0.0,0.0,0.0,0.0,0.0,0.0,0.0,0.0,0.0,0.0,0.0,0.0,0.0,0.0,0.0,0.0,0.0,0.0,0.0,0.0,0.0,0.0,0.0,0.0,0.0,0.0,0.0,0.0,0.0,0.0,0.0,0.0,0.0,0.0,0.0,0.0,0.0,0.0,0.0,0.0,0.0,0.0,0.0,0.0,0.0,0.0,0.0,0.0,0.0,0.0,0.0,0.0,0.0,0.0,0.0,0.0,0.0,0.0,0.0,0.0,0.0,0.0,0.0,0.0,0.0,0.0,0.0,0.0,0.0,0.0,0.0,0.0,0.0,0.0,0.0,0.0,0.0,0.0,0.0,0.0,0.0,3.259,3.4101,3.6712,3.8133,3.8613,3.7911,3.6148,3.5554,3.6578,3.4301,0.0,0.0,0.0,0.0,0.0,0.0,0.0,0.0,0.0,0.0,0.0,0.0,0.0,0.0,0.0,0.0,0.0,0.0,0.0,0.0,0.0,0.0,0.0,0.0,0.0,0.0,0.0,0.0,0.0,0.0,0.0,0.0,0.0,0.0,0.0,0.0,0.0,0.0,0.0,0.0,0.0,0.0,0.0,0.0,0.0,0.0,0.0,0.0,0.0,0.0,0.0,0.0,0.0,0.0,0.0,0.0,0.0,0.0,0.0,0.0,0.0,0.0,0.0,0.0,0.0,0.0,0.0,0.0,0.0,0.0,0.0,0.0,0.0,0.0,0.0,0.0,0.0,0.0,0.0,0.0,0.0,0.0,0.0,0.0,0.0,0.0,0.0,0.0,0.0,0.0,0.0,0.0,0.0,0.0,0.0,0.0,0.0,0.0,0.0,0.0,0.0,0.0,3.5658,3.6993,3.8714,3.8924,3.8728,3.8212,3.6726,3.6072,3.667,3.4344,0.0,0.0,0.0,0.0,0.0,0.0,0.0,0.0,0.0,0.0,0.0,0.0,0.0,0.0,0.0,0.0,0.0,0.0,0.0,0.0,0.0,0.0,0.0,0.0,0.0,0.0,0.0,0.0,0.0,0.0,0.0,0.0,0.0,0.0,0.0,0.0,0.0,0.0,0.0,0.0,0.0,0.0,0.0,0.0,0.0,0.0,0.0,0.0,0.0,0.0,0.0,0.0,0.0,0.0,0.0,0.0,0.0,0.0,0.0,0.0,0.0,0.0,0.0,0.0,0.0,0.0,0.0,0.0,0.0,0.0,0.0,0.0,0.0,0.0,0.0,0.0,0.0,0.0,0.0,0.0,0.0,0.0,0.0,0.0,0.0,0.0,0.0,0.0,0.0,0.0,0.0,0.0,0.0,0.0,0.0,0.0,0.0,0.0,0.0,0.0,0.0,0.0,3.5686,3.7321,3.8763,3.8956,3.8956,3.8937,3.7386,3.6553,3.6784,3.525,0.0,0.0,0.0,0.0,0.0,0.0,0.0,0.0,0.0,0.0,0.0,0.0,0.0,0.0,0.0,0.0,0.0,0.0,0.0,0.0,0.0,0.0,0.0,0.0,0.0,0.0,0.0,0.0,0.0,0.0,0.0,0.0,0.0,0.0,0.0,0.0,0.0,0.0,0.0,0.0,0.0,0.0,0.0,0.0,0.0,0.0,0.0,0.0,0.0,0.0,0.0,0.0,0.0,0.0,0.0,0.0,0.0,0.0,0.0,0.0,0.0,0.0,0.0,0.0,0.0,0.0,0.0,0.0,0.0,0.0,0.0,0.0,0.0,0.0,0.0,0.0,0.0,0.0,0.0,0.0,0.0,0.0,0.0,0.0,0.0,0.0,0.0,0.0,0.0,0.0,0.0,0.0,0.0,0.0,0.0,0.0,0.0,0.0,0.0,0.0,0.0,0.0,3.7603,3.9189,3.9623,3.9678,3.9322,3.8396,3.6422,3.5532,3.613,0.0,0.0,0.0,0.0,0.0,0.0,0.0,0.0,0.0,0.0,0.0,0.0,0.0,0.0,0.0,0.0,0.0,0.0,0.0,0.0,0.0,0.0,0.0,0.0,0.0,0.0,0.0,0.0,0.0,0.0,0.0,0.0,0.0,0.0,0.0,0.0,0.0,0.0,0.0,0.0,0.0,0.0,0.0,0.0,0.0,0.0,0.0,0.0,0.0,0.0,0.0,0.0,0.0,0.0,0.0,0.0,0.0,0.0,0.0,0.0,0.0,0.0,0.0,0.0,0.0,0.0,0.0,0.0,0.0,0.0,0.0,0.0,0.0,0.0,0.0,0.0,0.0,0.0,0.0,0.0,0.0,0.0,0.0,0.0,0.0,0.0,0.0,0.0,0.0,0.0,0.0,0.0,0.0,0.0,0.0,0.0,0.0,0.0,0.0,0.0,0.0,0.0,3.6737,3.8454,3.9716,4.0075,3.966,3.8916,3.7652,3.5656,3.4799,3.5677,0.0,0.0,0.0,0.0,0.0,0.0,0.0,0.0,0.0,0.0,0.0,0.0,0.0,0.0,0.0,0.0,0.0,0.0,0.0,0.0,0.0,0.0,0.0,0.0,0.0,0.0,0.0,0.0,0.0,0.0,0.0,0.0,0.0,0.0,0.0,0.0,0.0,0.0,0.0,0.0,0.0,0.0,0.0,0.0,0.0,0.0,0.0,0.0,0.0,0.0,0.0,0.0,0.0,0.0,0.0,0.0,0.0,0.0,0.0,0.0,0.0,0.0,0.0,0.0,0.0,0.0,0.0,0.0,0.0,0.0,0.0,0.0,0.0,0.0,0.0,0.0,0.0,0.0,0.0,0.0,0.0,0.0,0.0,0.0,0.0,0.0,0.0,0.0,0.0,0.0,0.0,0.0,0.0,0.0,0.0,0.0,0.0,0.0,0.0,0.0,0.0,0.0,3.7233,3.7728,3.8464,3.9943,3.878,3.7618,3.6863,3.5262,3.4689,0.0,0.0,0.0,0.0,0.0,0.0,0.0,0.0,0.0,0.0,0.0,0.0,0.0,0.0,0.0,0.0,0.0,0.0,0.0,0.0,0.0,0.0,0.0,0.0,0.0,0.0,0.0,0.0,0.0,0.0,0.0,0.0,0.0,0.0,0.0,0.0,0.0,0.0,0.0,0.0,0.0,0.0,0.0,0.0,0.0,0.0,0.0,0.0,0.0,0.0,0.0,0.0,0.0,0.0,0.0,0.0,0.0,0.0,0.0,0.0,0.0,0.0,0.0,0.0,0.0,0.0,0.0,0.0,0.0,0.0,0.0,0.0,0.0,0.0,0.0,0.0,0.0,0.0,0.0,0.0,0.0,0.0,0.0,0.0,0.0,0.0,0.0,0.0,0.0,0.0,0.0,0.0,0.0,0.0,0.0,0.0,0.0,0.0,0.0,0.0,0.0,0.0,0.0,3.7432,3.7791,3.8464,3.9943,3.9254,3.8171,3.6897,3.4416,3.4272,3.7583,0.0,0.0,0.0,0.0,0.0,0.0,0.0,0.0,0.0,0.0,0.0,0.0,0.0,0.0,0.0,0.0,0.0,0.0,0.0,0.0,0.0,0.0,0.0,0.0,0.0,0.0,0.0,0.0,0.0,0.0,0.0,0.0,0.0,0.0,0.0,0.0,0.0,0.0,0.0,0.0,0.0,0.0,0.0,0.0,0.0,0.0,0.0,0.0,0.0,0.0,0.0,0.0,0.0,0.0,0.0,0.0,0.0,0.0,0.0,0.0,0.0,0.0,0.0,0.0,0.0,0.0,0.0,0.0,0.0,0.0,0.0,0.0,0.0,0.0,0.0,0.0,0.0,0.0,0.0,0.0,0.0,0.0,0.0,0.0,0.0,0.0,0.0,0.0,0.0,0.0,0.0,0.0,0.0,0.0,0.0,0.0,0.0,0.0,0.0,0.0,0.0,0.0,3.7831,3.7966,3.8362,3.9525,3.9017,3.7821,3.6039,3.3681,3.3391,3.5969,0.0,0.0,0.0,0.0,0.0,0.0,0.0,0.0,0.0,0.0,0.0,0.0,0.0,0.0,0.0,0.0,0.0,0.0,0.0,0.0,0.0,0.0,0.0,0.0,0.0,0.0,0.0,0.0,0.0,0.0,0.0,0.0,0.0,0.0,0.0,0.0,0.0,0.0,0.0,0.0,0.0,0.0,0.0,0.0,0.0,0.0,0.0,0.0,0.0,0.0,0.0,0.0,0.0,0.0,0.0,0.0,0.0,0.0,0.0,0.0,0.0,0.0,0.0,0.0,0.0,0.0,0.0,0.0,0.0,0.0,0.0,0.0,0.0,0.0,0.0,0.0,0.0,0.0,0.0,0.0,0.0,0.0,0.0,0.0,0.0,0.0,0.0,0.0,0.0,0.0,0.0,0.0,0.0,0.0,0.0,0.0,0.0,0.0,0.0,0.0,0.0,0.0,3.8422,3.8215,3.8193,3.8903,3.8328,3.6975,3.4686,3.3139,3.2418,3.2669,0.0,0.0,0.0,0.0,0.0,0.0,0.0,0.0,0.0,0.0,0.0,0.0,0.0,0.0,0.0,0.0,0.0,0.0,0.0,0.0,0.0,0.0,0.0,0.0,0.0,0.0,0.0,0.0,0.0,0.0,0.0,0.0,0.0,0.0,0.0,0.0,0.0,0.0,0.0,0.0,0.0,0.0,0.0,0.0,0.0,0.0,0.0,0.0,0.0,0.0,0.0,0.0,0.0,0.0,0.0,0.0,0.0,0.0,0.0,0.0,2.6832,2.6894,0.0,0.0,0.0,0.0,0.0,0.0,0.0,0.0,0.0,0.0,0.0,0.0,0.0,0.0,0.0,0.0,0.0,0.0,0.0,0.0,0.0,0.0,0.0,0.0,0.0,0.0,0.0,0.0,0.0,0.0,0.0,0.0,0.0,0.0,0.0,0.0,0.0,0.0,0.0,0.0,3.9517,3.8651,3.8193,3.8903,3.8328,3.6975,3.4686,3.3139,3.3246,3.5452,3.4169,0.0,0.0,0.0,0.0,0.0,0.0,0.0,0.0,0.0,0.0,0.0,0.0,0.0,0.0,0.0,0.0,0.0,0.0,0.0,0.0,0.0,0.0,0.0,0.0,0.0,0.0,0.0,0.0,0.0,0.0,0.0,0.0,0.0,0.0,0.0,0.0,0.0,0.0,0.0,0.0,0.0,0.0,0.0,0.0,0.0,0.0,0.0,0.0,0.0,0.0,0.0,0.0,0.0,0.0,0.0,0.0,0.0,0.0,0.0,3.0846,2.9513,0.0,0.0,0.0,0.0,0.0,0.0,0.0,0.0,0.0,0.0,0.0,0.0,0.0,0.0,0.0,0.0,0.0,0.0,0.0,0.0,0.0,0.0,0.0,0.0,0.0,0.0,0.0,0.0,0.0,0.0,0.0,0.0,0.0,0.0,0.0,0.0,0.0,0.0,0.0,0.0,3.9093,3.844,3.8058,3.843,3.8125,3.6975,3.4686,3.3467,3.3155,3.3903,3.4324,0.0,0.0,0.0,0.0,0.0,0.0,0.0,0.0,0.0,0.0,0.0,0.0,0.0,0.0,0.0,0.0,0.0,0.0,0.0,0.0,0.0,0.0,0.0,0.0,0.0,0.0,0.0,0.0,0.0,0.0,0.0,0.0,0.0,0.0,0.0,0.0,0.0,0.0,0.0,0.0,0.0,0.0,0.0,0.0,0.0,0.0,0.0,0.0,0.0,0.0,0.0,0.0,0.0,3.5797,3.7004,3.8188,3.8871,3.881,3.8024,3.5318,3.2823,3.0668,3.0622,0.0,0.0,0.0,0.0,0.0,0.0,0.0,0.0,0.0,0.0,0.0,0.0,0.0,0.0,0.0,0.0,0.0,0.0,0.0,0.0,0.0,0.0,3.6085,3.6667,3.7606,3.7361,3.3734,0.0,0.0,0.0,0.0,0.0,0.0,0.0,0.0,0.0,0.0,0.0,3.8506,3.8269,3.8046,3.791,3.791,3.6975,3.4686,3.3829,3.2848,3.1471,3.4262,3.4884,0.0,0.0,0.0,0.0,0.0,0.0,0.0,0.0,0.0,0.0,0.0,0.0,0.0,0.0,0.0,0.0,0.0,0.0,0.0,0.0,0.0,0.0,0.0,0.0,0.0,0.0,0.0,0.0,0.0,0.0,0.0,0.0,2.2984,2.3398,0.0,0.0,0.0,0.0,0.0,0.0,0.0,0.0,0.0,0.0,0.0,0.0,0.0,3.4859,3.5175,3.7366,3.8232,3.7815,3.9128,3.9547,3.9224,3.9901,3.9841,3.9194,3.8933,0.0,3.4646,3.1485,0.0,0.0,0.0,0.0,0.0,0.0,0.0,0.0,0.0,0.0,0.0,0.0,0.0,0.0,0.0,0.0,0.0,0.0,0.0,0.0,0.0,0.0,3.8204,3.706,3.786,3.8569,3.7384,3.7099,3.7091,3.703,3.5527,3.4955,0.0,0.0,0.0,0.0,0.0,0.0,3.9361,3.9093,3.8599,3.7978,3.791,3.6975,3.4686,3.3829,3.3051,3.2226,3.2032,3.2066,3.2293,3.443,0.0,0.0,0.0,0.0,0.0,0.0,0.0,0.0,0.0,0.0,0.0,0.0,0.0,0.0,0.0,0.0,0.0,0.0,0.0,0.0,0.0,0.0,0.0,0.0,0.0,0.0,0.0,0.0,0.0,2.3409,2.5645,2.5229,2.6611,2.7457,0.0,0.0,0.0,0.0,0.0,0.0,0.0,0.0,0.0,3.5047,3.7208,3.8432,3.8573,3.9943,4.0669,4.0673,4.1594,4.1874,4.1605,4.2293,4.2233,4.1643,4.2315,4.1523,3.9385,3.5446,3.3964,3.3906,0.0,0.0,0.0,0.0,3.0816,3.2219,3.2493,3.4563,3.691,3.587,0.0,0.0,0.0,0.0,0.0,0.0,0.0,3.7565,3.7524,3.9308,4.0788,3.9551,4.0087,4.0663,3.9918,3.9706,3.9534,3.9168,3.8661,3.8715,3.9993,3.9674,0.0,0.0,0.0,3.8609,3.8579,3.8816,3.8734,3.799,3.791,3.7133,3.5284,3.4438,3.3863,3.3569,3.2452,3.1945,3.2293,3.3562,3.453,0.0,0.0,0.0,0.0,0.0,0.0,0.0,0.0,0.0,0.0,0.0,0.0,0.0,0.0,0.0,0.0,0.0,0.0,0.0,0.0,0.0,0.0,0.0,0.0,0.0,0.0,0.0,0.0,2.5592,2.7812,2.6542,2.8495,2.9703,0.0,0.0,0.0,0.0,0.0,0.0,3.505,3.6234,3.7571,3.9235,4.0752,4.1588,4.1654,4.2312,4.29,4.3409,4.3848,4.4087,4.4067,4.4596,4.4446,4.3878,4.4945,4.4719,4.3317,3.9653,3.7444,3.623,3.476,3.4167,3.4211,3.469,3.5434,3.6405,3.7759,3.9294,4.0585,4.0121,3.9614,3.8789,3.6746,0.0,0.0,0.0,0.0,3.9723,4.0,4.1763,4.3288,4.2544,4.276,4.2963,4.2219,4.1914,4.1463,4.0452,4.066,4.1137,4.1808,4.1208,0.0,3.91,3.8929,3.8722,3.8194,3.8795,3.9017,3.8261,3.8012,3.7369,3.6017,3.5047,3.4516,3.4516,3.3298,3.2588,3.2588,3.3119,3.3861,3.4907,0.0,0.0,0.0,0.0,0.0,0.0,0.0,0.0,0.0,0.0,0.0,0.0,0.0,0.0,0.0,0.0,0.0,0.0,0.0,0.0,0.0,0.0,0.0,0.0,0.0,0.0,0.0,0.0,0.0,2.6708,3.1005,0.0,0.0,0.0,0.0,3.4485,3.5434,3.6683,3.8374,3.9655,4.0923,4.2152,4.3449,4.4407,4.5035,4.5702,4.6061,4.6091,4.6121,4.6151,4.6151,4.6181,4.5822,4.5247,4.6339,4.6396,4.5559,4.3127,4.1657,4.0886,4.0161,3.969,3.9477,3.9809,4.0648,4.1372,3.9724,4.0481,4.2179,4.2158,4.2124,4.1815,4.0358,3.9943,0.0,0.0,4.2303,4.2674,4.4171,4.5056,4.5539,4.5486,4.55,4.5331,4.4601,4.3842,4.2476,3.9635,3.8541,3.8455,3.9577,0.0,3.8419,3.9404,3.9804,3.977,3.9036,3.958,3.9762,3.9017,3.8328,3.7584,3.6829,3.5362,3.4516,3.4516,3.3761,3.3355,3.3355,3.3379,3.4089,3.5509,3.6845,0.0,0.0,0.0,0.0,0.0,0.0,0.0,0.0,0.0,0.0,0.0,0.0,0.0,0.0,0.0,0.0,0.0,0.0,0.0,0.0,0.0,0.0,0.0,0.0,0.0,0.0,0.0,0.0,3.2689,3.4804,0.0,3.5517,3.5422,3.6075,3.778,3.857,3.972,4.1561,4.2509,4.3778,4.5505,4.6411,4.7211,4.787,4.8109,4.8229,4.8229,4.8229,4.8229,4.8251,4.8453,4.8055,4.734,4.9295,4.9358,4.8104,4.8592,4.6897,4.3928,4.3251,4.2655,4.2252,4.3306,4.367,4.3668,4.3962,4.4263,4.4316,4.3335,4.2388,4.1604,4.156,4.1574,4.1829,4.2846,4.3829,4.4707,4.5259,4.591,4.6413,4.6413,4.6413,4.621,4.5466,4.5094,4.4268,4.2239,4.0481,3.9598,4.0487,3.91,3.8191,3.9071,3.9315,3.9288,3.9039,3.9626,3.9829,3.9085,3.8328,3.7584,3.6863,3.5825,3.5205,3.5205,3.4055,3.3615,3.41,3.366,3.3852,3.4878,3.5363,3.7099,0.0,0.0,0.0,0.0,0.0,0.0,0.0,0.0,0.0,0.0,0.0,0.0,0.0,0.0,0.0,0.0,0.0,0.0,0.0,0.0,0.0,0.0,0.0,0.0,0.0,3.2641,3.572,3.6454,3.8138,3.9259,3.9217,3.9044,3.9576,4.1078,4.1711,4.291,4.4865,4.5424,4.6352,4.7908,4.8596,4.9045,4.9277,4.9516,4.9516,4.9277,4.9277,4.9277,4.9322,4.991,4.9802,4.9287,5.1385,5.1623,5.0654,5.2114,5.0928,4.8113,4.7144,4.6059,4.5217,4.6504,4.647,4.5946,4.7148,4.6887,4.5872,4.4573,4.3524,4.276,4.301,4.3247,4.3538,4.4032,4.5283,4.6433,4.6433,4.6989,4.753,4.753,4.7361,4.7056,4.6534,4.6244,4.5771,4.4756,4.2746,4.1672,4.309,4.2199,4.1867,4.3606,4.3876,4.3904,4.3986,4.3017,4.2164,4.1677,3.9614,3.7956,3.7224,3.7453,3.7057,3.5678,3.5723,3.5541,3.4912,3.5193,3.5621,3.6129,3.7456,3.9114,4.1137,0.0,0.0,0.0,0.0,0.0,0.0,0.0,0.0,0.0,0.0,0.0,0.0,0.0,0.0,0.0,0.0,0.0,0.0,0.0,0.0,0.0,0.0,0.0,3.1353,3.5924,3.8853,3.7597,4.0972,4.2681,4.0816,4.1822,4.311,4.4377,4.5065,4.6262,4.8237,4.8379,4.8678,4.9337,4.992,4.9949,4.9419,4.9949,4.9949,4.9366,4.9396,4.9419,4.9412,5.0519,5.0992,5.1015,5.2461,5.3064,5.3053,5.3378,5.3518,5.3348,5.1844,5.0121,4.8537,4.9448,4.9186,4.8458,4.8905,4.8105,4.6786,4.6109,4.5838,4.5635,4.4973,4.5229,4.5805,4.5838,4.6872,4.8022,4.8022,4.8529,4.9086,4.9086,4.8496,4.7954,4.7954,4.7361,4.6834,4.68,4.5026,4.4333,4.6974,4.7582,4.8935,5.2503,5.3095,0.0,5.336,4.9428,4.6631,4.6766,4.213,3.878,3.8159,4.0275,3.9914,3.5893,3.865,3.8993,3.5723,3.7827,3.9138,3.9304,4.3121,4.3636,4.0605,0.0,0.0,0.0,0.0,0.0,0.0,0.0,0.0,0.0,0.0,0.0,0.0,0.0,0.0,0.0,0.0,0.0,0.0,0.0,0.0,0.0,3.3408,3.576,3.5925,3.9174,4.1914,4.2941,4.4485,4.5463,4.5424,4.6193,4.7031,4.787,4.8109,4.8648,4.962,4.968,4.9979,5.0661,5.0817,5.1056,5.1379,5.1588,5.1588,5.1409,5.1911,5.1881,5.1449,5.2813,5.2754,5.173,5.3982,5.4213,5.3086,5.3933,5.3991,5.345,5.3027,5.2169,5.1227,5.1497,5.1095,5.0426,5.0533,4.9965,4.9255,4.9578,4.8597,4.7447,4.8323,4.8342,4.8206,4.8748,4.956,5.0288,5.0288,5.0457,5.0592,5.0592,5.0033,4.9357,4.88,4.8124,4.7447,4.6887,4.6278,4.5756,4.5462,4.4525,4.4181,4.5196,4.4925,4.4601,4.4671,4.3071,4.303,4.5932,4.2359,4.0671,4.2804,4.0976,3.881,3.6615,3.6797,3.6548,3.5645,3.5723,3.6322,3.7499,3.9814,4.0869,0.0,0.0,0.0,0.0,0.0,0.0,0.0,0.0,0.0,0.0,0.0,0.0,0.0,0.0,0.0,0.0,0.0,0.0,0.0,0.0,0.0,0.0,3.6787,4.0017,4.1576,4.3071,4.4666,4.6352,4.716,4.7818,4.8454,4.8873,4.9494,5.0444,5.0504,5.078,5.1439,5.1445,5.1648,5.2037,5.2037,5.2217,5.2606,5.2606,5.2719,5.2906,5.311,5.2954,5.2527,5.3667,5.3524,5.2433,5.4045,5.4458,5.3902,5.4207,5.4202,5.3923,0.0,0.0,0.0,0.0,5.1664,5.1095,5.151,5.1183,5.0574,5.071,4.9864,4.8984,4.983,4.9796,4.9593,5.0338,5.0863,5.1201,5.1201,5.1201,5.1201,5.1201,5.0863,5.0371,4.9627,4.912,4.8612,4.7868,4.7462,0.0,4.6143,4.6007,4.6549,4.8139,4.7767,4.7187,4.6985,4.4846,4.4135,4.6112,4.2583,4.0726,4.2289,4.158,0.0,0.0,0.0,3.8462,3.8085,3.7715,0.0,0.0,0.0,4.2183,4.1013,4.2839,0.0,0.0,4.1208,4.242,0.0,0.0,0.0,0.0,0.0,0.0,0.0,0.0,0.0,0.0,0.0,0.0,0.0,0.0,0.0,0.0,4.0225,4.4237,4.7304,4.7287,4.7347,4.8386,4.9187,4.9845,5.0368,5.0495,5.1056,5.2336,5.2366,5.2606,5.3288,5.3258,0.0,0.0,0.0,5.3318,5.3318,5.3524,5.3745,5.3921,5.3722,5.3506,5.3272,5.3996,5.3975,5.3424,5.39,5.4527,5.5118,5.4458,5.4295,5.4397,5.3754,5.2904,5.2065,5.2065,5.1669,5.123,5.2118,0.0,0.0,5.0676,5.0387,5.0236,5.032,5.0353,5.0473,5.1133,5.1404,5.1472,5.1472,5.1472,5.1472,5.1472,5.1404,5.1133,5.0473,5.0286,5.0033,4.939,4.8665,4.8157,4.8157,4.9578,5.181,5.5074,5.4921,5.4228,5.37,4.9906,4.7192,4.6999,4.299,0.0,3.9922,4.218,4.2014,3.8273,4.0681,4.1895,4.1116,4.1221,4.2329,4.4572,4.5863,4.4917,4.165,4.3568,4.3155,4.0688,4.4141,4.5754,0.0,0.0,0.0,0.0,0.0,0.0,0.0,0.0,0.0,0.0,0.0,0.0,0.0,0.0,0.0,4.0947,4.4686,4.7947,5.0159,5.081,5.0727,4.992,5.09,5.1678,5.1798,5.2306,5.2935,5.3773,5.3294,5.3294,5.3982,5.3473,5.3468,5.3982,5.4012,5.4012,5.4012,5.5511,5.5571,5.417,5.5571,0.0,5.5449,5.6478,5.6788,5.6572,5.7537,5.7033,5.5584,5.5416,5.4731,5.3687,5.3551,5.3365,5.3179,5.3179,5.3111,5.3011,5.318,5.2739,5.2164,5.2672,5.1995,5.11,5.1691,5.186,0.0,5.2063,5.2554,5.3078,5.3078,5.3078,5.3078,5.3078,5.257,5.2063,5.1894,5.142,5.093,5.0795,5.0168,4.9661,4.9661,4.8545,4.7699,4.7834,4.7225,4.6462,4.5712,4.431,4.4555,4.7597,4.4292,4.2861,4.532,4.3179,4.0862,3.8916,3.8829,3.8785,3.8601,3.8604,3.9115,4.0204,4.051,4.0871,4.1294,4.2227,4.3017,4.363,4.318,4.3608,0.0,0.0,0.0,0.0,0.0,0.0,0.0,0.0,0.0,0.0,0.0,3.2272,3.4568,0.0,4.212,4.4481,4.8179,5.1199,5.2516,5.3294,5.3204,5.1858,5.2276,5.2815,5.3174,5.3503,5.4102,5.5119,5.4905,5.4995,5.5628,5.5329,5.5299,5.5628,5.6304,5.6652,5.6652,5.7252,5.7503,5.7419,5.7136,5.708,5.7256,5.7213,5.6938,5.6543,5.671,5.6462,5.5955,5.6179,5.5818,5.5074,5.4329,5.3822,5.3518,5.3518,5.3518,5.3518,5.3518,5.3247,5.2909,5.2909,5.2401,5.181,5.2198,5.257,5.2909,5.2909,5.345,5.3957,5.3585,5.3518,5.3518,5.3518,5.3179,5.2807,5.2401,5.2029,5.1641,5.1269,5.0897,5.0642,5.0642,4.9729,4.8496,4.7008,4.6177,4.5399,4.464,4.391,4.4067,4.5643,4.3708,4.2949,4.4557,4.2543,4.073,3.9626,3.9186,3.9174,3.9546,3.9534,3.9918,4.0641,4.096,4.1707,4.2864,4.3486,4.4589,4.6089,4.607,4.6307,0.0,0.0,0.0,0.0,0.0,0.0,0.0,2.9173,3.0805,3.3482,3.5136,3.6927,3.9453,4.3064,4.6205,4.777,5.1154,5.3803,5.4491,5.5149,5.5119,5.3947,5.3677,5.3857,5.4521,5.4491,5.494,5.6282,5.6282,5.6462,5.7064,5.7094,5.7225,5.748,5.8662,5.9296,5.926,5.9087,5.9439,6.0247,5.851,5.8106,5.886,5.7729,5.6979,5.6499,5.5474,5.56,5.6539,5.6575,5.6596,5.6461,5.5277,5.4465,5.389,5.3619,5.3687,5.389,5.3619,5.3687,5.3822,5.301,5.2841,5.2976,5.2976,5.3416,5.3923,5.3923,5.4363,5.4668,5.4093,5.3923,5.389,5.3754,5.3721,5.3518,5.2706,5.2536,5.2367,5.1776,5.1505,5.1404,5.1404,5.1302,5.0558,4.8631,4.7699,4.6955,4.621,4.5481,4.477,4.4133,4.3267,4.2638,4.2333,4.1745,4.117,4.054,4.0519,4.0844,4.161,4.1644,4.2048,4.2932,4.3467,4.42,4.5152,4.5763,4.6905,4.8627,4.9922,5.0224,2.4336,2.457,2.5478,2.6506,2.7923,2.993,0.0,3.4594,3.6065,3.8937,4.0983,4.2952,4.503,4.7274,4.962,5.2103,5.3892,5.5234,5.5893,5.6521,5.6615,5.5953,5.5354,5.5264,5.5923,5.5444,5.5628,5.6885,5.6492,5.6462,5.7064,5.7094,5.766,5.8838,5.96,5.993,5.9804,6.1406,6.1095,5.9014,5.9805,6.0255,6.0322,5.9539,5.935,5.9487,5.745,5.6985,5.76,5.634,5.5834,5.58,5.5631,5.553,5.5293,5.3974,5.4312,5.5259,5.394,5.4346,5.5327,5.4566,5.4803,5.5327,5.5327,5.5395,5.5462,5.5462,5.5496,5.5564,5.5496,5.5462,5.5293,5.4634,5.4482,5.4262,5.3518,5.3382,5.3348,5.3281,5.2672,5.2198,5.2198,5.1641,5.0897,4.9999,4.9221,4.8511,4.7752,4.7022,4.653,4.6413,4.5176,4.3789,4.2435,4.2232,4.213,4.2063,4.2063,4.2388,4.3118,4.3152,4.3795,4.5213,4.5303,4.6018,4.7417,4.8057,4.9478,5.1715,5.2488,5.2492,2.7806,2.7521,2.7973,3.0675,3.2131,3.3683,3.6781,3.8377,3.9838,4.2203,4.3938,4.5762,4.8125,4.9912,5.1732,5.4007,5.5474,5.6526,5.7214,5.6885,5.6342,5.5713,5.4695,5.4456,5.5534,5.5713,5.6162,5.7034,5.7244,5.791,5.9316,5.8652,5.8862,6.0158,6.1231,6.1765,6.1684,6.2807,6.299,6.217,6.1537,6.1372,6.1622,6.0886,6.0385,6.0047,5.9133,5.866,5.849,5.7863,5.7374,5.6934,5.6528,5.6849,5.739,5.5462,5.5158,5.5597,5.4989,5.5192,5.5665,5.5344,5.5428,5.5699,5.5699,5.6003,5.624,5.5834,5.6003,5.624,5.58,5.5699,5.5631,5.531,5.5243,5.5175,5.4853,5.4431,5.4126,5.4126,5.3518,5.301,5.301,5.2723,5.2418,5.2131,5.0676,4.9526,4.9221,4.8173,4.7293,4.6868,4.6259,4.5447,4.4384,4.4282,4.4079,4.3653,4.3653,4.3992,4.4708,4.5097,4.6031,4.7541,4.8355,4.9496,5.1072,5.171,5.2766,5.4189,5.495,5.5159,3.019,3.0133,3.0837,3.455,3.6144,3.7478,3.9923,4.1683,4.321,4.4796,4.633,4.8005,5.0099,5.1565,5.3114,5.5174,5.6376,5.7334,5.7995,5.7004,5.5893,5.5029,5.3743,5.344,5.4715,5.5346,5.6132,5.7304,5.7663,5.8866,6.1186,6.0481,6.0713,6.2322,6.3333,6.3815,6.3752,6.4189,6.4349,6.4289,6.3091,6.2444,6.2347,6.1637,6.0994,6.0419,6.0216,5.9911,5.9622,5.9385,5.8998,5.8423,5.7679,5.8186,5.9081,5.7288,5.6612,5.6511,5.5902,5.6105,5.6578,5.6375,5.6578,5.6916,5.6916,5.7306,5.7611,5.7052,5.7306,5.7543,5.6781,5.6612,5.6511,5.6105,5.6003,5.5936,5.5733,5.5108,5.4617,5.4617,5.3991,5.3518,5.3518,5.3518,5.3518,5.3518,5.1894,5.071,5.071,4.9424,4.8225,4.7496,4.7225,4.6887,4.6331,4.6109,4.5872,4.5548,4.5708,4.6141,4.6862,4.7781,4.8986,5.0519,5.1513,5.2674,5.4021,5.4481,5.5133,5.5952,5.6528,5.6921,3.05,3.182,3.3603,3.7032,3.9556,4.1564,4.294,4.4766,4.636,4.7048,4.8753,5.0285,5.1026,5.2276,5.3827,5.5833,5.6701,5.7334,5.7995,5.7004,5.5713,5.4401,5.3054,5.2661,5.3835,5.4116,5.5329,5.7876,5.7483,5.8589,6.1976,6.2151,6.3261,6.5762,6.591,6.5813,6.5626,6.5634,6.4931,6.3545,6.4201,6.3781,6.2347,6.1637,6.1298,6.1231,6.0452,6.052,6.1163,6.0385,6.0047,5.9945,5.9216,5.9385,5.9979,5.9182,5.8912,5.8573,5.6443,5.7085,5.8776,5.8051,5.8795,5.9979,5.9979,5.9979,6.0013,5.9979,5.9979,5.9844,5.9081,5.8912,5.854,5.7103,5.6765,5.6562,5.5834,5.5108,5.4617,5.4617,5.3991,5.3518,5.3518,5.3518,5.3518,5.3518,5.2773,5.2232,5.2232,5.0947,4.9729,4.9018,4.8293,4.7853,4.7853,4.7192,4.7056,4.7752,4.8455,4.9202,4.9937,5.143,5.2931,5.4398,5.4483,5.4833,5.5526,5.5537,5.5978,5.6774,5.6774,5.7226,3.3223,3.525,3.757,4.026,4.2792,4.4885,4.5783,4.683,4.7818,4.8498,4.7641,4.7285,4.8805,4.8156,4.8889,5.3312,5.4071,5.5053,5.7729,5.7363,5.6113,5.4168,5.3973,5.3905,5.366,5.3575,5.4748,5.7673,5.8215,5.9904,6.3291,6.2171,6.2836,6.5887,6.471,6.4383,6.5171,6.5993,6.5933,6.4952,6.4241,6.3869,6.3802,6.2584,6.2313,6.2699,6.1975,6.1501,6.1298,6.1028,6.0588,6.008,5.9844,6.0216,6.0791,6.0013,6.008,6.0264,5.8506,5.8709,5.9607,5.8863,5.9302,6.0114,6.0114,6.0114,6.0114,6.0114,6.0114,6.0047,5.981,5.9742,5.9471,5.8472,5.8235,5.8084,5.7306,5.6562,5.6055,5.6055,5.548,5.4786,5.4296,5.4228,5.4059,5.3585,5.2807,5.2131,5.1641,5.1133,5.0728,5.0491,5.0254,5.0085,5.0085,4.9848,5.0045,5.0843,5.1118,5.1611,5.2324,5.3301,5.4333,5.5387,5.5812,5.6445,5.7189,5.7189,5.7336,5.7593,5.8132,5.8535,3.6221,3.8638,4.1058,4.3529,4.5574,4.713,4.7549,4.7967,4.8185,4.7776,4.6309,4.5301,4.5925,4.5293,4.6142,5.0453,5.1494,5.3,5.6563,5.6455,5.5628,5.47,5.4991,5.5275,5.5319,5.4857,5.543,5.7634,5.86,6.0448,6.3564,6.2921,6.3687,6.6282,6.5305,6.4996,6.5581,6.6363,6.6576,6.6068,6.4613,6.4275,6.4952,6.3734,6.3429,6.3849,6.3396,6.2922,6.2448,6.2212,6.1806,6.1264,6.0723,6.0994,6.1603,6.0825,6.1028,6.1467,5.9945,5.9911,6.0452,5.9979,6.0317,6.0926,6.0926,6.0926,6.0926,6.0926,6.0926,6.0858,6.0588,6.052,6.0351,5.9554,5.9404,5.9201,5.8457,5.7712,5.7103,5.6867,5.6206,5.553,5.5074,5.5006,5.4735,5.3991,5.345,5.2875,5.2114,5.1776,5.1573,5.1573,5.137,5.1302,5.1573,5.1607,5.1962,5.275,5.3301,5.394,5.471,5.5712,5.6625,5.7436,5.7579,5.8058,5.8841,5.8584,5.8584,5.8877,5.938,5.9636,3.9446,4.1879,4.4035,4.6728,4.7878,4.8349,4.8319,4.8207,4.7491,4.5243,4.4772,4.4276,4.2646,4.3667,4.5509,4.7643,4.9245,5.1421,5.482,5.4711,5.4752,5.5992,5.6176,5.6908,5.8639,5.7874,5.75,5.8,5.8737,6.0354,6.3078,6.4406,6.5732,6.7043,6.7546,6.7493,6.6791,6.6791,6.6791,6.6757,6.5358,6.5053,6.5784,6.4952,6.4647,6.4715,6.4647,6.4613,6.4546,6.3849,6.3545,6.3409,6.2009,6.1907,6.2434,6.1738,6.1907,6.2279,6.0825,6.0791,6.1366,6.1332,6.1806,6.24,6.24,6.24,6.24,6.24,6.24,6.2265,6.1535,6.1366,6.1163,6.0351,6.0148,5.9945,5.9216,5.8524,5.7832,5.7103,5.6341,5.58,5.58,5.5767,5.5462,5.4769,5.4668,5.4363,5.3585,5.2841,5.2367,5.2401,5.1776,5.1674,5.2401,5.2585,5.2949,5.3693,5.5138,5.6328,5.7138,5.8507,5.9636,6.037,5.9636,5.9636,6.0419,5.9636,5.9636,6.0419,6.0456,6.0456,4.315,4.5472,4.7287,4.8498,4.8917,4.8917,4.8409,4.7043,4.5594,4.4507,4.212,4.0263,4.0246,4.05,4.2271,4.7,4.9311,5.1916,5.6051,5.7737,5.8395,5.7976,5.9775,6.1144,6.1408,6.2323,6.25,6.1582,6.0832,6.167,6.4532,6.4935,6.6143,6.8484,6.7212,6.6589,6.6791,6.6791,6.6791,6.6791,6.5865,6.6068,6.7286,6.5425,6.5189,6.6203,6.5087,6.4613,6.458,6.441,6.4343,6.4275,6.3903,6.3869,6.4005,6.3835,6.3869,6.3971,6.3599,6.2854,6.2009,6.1467,6.1806,6.24,6.24,6.24,6.24,6.24,6.24,6.2367,6.2164,6.211,6.1907,6.1163,6.0994,6.0791,5.9979,5.9674,5.9471,5.9302,5.822,5.734,5.734,5.6427,5.5631,5.5428,5.5428,5.4955,5.3687,5.3315,5.3416,5.3957,5.3856,5.4025,5.4752,5.5387,5.6098,5.6886,5.7862,5.875,5.9481,5.9895,6.0187,6.0419,6.0187,6.0187,6.0419,6.0187,6.0187,6.0419,6.1006,6.13,4.6595,4.8506,4.9673,5.0032,4.9912,4.9262,4.7649,4.613,4.4406,4.204,3.998,3.8402,3.7813,3.8435,4.0373,4.4566,4.7422,5.0821,5.5602,5.7945,5.9369,5.9989,6.1931,6.3194,6.3024,6.3878,6.4244,6.3844,6.3452,6.3672,6.4652,6.5781,6.698,6.8137,6.7302,6.6976,6.7265,6.7286,6.7455,6.7806,6.7387,6.7624,6.8368,6.7151,6.6846,6.7252,6.6406,6.5865,6.5561,6.5222,6.5087,6.5053,6.4715,6.4613,6.4613,6.4613,6.4613,6.4613,6.4613,6.4072,6.3294,6.2888,6.3024,6.3362,6.3362,6.3125,6.2888,6.2888,6.2651,6.24,6.24,6.24,6.2299,6.1873,6.1772,6.1569,6.0791,6.0892,6.0994,6.0689,5.9674,5.8863,5.8863,5.7915,5.7153,5.7153,5.6612,5.6145,5.6029,5.5111,5.4754,5.5534,5.557,5.5894,5.6733,5.7805,5.8642,5.9124,5.9871,6.083,6.1985,6.1667,6.163,6.2034,6.1667,6.163,6.2034,6.163,6.1838,6.2536,6.3025,6.3209,4.9649,5.1086,5.1565,5.1355,5.0637,4.9216,4.6394,4.5021,4.3146,3.9059,3.832,3.7832,3.591,3.7443,3.9797,4.2238,4.5397,4.9388,5.482,5.7059,5.9128,6.1737,6.3198,6.4009,6.4087,6.4208,6.4576,6.534,6.6149,6.6027,6.469,6.6832,6.7791,6.7129,6.7723,6.7996,6.7895,6.7996,6.8402,6.9113,6.9113,6.9147,6.9248,6.9147,6.8774,6.8199,6.8098,6.7692,6.7083,6.6406,6.6089,6.5954,6.529,6.4986,6.4884,6.4884,6.4884,6.4884,6.4884,6.4884,6.485,6.4647,6.4613,6.4613,6.4613,6.4174,6.3646,6.3646,6.3193,6.2705,6.2705,6.2705,6.2705,6.2705,6.2705,6.2516,6.1873,6.2245,6.2482,6.1873,6.1095,6.0554,6.0554,5.9956,5.9451,5.9302,5.8321,5.8048,5.9353,5.7467,5.6406,5.742,5.7483,5.7824,5.8738,6.0073,6.09,6.0968,6.1682,6.2732,6.4213,6.3539,6.349,6.4249,6.3527,6.3503,6.4237,6.3503,6.3894,6.5288,6.5288,6.5288,5.2043,5.3174,5.3414,5.2306,5.0301,4.7894,4.5066,4.2485,4.0113,3.8146,3.7613,3.7306,3.6529,3.8479,4.1312,4.4772,4.7227,5.0803,5.6769,5.8357,5.9876,6.2487,6.4035,6.5082,6.565,6.6249,6.6684,6.6837,6.7996,6.8314,6.7532,6.7892,6.7989,6.7752,6.8497,6.8571,6.7895,6.8571,6.8977,6.9113,6.9113,6.9417,7.0014,6.9383,6.935,6.9755,6.9147,6.8808,6.8707,6.8571,6.8132,6.7523,6.7387,6.6948,6.644,6.644,6.644,6.644,6.644,6.644,6.6216,6.4986,6.4613,6.4613,6.4613,6.4512,6.441,6.441,6.4309,6.4208,6.4208,6.4208,6.4208,6.4208,6.4208,6.4174,6.4072,6.414,6.4174,6.4038,6.3409,6.2902,6.2902,6.241,6.1745,6.1026,6.1397,6.1602,6.1155,5.9113,5.8493,6.065,6.085,6.1164,6.1927,6.286,6.338,6.3401,6.4187,6.4787,6.5068,6.4958,6.4921,6.5081,6.4921,6.4921,6.5081,6.4921,6.5031,6.5288,6.5288,6.5288,5.2306,5.4087,5.5329,5.3653,5.099,4.7864,4.4258,4.1558,3.9271,3.7317,3.7375,3.7619,3.7142,3.894,4.1214,4.3401,4.5255,4.8625,5.5002,5.6269,5.8046,6.2044,6.3462,6.4473,6.5502,6.5912,6.6699,6.8124,6.8821,6.9053,6.8747,6.9005,6.9155,6.9113,6.9113,6.9113,6.9079,6.9485,6.9857,7.0241,7.0241,7.0432,7.077,7.0398,7.0229,7.0184,6.9823,6.9451,6.9113,6.9113,6.8876,6.8504,6.8504,6.8301,6.7996,6.7996,6.7996,6.7996,6.7996,6.7996,6.7895,6.7184,6.6406,6.5743,6.5743,6.5493,6.5155,6.5155,6.4884,6.4613,6.4613,6.4884,6.5155,6.5155,6.586,6.6538,6.6499,6.6624,6.6711,6.6673,6.6049,6.5528,6.5528,6.4969,6.4498,6.4491,6.4246,6.4331,6.5183,6.3989,6.3218,6.3498,6.3859,6.4416,6.5272,6.6045,6.6503,6.6543,6.6948,6.7343,6.7797,6.7393,6.716,6.716,6.716,6.716,6.716,6.716,6.716,6.716,6.7614,6.7577,5.2711,5.4903,5.6585,5.4521,5.1289,4.7581,4.3492,4.0967,3.887,3.6928,3.7455,3.8092,3.7591,3.9,4.0598,4.1715,4.3114,4.631,5.2792,5.4167,5.6428,6.1519,6.2709,6.3762,6.5382,6.5274,6.6259,6.8991,6.9457,6.959,6.9424,7.0051,7.0297,6.9958,6.9722,6.9755,7.0217,7.0364,7.0737,7.1289,7.1289,7.1289,7.1289,7.1289,7.0973,7.0432,7.0432,7.0094,6.9586,6.9586,6.9485,6.935,6.935,6.9366,6.9433,6.9433,6.9433,6.9433,6.9433,6.9295,6.9113,6.9113,6.8301,6.7299,6.7299,6.688,6.6406,6.6406,6.6,6.5561,6.5561,6.6,6.649,6.6704,6.794,6.9098,6.9041,6.9223,6.9423,6.9371,6.8839,6.8414,6.8414,6.7804,6.7532,6.8111,6.7237,6.7191,6.9074,6.9125,6.85,6.7179,6.7076,6.7415,6.8156,6.891,6.9295,6.9151,6.9339,6.9633,7.0073,6.9486,6.9155,6.9155,6.9155,6.9155,6.9155,6.9155,6.9155,6.9192,6.9816,6.9743,5.5149,5.6436,5.6466,5.3947,4.9912,4.5768,4.2613,4.0009,3.8061,3.7354,3.7867,3.827,3.7627,3.8489,4.0033,4.2245,4.3537,4.6307,5.2154,5.4518,5.726,6.1689,6.2751,6.4125,6.6725,6.5835,6.6259,6.8991,7.0379,7.0794,7.0141,7.0805,7.0601,6.9248,7.041,7.0804,7.0217,7.0872,7.1222,7.1289,7.1289,7.1289,7.1289,7.1289,7.1255,7.1188,7.1188,7.1176,7.1086,7.1086,7.0703,7.0116,7.0116,7.0256,7.0445,7.0445,7.0445,7.0445,7.0445,6.9872,6.9113,6.9113,6.9011,6.8876,6.8876,6.8842,6.8808,6.8808,6.8741,6.8707,6.8707,6.8741,6.902,6.9946,7.0976,7.1742,7.1742,7.1779,7.1781,7.1781,7.171,7.1675,7.1675,7.1095,7.0646,7.0682,7.0721,7.0792,7.0945,7.2249,7.3069,7.2922,7.1032,6.9786,6.9889,7.059,7.0759,7.0036,7.0683,7.0793,7.011,7.0036,7.0,7.0,7.0,7.0,7.0,7.0,7.0,7.0,7.0073,7.0073,5.106,5.4316,5.7094,5.4461,5.0009,4.5639,4.3159,3.9954,3.7505,3.7488,3.8007,3.8387,3.7994,3.8908,4.0139,4.1352,4.2011,4.3769,4.7754,4.9434,5.2469,5.8497,6.0476,6.3215,6.7954,6.7899,6.838,7.0309,7.0984,7.1154,7.0872,7.112,7.1019,7.0466,7.0985,7.1176,7.0872,7.1154,7.1289,7.1289,7.1289,7.1289,7.1289,7.1289,7.1289,7.1289,7.1289,7.1289,7.1356,7.1926,7.2022,7.1832,7.2429,7.2744,7.2836,7.2836,7.2836,7.2836,7.2836,7.2563,7.224,7.224,7.1828,7.1058,6.9567,6.9113,6.9113,6.9113,6.9527,7.0003,7.0003,7.077,7.1787,7.2633,7.3594,7.4188,7.3704,7.4079,7.4368,7.3881,7.3809,7.3809,7.3809,7.3572,7.339,7.3345,7.3429,7.3443,7.3413,7.4006,7.4441,7.4441,7.356,7.301,7.301,7.3289,7.3325,7.301,7.3289,7.3325,7.301,7.301,7.2753,7.2275,7.229,7.2018,7.1541,7.1541,7.1321,7.0844,7.1321,7.1284,4.8097,5.1929,5.5551,5.3748,4.962,4.5481,4.3557,4.0185,3.7581,3.7892,3.8447,3.8754,3.8344,3.9431,4.0567,4.0998,4.1715,4.305,4.5523,4.7144,5.0127,5.5689,5.822,6.1796,6.7485,6.9136,7.024,7.1244,7.1289,7.1289,7.1289,7.1289,7.1289,7.1289,7.1289,7.1289,7.1289,7.1289,7.1289,7.1289,7.1289,7.1457,7.172,7.172,7.1917,7.2185,7.2185,7.2025,7.1808,7.2818,7.3084,7.29,7.3889,7.4479,7.4739,7.4739,7.4739,7.4739,7.4739,7.4535,7.4291,7.4291,7.3811,7.2916,7.1153,7.0451,7.0174,7.0174,7.0912,7.1687,7.1687,7.2844,7.4099,7.4632,7.551,7.6102,7.5505,7.5953,7.6313,7.5711,7.5601,7.5601,7.5601,7.5417,7.5344,7.5564,7.5417,7.5344,7.5564,7.5601,7.5601,7.5601,7.5601,7.5417,7.494,7.5124,7.516,7.4903,7.5124,7.516,7.4903,7.4903,7.461,7.4074,7.3817,7.3523,7.3215,7.2973,7.2679,7.2371,7.2958,7.2885,4.7934,4.9935,5.1024,5.1189,4.8267,4.4934,4.3438,4.0674,3.8465,3.8741,3.9327,3.9517,3.8666,3.9916,4.1237,4.1696,4.3407,4.5289,4.7018,4.9739,5.2233,5.4113,5.6521,5.9941,6.4883,6.8931,7.1289,7.1289,7.1289,7.1289,7.1289,7.1289,7.1289,7.1289,7.1289,7.1289,7.1289,7.1289,7.1289,7.1289,7.1289,7.1808,7.2776,7.2776,7.3332,7.4253,7.4253,7.3694,7.2859,7.385,7.3709,7.29,7.3889,7.4903,7.577,7.577,7.577,7.577,7.577,7.512,7.4291,7.4291,7.4272,7.4272,7.4253,7.3556,7.2742,7.2742,7.3477,7.4272,7.4272,7.5012,7.577,7.577,7.6563,7.7273,7.7273,7.7273,7.7289,7.7289,7.7289,7.7289,7.7289,7.6592,7.635,7.7179,7.6592,7.6387,7.7179,7.7289,7.7289,7.7289,7.7289,7.6628,7.505,7.5616,7.5763,7.494,7.5652,7.5726,7.494,7.4903,7.4903,7.4903,7.4111,7.4074,7.4867,7.4074,7.4074,7.4867,7.4867,7.4867,4.3068,4.5425,4.7487,4.7236,4.4885,4.2521,4.2045,4.0091,3.8501,3.8934,3.9066,3.9124,3.9172,3.9848,4.0898,4.2376,4.3908,4.501,4.5223,4.9305,5.3228,5.5854,6.264,6.7701,6.9267,7.0558,7.1289,7.1289,7.1289,7.1289,7.1289,7.1289,7.1289,7.1289,7.1289,7.1289,7.1289,7.1289,7.1289,7.1312,7.1991,7.2477,7.2818,7.3512,7.3986,7.4291,7.4291,7.4101,7.3889,7.4903,7.5138,7.4958,7.5959,7.6547,7.6824,7.6824,7.6824,7.6824,7.6824,7.6611,7.633,7.633,7.5891,7.5334,7.5334,7.4628,7.3966,7.4665,7.5066,7.5492,7.6181,7.6579,7.6824,7.6824,7.7066,7.7289,7.7289,7.7289,7.7289,7.7289,7.7289,7.7289,7.7289,7.7105,7.6995,7.7252,7.7069,7.6995,7.7289,7.7289,7.7289,7.7289,7.7289,7.7105,7.6592,7.6775,7.6812,7.6555,7.6775,7.6812,7.6555,7.6555,7.6261,7.5726,7.5469,7.5212,7.4903,7.4647,7.4647,7.4903,7.4903,7.5197,3.9797,4.1804,4.3671,4.4106,4.2722,4.1219,4.1055,3.9858,3.8901,3.9356,3.9425,3.9521,3.9898,4.0837,4.1932,4.2981,4.4687,4.5736,4.5381,4.9041,5.3181,5.7054,6.4343,6.9267,6.9837,7.0737,7.1289,7.1289,7.1289,7.1289,7.1289,7.1289,7.1289,7.1289,7.1289,7.1424,7.1718,7.1424,7.1637,7.2283,7.2636,7.3191,7.3947,7.4591,7.5048,7.5422,7.5422,7.5227,0.0,7.5959,7.6128,7.5908,7.6925,7.7289,7.7289,7.7289,7.7289,7.7289,7.7289,7.7289,7.7289,7.7289,7.6872,7.6363,7.6363,7.5649,7.5102,7.6077,7.6363,7.6514,7.715,7.7289,7.7289,7.7289,7.7546,7.7803,7.7803,7.8023,7.8133,7.7839,7.7803,7.7693,7.7362,7.7289,7.7289,7.7289,7.7289,7.7289,7.7289,7.7289,7.7289,7.7289,7.7289,7.7289,7.7289,7.7289,7.7289,7.7289,7.7289,7.7289,7.7289,7.7289,7.7069,7.6555,7.624,7.6019,7.5821,7.5821,7.5821,7.5821,7.5821,7.6078,0.0,3.8996,3.978,4.1588,4.1469,4.0807,4.042,3.984,0.0,3.9887,4.0185,4.0434,4.0696,4.2527,4.3879,4.3548,4.5678,4.7323,4.7271,4.9559,5.3182,5.8283,6.294,6.6235,6.7584,6.9882,7.1289,7.1289,7.1289,7.1289,7.1289,7.1289,7.1289,7.1289,7.1289,7.165,7.2326,7.1627,7.2139,7.378,7.3185,7.3924,7.5756,7.5857,7.6432,7.7289,7.7289,7.6777,7.5976,7.6888,7.6761,7.601,7.6956,7.7289,7.7289,7.7289,7.7289,7.7289,7.7289,7.7289,7.7289,7.7289,7.7289,7.7326,7.7362,7.6753,7.6167,7.7035,7.7399,7.7472,7.7399,7.7436,7.7472,7.7472,7.8112,7.8699,7.8699,7.9265,7.9596,7.8809,7.8699,7.8442,7.7619,7.7436,7.7399,7.7399,7.7362,7.7289,7.7289,7.7289,7.7289,7.7289,7.7362,7.7399,7.7399,7.7362,7.7289,7.7289,7.7289,7.7289,7.7289,7.7289,7.7289,7.7289,7.657,7.6555,7.7289,7.7289,7.7289,7.7289,7.7289,7.7289,3.5887,0.0,3.7243,3.8309,3.8823,3.9134,0.0,3.9511,3.9409,3.9499,3.9863,4.0342,4.0886,4.2658,4.4152,4.4553,4.6524,4.8419,4.9583,5.5507,6.0709,6.3432,6.7378,6.9591,6.8823,7.0286,7.1289,7.1289,7.1289,7.1289,7.1289,7.1289,7.1289,7.1289,7.1289,7.1391,7.1582,7.1391,7.1785,7.2778,7.3575,7.4495,7.5519,7.6484,7.7066,7.7289,7.7289,7.7181,7.6972,7.7196,7.7165,7.6972,7.7212,7.7289,7.7289,7.7289,7.7289,7.7289,7.7289,7.7289,7.7289,7.7289,7.7289,7.7436,7.8112,7.8118,7.7861,7.7411,7.8206,7.9066,7.8442,7.8736,7.9213,7.9213,7.9376,7.9522,7.9522,7.9669,7.9743,7.9559,7.9522,7.9449,7.9265,7.8699,7.8295,7.8295,7.7729,7.7289,7.7289,7.7289,7.7289,7.7289,7.7876,7.8295,7.8295,7.7693,7.7289,7.7289,7.7289,7.7289,7.7289,7.7289,7.7289,7.7289,7.7105,7.7105,7.7289,7.7289,7.7289,7.7289,7.7289,7.7289,3.531,3.5703,3.6217,3.6828,3.7652,3.8423,3.8853,3.9182,3.9535,3.9998,4.0237,4.0685,4.1749,4.3548,4.5078,4.5688,4.763,4.9887,5.2293,5.7723,6.2445,6.5087,6.8291,7.0241,7.0128,7.0816,7.1289,7.1289,7.1289,7.1289,7.1289,7.1289,7.1289,7.1289,7.1289,7.1659,7.2482,7.214,7.2814,7.447,7.4815,7.5442,7.6315,7.6975,7.7289,7.7326,7.7729,7.7656,7.7326,7.7729,7.7656,7.7362,7.7729,7.7876,7.7949,7.8332,7.8222,7.7876,7.7876,7.7619,7.7289,7.7289,7.7289,7.7472,7.8332,7.8846,7.9029,7.8589,7.9103,7.9706,7.9265,7.9486,7.9816,7.9816,8.0073,8.0351,8.0351,8.0645,8.0807,8.0424,8.0351,8.0241,7.9853,7.914,7.8736,7.9103,7.8442,7.8023,7.8405,7.8442,7.8442,7.8442,7.8883,7.9155,7.9155,7.8736,7.8295,7.7913,7.7876,7.7729,7.7326,7.7289,7.7289,7.7289,7.7289,7.7289,7.7289,7.7289,7.7289,7.7289,7.7289,7.7289,3.559,3.5902,3.6242,3.663,3.7558,3.8404,3.8617,3.9175,3.989,4.0668,4.0915,4.1368,4.2648,4.479,4.655,4.7014,4.9623,5.2602,5.5567,5.9051,6.2315,6.5047,6.7791,6.9857,7.085,7.1154,7.1289,7.1289,7.1289,7.1289,7.1289,7.1289,7.1379,7.1523,7.1546,7.2386,7.4173,7.3274,7.41,7.6642,7.6061,7.632,7.7234,7.7301,7.7289,7.7362,7.8075,7.7986,7.7362,7.8112,7.8023,7.7582,7.8295,7.8662,7.8883,7.9559,7.9376,7.8772,7.8772,7.8222,7.7509,7.7509,7.7509,7.7656,7.8516,7.936,8.0,8.0147,8.0183,8.0147,8.0036,8.0073,8.022,8.033,8.0865,8.1415,8.1525,8.2076,8.237,8.1672,8.1452,8.1158,8.0477,7.958,7.9176,7.989,7.9286,7.9045,7.9706,7.9816,7.9816,7.9816,7.9926,8.0,8.0,8.011,7.9816,7.9029,7.8846,7.8405,7.7546,7.7509,7.7436,7.7289,7.7289,7.7289,7.7289,7.7436,7.7436,7.7289,7.7436,7.7436,3.6178,3.6742,3.7306,3.7814,3.8493,3.9221,3.9786,4.0426,4.0848,4.0551,4.134,4.2247,4.267,4.6002,4.877,4.8961,5.4195,5.874,6.0269,6.4087,6.6375,6.5503,6.8685,7.0567,6.9553,7.0545,7.1289,7.1289,7.1289,7.1289,7.1289,7.1289,7.1688,7.254,7.2561,7.3507,7.5478,7.3705,7.3757,7.5634,7.5746,7.6199,7.6987,7.7201,7.7289,7.7326,7.7436,7.7436,7.7326,7.7436,7.7839,7.8405,7.8552,7.9029,7.9633,7.9743,7.9706,7.9633,7.9633,7.9066,7.8405,7.8405,7.8405,7.8552,7.9376,8.0167,8.0975,8.1636,8.1819,8.1672,8.0975,8.1305,8.2003,8.27,8.2941,8.3197,8.3911,8.4132,8.4205,8.4058,8.3491,8.2977,8.2867,8.1636,8.0681,8.0791,8.0131,7.9669,7.9779,7.9816,7.9816,7.9816,8.0388,8.0828,8.0828,8.1452,8.1489,8.0681,7.9984,7.9265,7.8442,7.8405,7.8075,7.7326,7.7289,7.7289,7.7289,7.8023,7.8038,7.7326,7.8075,7.7986,3.5878,3.6417,3.7211,3.8432,3.9476,4.0331,4.0953,4.1992,4.2881,4.3106,4.4434,4.5628,4.5764,4.9151,5.2618,5.4803,5.9098,6.2412,6.306,6.524,6.6867,6.7354,6.9007,7.0161,7.0297,7.0883,7.1289,7.1289,7.1289,7.1289,7.1289,7.1289,7.1776,7.2756,7.2797,7.3753,7.577,7.4885,7.51,7.6433,7.6545,7.6777,7.7142,7.7249,7.7289,7.7326,7.7803,7.7729,7.7362,7.8295,7.8369,7.8023,7.936,7.9837,7.9853,8.0277,8.0461,8.0388,7.9963,7.9559,7.9265,7.9265,7.9265,7.9412,8.0204,8.0718,8.1269,8.2517,8.2553,8.2113,8.1746,8.1929,8.2296,8.2663,8.3087,8.3491,8.3858,8.4278,8.4609,8.4609,8.4315,8.4042,8.4042,8.3051,8.2427,8.2884,8.226,8.1893,8.2333,8.237,8.237,8.237,8.2737,8.2774,8.2317,8.2663,8.2333,8.1085,8.0241,7.9633,7.9265,7.9265,7.9066,7.8662,7.8222,7.8222,7.8662,7.8133,7.7913,7.7986,7.8405,7.8148,3.5699,3.6443,3.7503,3.8913,3.9917,4.0995,4.263,4.393,4.5245,4.6687,4.8132,4.9138,4.9222,5.2587,5.6599,6.0517,6.3549,6.5564,6.5878,6.6542,6.7658,6.9417,6.962,7.006,7.1188,7.1289,7.1289,7.1289,7.1289,7.1289,7.1289,7.1523,7.212,7.3111,7.3392,7.4367,7.6111,7.6128,7.6547,7.7289,7.7289,7.7289,7.7289,7.7289,7.7289,7.7362,7.7986,7.7913,7.7399,7.8699,7.8699,7.806,7.9984,8.0571,8.044,8.1048,8.1269,8.1195,8.0587,8.0257,8.0073,8.0073,8.0073,8.0204,8.0828,8.1269,8.1803,8.3051,8.3104,8.2774,8.2774,8.2774,8.281,8.2994,8.3508,8.4005,8.4188,8.4739,8.5159,8.5159,8.5013,8.4866,8.4866,8.4205,8.3895,8.4499,8.4078,8.3895,8.4535,8.4609,8.4609,8.4609,8.4609,8.4352,8.3711,8.3675,8.3161,8.1929,8.0901,8.0367,8.0367,8.0183,8.0,7.9816,7.9176,7.9192,7.9816,7.8683,7.839,7.8883,7.9066,7.8699,3.6237,3.7738,3.9151,3.9428,3.9402,4.0601,4.5435,4.662,4.7612,5.0774,5.1463,5.1512,5.1711,5.5536,5.9895,6.3653,6.6804,6.899,6.9688,7.0432,7.0951,7.112,7.112,7.1188,7.1289,7.1289,7.1289,7.1289,7.1289,7.1289,7.1289,7.2172,7.3131,7.4158,7.5084,7.6094,7.7181,7.7196,7.7227,7.7289,7.7289,7.7289,7.7289,7.7289,7.7289,7.7289,7.7362,7.7362,7.7326,7.7436,7.8332,7.9633,7.9816,8.0771,8.2039,8.2076,8.2113,8.2113,8.2039,8.1525,8.0901,8.0901,8.0901,8.0938,8.0975,8.2023,8.3234,8.3381,8.3911,8.4425,8.4425,8.4425,8.4609,8.5343,8.558,8.582,8.6574,8.6794,8.6831,8.6831,8.6224,8.571,8.571,8.5049,8.4535,8.4609,8.4535,8.4535,8.4609,8.4609,8.4609,8.4609,8.4609,8.4572,8.4535,8.4499,8.4462,8.4352,8.2884,8.2039,8.2039,8.1305,8.0571,7.9816,7.9743,7.9743,7.9816,8.0424,8.0388,7.9743,8.0461,8.0388,3.6449,3.8331,4.0282,4.0952,4.2075,4.4031,4.8006,4.9893,5.19,5.5731,5.7734,5.8926,5.9103,6.0964,6.326,6.5595,6.8504,7.0567,7.0838,7.112,7.1289,7.1289,7.1289,7.1289,7.1289,7.1289,7.1289,7.1289,7.1289,7.1289,7.1289,7.2257,7.3252,7.4253,7.5299,7.628,7.7273,7.7289,7.7289,7.7289,7.7289,7.7289,7.7289,7.7289,7.7289,7.7289,7.7289,7.7619,7.8148,7.8662,7.9213,7.9853,8.0351,8.1525,8.2884,8.237,8.2517,8.2884,8.237,8.2003,8.1819,8.2333,8.25,8.2574,8.3104,8.3654,8.4242,8.4756,8.5123,8.5233,8.4719,8.4609,8.4682,8.4976,8.5416,8.5874,8.6187,8.6664,8.6978,8.6978,8.6775,8.6554,8.6554,8.6297,8.6114,8.6114,8.6114,8.6114,8.6114,8.6114,8.6114,8.6114,8.5637,8.5343,8.5343,8.4903,8.4792,8.5306,8.4315,8.3471,8.2994,8.2647,8.2353,8.2039,8.1048,8.1048,8.2039,8.0828,8.0351,8.0534,8.0865,8.0571,3.6965,3.9093,4.1357,4.2148,4.4472,4.7681,5.1964,5.3152,5.4848,5.993,6.2212,6.3472,6.4066,6.441,6.5256,6.7218,6.9632,7.1289,7.1289,7.1289,7.1289,7.1289,7.1289,7.1289,7.1289,7.1289,7.1289,7.1289,7.1289,7.1434,7.1776,7.2749,7.3714,7.4739,7.5735,7.6595,7.7273,7.7289,7.7289,7.7289,7.7289,7.7289,7.7289,7.7289,7.7436,7.7693,7.7436,7.7949,7.8993,7.9302,7.9743,8.0241,8.1048,8.2039,8.2957,8.2406,8.2553,8.2957,8.237,8.2186,8.2296,8.2847,8.303,8.3124,8.3691,8.4022,8.4389,8.5196,8.56,8.571,8.5416,8.538,8.538,8.538,8.5783,8.6187,8.6187,8.6811,8.7399,8.7399,8.7565,8.7748,8.7748,8.7748,8.7748,8.7748,8.7528,8.7399,8.7399,8.7178,8.6978,8.6978,8.6518,8.6187,8.6187,8.5673,8.56,8.6151,8.5673,8.5013,8.4205,8.3895,8.3785,8.3785,8.2427,8.228,8.3381,8.1746,8.1085,8.1379,8.1893,8.1709,3.7895,4.0159,4.2494,4.2792,4.6153,5.1077,5.7617,5.6379,5.5925,6.3121,6.4072,6.3984,6.5459,6.5155,6.5662,6.8639,7.0364,7.1289,7.1289,7.1289,7.1289,7.1289,7.1289,7.1289,7.1289,7.1289,7.1289,7.1289,7.1289,7.1754,7.2735,7.3733,7.4757,7.5753,7.6777,7.7289,7.7289,7.7289,7.7289,7.7289,7.7289,7.7289,7.7289,7.7289,7.7766,7.8552,7.7656,7.8259,7.9743,7.8956,7.958,8.1085,8.1893,8.2186,8.2186,8.2186,8.2186,8.2186,8.2186,8.2186,8.2186,8.2186,8.2186,8.2223,8.2223,8.2774,8.3601,8.4389,8.5196,8.5967,8.6811,8.6978,8.6978,8.6978,8.6978,8.6978,8.7014,8.7655,8.8206,8.8206,8.8849,8.94,8.94,8.94,8.94,8.94,8.8702,8.8206,8.8206,8.7509,8.6978,8.6978,8.7014,8.7014,8.6978,8.7014,8.7014,8.6978,8.6978,8.6628,8.5837,8.5013,8.4609,8.4609,8.3821,8.3418,8.3418,8.3418,8.2994,8.226,8.3875,8.4168,3.9527,4.1655,4.4476,4.7927,5.0921,5.438,5.9496,5.9297,5.9717,6.5678,6.803,6.8617,6.7455,6.8808,7.0026,6.9891,7.1109,7.209,7.209,7.165,7.1289,7.1289,7.1289,7.1289,7.1289,7.1289,7.1289,7.1289,7.1289,7.1754,7.2735,7.3733,7.4757,7.5753,7.6777,7.7289,7.7289,7.7289,7.7289,7.7289,7.7289,7.7289,7.7289,7.7289,7.7436,7.7656,7.7399,7.8259,7.989,8.0755,8.1415,8.1856,8.2113,8.2553,8.2994,8.2406,8.2553,8.2957,8.2406,8.2186,8.2296,8.2884,8.3014,8.3124,8.3728,8.4462,8.5123,8.538,8.6004,8.6701,8.6958,8.6978,8.6978,8.6978,8.6978,8.7178,8.7729,8.8023,8.839,8.8923,8.9253,8.94,8.94,8.94,8.94,8.94,8.9216,8.8849,8.828,8.7509,8.6978,8.6978,8.7509,8.7619,8.7051,8.7509,8.7619,8.7014,8.6978,8.6628,8.5837,8.5563,8.5416,8.5416,8.4646,8.4535,8.5086,8.4535,8.4132,8.3911,8.4389,8.4462,4.0941,4.3346,4.6668,5.1552,5.4789,5.8022,6.2844,6.4156,6.539,6.8936,7.1007,7.1853,7.077,7.1345,7.1853,7.1548,7.1988,7.2394,7.2394,7.1785,7.1289,7.1289,7.1289,7.1289,7.1289,7.1289,7.1289,7.1289,7.1666,7.2342,7.3332,7.4348,7.5369,7.6346,7.6988,7.7289,7.7289,7.7289,7.7289,7.7289,7.7289,7.7289,7.7289,7.7289,7.7509,7.7839,7.8133,7.8699,7.9449,8.1048,8.1709,8.1746,8.2076,8.248,8.2884,8.237,8.2517,8.2847,8.237,8.2186,8.226,8.2774,8.292,8.3067,8.3875,8.4242,8.4572,8.5543,8.593,8.617,8.6831,8.6978,8.6978,8.6978,8.7234,8.7619,8.8096,8.872,8.9307,8.9767,9.0134,9.0354,9.0354,9.0354,9.0354,9.0354,8.9803,8.9216,8.8757,8.7986,8.7619,8.7932,8.8372,8.85,8.7968,8.8409,8.8445,8.7968,8.7932,8.7565,8.6775,8.6444,8.6261,8.6261,8.549,8.5306,8.58,8.5306,8.4903,8.4609,8.527,8.538,4.2328,4.5342,4.892,5.4341,5.8429,6.2415,6.7286,7.0128,7.1796,7.2124,7.3105,7.4018,7.4424,7.3082,7.2293,7.3534,7.3037,7.2496,7.2496,7.1819,7.1289,7.1289,7.1289,7.1289,7.1289,7.1289,7.1289,7.1289,7.2215,7.3232,7.4234,7.5227,7.6264,7.7258,7.7289,7.7289,7.7289,7.7289,7.7289,7.7289,7.7289,7.7289,7.7289,7.7289,7.7729,7.8516,7.9339,7.9302,7.8699,8.0277,8.0938,8.1085,8.1819,8.215,8.2186,8.2186,8.2186,8.2186,8.2186,8.2186,8.2186,8.2186,8.2186,8.2333,8.3067,8.2847,8.2774,8.5049,8.5233,8.5049,8.6611,8.6978,8.7014,8.7088,8.7655,8.8243,8.839,8.9564,9.0629,9.0702,9.1289,9.1803,9.1803,9.1803,9.1803,9.1803,9.0482,8.951,8.951,8.883,8.861,8.9326,8.9473,8.9473,8.94,8.9473,8.9473,8.94,8.94,8.9069,8.8353,8.7545,8.7051,8.6978,8.6261,8.5894,8.5894,8.5894,8.5527,8.4866,8.6334,8.6628,4.5059,4.7717,5.1207,5.8886,6.487,6.9485,7.1785,7.3578,7.3984,7.1244,7.4075,7.6376,7.4119,7.527,7.6251,7.5371,7.4119,7.3263,7.3263,7.2124,7.1289,7.1289,7.1289,7.1289,7.1289,7.1289,7.1289,7.1289,7.2215,7.3232,7.4234,7.5227,7.6264,7.7258,7.7289,7.7289,7.7289,7.7289,7.7289,7.7289,7.7289,7.7289,7.7289,7.7289,7.7399,7.7619,7.8479,7.8772,7.8662,7.9653,8.0424,8.1012,8.1195,8.1636,8.2186,8.2186,8.2186,8.2186,8.2186,8.2186,8.2186,8.2186,8.2186,8.2223,8.2406,8.2774,8.3381,8.4535,8.5196,8.5747,8.6775,8.6978,8.7178,8.7802,8.8059,8.8536,8.9821,9.0372,9.0812,9.1436,9.1693,9.1803,9.1803,9.1803,9.1803,9.1803,9.0959,9.0317,9.0317,8.962,8.9216,8.9363,8.995,9.0097,8.9436,8.9987,9.006,8.9436,8.94,8.9326,8.9143,8.839,8.7655,8.7014,8.6848,8.6738,8.6738,8.6738,8.6664,8.65,8.6831,8.6904,4.4886,4.8805,5.3905,6.3269,6.9011,7.2563,7.3331,7.4627,7.5134,7.3206,7.5598,7.7425,7.5473,7.642,7.6826,7.4931,7.3984,7.3398,7.3003,7.2022,7.1289,7.1289,7.1289,7.1289,7.1289,7.1289,7.1289,7.1289,7.2686,7.3768,7.4253,7.572,7.6761,7.7273,7.7289,7.7289,7.7289,7.7289,7.7289,7.7289,7.7289,7.7289,7.7289,7.7289,7.7289,7.7326,7.7766,7.7986,7.806,7.9286,8.0036,8.0498,8.1269,8.1819,8.2186,8.2186,8.2186,8.2186,8.2186,8.2186,8.2186,8.2186,8.2186,8.226,8.2663,8.3067,8.3638,8.4829,8.549,8.5967,8.6811,8.7271,8.7802,8.8556,8.8776,8.9124,9.0335,9.0922,9.1289,9.173,9.1803,9.1803,9.1803,9.1803,9.1803,9.1803,9.1106,9.0739,9.1106,9.0464,9.0097,9.0519,9.0922,9.0996,9.0592,9.0922,9.0996,9.0592,9.0555,9.0391,8.9987,8.9564,8.8977,8.8152,8.7766,8.7582,8.7582,8.7215,8.6978,8.6978,8.6978,8.6978,4.4139,5.0156,5.7368,6.6766,7.121,7.3308,7.3308,7.4458,7.5506,7.5506,7.6724,7.7536,7.6657,7.6623,7.598,7.3872,7.3398,7.3105,7.2496,7.1785,7.1289,7.1289,7.1289,7.1289,7.1289,7.1289,7.1311,7.1342,7.3057,7.4119,7.4145,7.5898,7.6885,7.6885,7.7032,7.7105,7.7105,7.7252,7.7289,7.7289,7.7289,7.7289,7.7289,7.7289,7.7289,7.7289,7.7289,7.7289,7.7399,7.8809,7.9449,7.9743,8.1048,8.1636,8.1782,8.1929,8.2003,8.2003,8.215,8.2186,8.2186,8.2186,8.2186,8.2333,8.3161,8.3381,8.3748,8.5343,8.58,8.5967,8.6811,8.7619,8.839,8.9216,8.951,8.984,9.0629,9.1326,9.1803,9.1803,9.1803,9.1803,9.1803,9.1803,9.1803,9.1803,9.1216,9.1069,9.1693,9.1216,9.1069,9.173,9.1803,9.1803,9.1803,9.1803,9.1803,9.1803,9.1803,9.151,9.0849,9.0812,9.0482,8.984,8.8904,8.8426,8.8426,8.7766,8.7418,8.7418,8.7418,8.7418,4.5561,5.3951,6.2495,6.7757,7.0838,7.2563,7.2563,7.368,7.4762,7.4762,7.598,7.6623,7.5168,7.5439,7.5337,7.3771,7.2969,7.2496,7.2428,7.1785,7.1289,7.1289,7.1289,7.1289,7.1289,7.1289,7.135,7.156,7.2614,7.3331,7.3496,7.4618,7.5234,7.5234,7.5894,7.6276,7.6276,7.6959,7.7289,7.7289,7.7289,7.7289,7.7289,7.7289,7.7289,7.7289,7.7289,7.7289,7.7326,7.7546,7.8075,7.8772,7.8993,7.9507,8.022,8.0901,8.1158,8.1269,8.1966,8.2186,8.2186,8.2186,8.2186,8.2333,8.3161,8.3381,8.3748,8.5343,8.58,8.5967,8.6811,8.7619,8.839,8.9216,8.9913,9.0665,9.1473,9.173,9.1803,9.1803,9.1803,9.1803,9.1803,9.1803,9.1803,9.1803,9.1693,9.1693,9.1803,9.1693,9.1693,9.1803,9.1803,9.1803,9.1803,9.1803,9.1803,9.1803,9.1803,9.173,9.1657,9.1657,9.1583,9.1473,8.9987,8.9253,8.9253,8.9143,8.9069,8.9069,8.9069,8.9069,4.7925,5.4692,6.1058,6.6057,6.9265,7.1379,7.2225,7.3206,7.3984,7.3984,7.4525,7.4796,7.4119,7.4255,7.3984,7.2496,7.2326,7.2259,7.1853,7.1492,7.1289,7.1289,7.1289,7.1289,7.1289,7.0939,7.1119,7.2188,7.2395,7.2941,7.4007,7.4592,7.4903,7.4903,7.5234,7.5652,7.6093,7.6445,7.6848,7.7289,7.7289,7.7289,7.7289,7.7289,7.7289,7.7289,7.7289,7.7289,7.7362,7.7839,7.8259,7.8699,7.958,8.0167,8.0571,8.1379,8.1672,8.1709,8.2076,8.2186,8.2186,8.2186,8.2186,8.226,8.2627,8.3361,8.4242,8.4939,8.5783,8.6664,8.7472,8.828,8.9069,8.9877,9.0702,9.1363,9.173,9.1803,9.1803,9.1803,9.1803,9.1803,9.1803,9.1803,9.1803,9.1803,9.1803,9.1803,9.1803,9.1803,9.1803,9.1803,9.1803,9.1803,9.1803,9.1803,9.1803,9.1803,9.1803,9.1803,9.1803,9.1803,9.1803,9.1803,9.0665,9.006,9.006,8.962,8.94,8.94,8.94,8.94,4.9489,5.389,5.7879,6.3412,6.6961,6.9534,7.1188,7.2428,7.3172,7.2969,7.3071,7.3138,7.2969,7.3071,7.28,7.1515,7.1751,7.1921,7.1357,7.112,7.1041,7.1041,7.0872,7.0714,7.0714,7.0398,7.0772,7.218,7.2072,7.2584,7.3997,7.4205,7.428,7.428,7.45,7.4882,7.5469,7.5909,7.6423,7.6995,7.7215,7.7289,7.7289,7.7289,7.7289,7.7289,7.7289,7.7289,7.7362,7.7986,7.8405,7.8699,7.991,8.0534,8.0791,8.1599,8.1893,8.1929,8.2113,8.2186,8.2186,8.2186,8.2186,8.226,8.27,8.3654,8.4682,8.5086,8.6224,8.7435,8.8059,8.894,8.984,9.0482,9.1216,9.1803,9.1803,9.1803,9.1803,9.1803,9.1803,9.1803,9.1803,9.1803,9.1803,9.1803,9.1803,9.1803,9.1803,9.1803,9.1803,9.1803,9.1803,9.1803,9.1803,9.1803,9.1803,9.1803,9.1803,9.1803,9.1803,9.1803,9.1803,9.1803,9.1216,9.0922,9.0922,9.028,8.9987,8.9987,8.9987,8.9987,4.9222,5.1633,5.4285,6.0227,6.3939,6.6697,6.8801,7.0906,7.2259,7.1582,7.1988,7.2225,7.1526,7.1988,7.2191,7.1424,7.1323,7.1323,7.1289,7.0703,7.0263,7.0263,6.962,6.9214,6.9214,6.9789,7.0386,7.0868,7.151,7.2134,7.2592,7.2614,7.2642,7.2642,7.334,7.3795,7.3817,7.5322,7.613,7.6166,7.6922,7.7289,7.7289,7.7289,7.7289,7.7289,7.7289,7.7289,7.7289,7.7362,7.7839,7.8589,7.8699,7.9176,7.9963,8.0755,8.1048,8.1158,8.1929,8.2186,8.2186,8.2186,8.2186,8.248,8.4022,8.4535,8.4939,8.6444,8.7472,8.8133,8.8206,8.9381,9.0555,9.0592,9.1216,9.1803,9.1803,9.1803,9.1803,9.1803,9.1803,9.1803,9.1803,9.1803,9.1803,9.1803,9.1803,9.1803,9.1803,9.1803,9.1803,9.1803,9.1803,9.1803,9.1803,9.1803,9.1803,9.1803,9.1803,9.1803,9.1803,9.1803,9.1803,9.1803,9.1767,9.173,9.173,9.1693,9.1693,9.1693,9.1693,9.1693,4.7572,4.9857,5.2474,5.7033,5.9975,6.2456,6.5236,6.7469,6.9021,6.9368,7.0659,7.1616,7.1357,7.1526,7.1616,7.1323,7.0906,7.0601,7.0601,6.9958,6.9485,6.9485,6.9248,6.9113,6.9113,6.8876,6.9265,7.0566,7.0563,7.1015,7.2289,7.2438,7.2496,7.2496,7.2789,7.3193,7.367,7.4771,7.5579,7.6093,7.6387,7.6812,7.7289,7.7289,7.7289,7.7289,7.7289,7.7289,7.7289,7.7289,7.7472,7.7803,7.8369,7.8772,7.9176,8.0498,8.1012,8.1122,8.1929,8.2553,8.2884,8.237,8.2884,8.3765,8.3801,8.4535,8.56,8.6684,8.7582,8.8426,8.9491,9.0188,9.0739,9.1253,9.1583,9.1803,9.1803,9.1803,9.1803,9.1803,9.1803,9.1803,9.1803,9.1803,9.1803,9.1803,9.1803,9.1803,9.1803,9.1803,9.1803,9.1803,9.1803,9.1803,9.1803,9.1803,9.1803,9.1803,9.1803,9.1803,9.1803,9.1803,9.1803,9.1803,9.1803,9.1803,9.1803,9.1803,9.1803,9.1803,9.1803,9.1803,4.6768,4.8663,5.0985,5.4569,5.7027,5.941,6.253,6.4807,6.6556,6.7692,6.9098,7.0241,7.0534,7.0567,7.0613,7.0906,7.05,7.0116,6.9857,6.918,6.8707,6.8707,6.847,6.8335,6.8335,6.837,6.8918,7.0182,7.045,7.107,7.2309,7.2459,7.2496,7.2496,7.2496,7.2753,7.3303,7.4111,7.4918,7.5689,7.5983,7.6518,7.7289,7.7289,7.7289,7.7289,7.7289,7.7289,7.7289,7.7289,7.7472,7.7803,7.8369,7.8919,7.9543,8.0608,8.1342,8.1856,8.2113,8.2737,8.3271,8.2443,8.292,8.3801,8.3785,8.4535,8.56,8.6701,8.7766,8.8867,8.9913,9.0592,9.1143,9.1657,9.1803,9.1803,9.1803,9.1803,9.1803,9.1803,9.1803,9.1803,9.1803,9.1803,9.1803,9.1803,9.1803,9.1803,9.1803,9.1803,9.1803,9.1803,9.1803,9.1803,9.1803,9.1803,9.1803,9.1803,9.1803,9.1803,9.1803,9.1803,9.1803,9.1803,9.1803,9.1803,9.1803,9.1803,9.1803,9.1803,9.1803,9.1803,0.0,0.0,0.0,5.2934,5.5291,5.7603,6.0597,6.3042,6.5034,6.6434,6.7307,6.8076,6.8876,6.9045,6.9282,6.9958,7.0116,6.9857,6.918,6.8368,6.7861,6.7861,6.7252,6.6791,6.6791,6.8342,6.9405,6.9547,7.1148,7.2198,7.238,7.2467,7.2496,7.2496,7.2496,7.2496,7.2496,7.3266,7.4074,7.4903,7.5689,7.6481,7.7289,7.7289,7.7289,7.7289,7.7289,7.7289,7.7289,7.7289,7.7803,7.8552,7.8552,7.9543,8.0938,8.0975,8.195,8.3234,8.2443,8.2737,8.3271,8.248,8.226,8.259,8.4168,8.4646,8.5013,8.6611,8.8189,8.94,8.9473,9.0629,9.1803,9.1803,9.1803,9.1803,9.1803,9.1803,9.1803,9.1803,9.1803,9.1803,9.1803,9.1803,9.1803,9.1803,9.1803,9.1803,9.1803,9.1803,9.1803,9.1803,9.1803,9.1803,9.1803,9.1803,9.1803,9.1803,9.1803,9.1803,9.1803,9.1803,9.1803,9.184,9.1803,9.1803,9.184,9.1803,9.1803,9.1803,9.1803,9.1803,4.7655,0.0,0.0,0.0,0.0,0.0,5.5562,5.8688,6.1412,6.2166,6.4661,6.6843,6.7357,6.7455,6.7501,6.7726,6.8199,6.847,6.8267,6.759,6.7096,6.7096,6.6927,6.6791,6.6791,6.7254,6.7325,6.6827,6.9026,7.0177,6.9694,7.1451,7.2496,7.2496,7.2496,7.2496,7.2496,7.2716,7.3523,7.4903,7.5124,7.5968,7.7289,7.7289,7.7289,7.7289,7.7289,7.7289,7.7289,7.7289,7.7436,7.7656,7.7656,7.8332,7.9323,7.991,8.0791,8.1709,8.2076,8.2737,8.3344,8.3124,8.3875,8.4883,8.5306,8.5857,8.6647,8.8262,8.9069,8.9657,9.0849,9.1473,9.1803,9.1803,9.1803,9.1803,9.1803,9.1803,9.1803,9.1803,9.1803,9.1803,9.1803,9.1803,9.1803,9.1803,9.1803,9.1803,9.1803,9.1803,9.1803,9.1803,9.1803,9.1803,9.1803,9.1803,9.1803,9.1803,9.1803,9.1803,9.1803,9.1803,9.2097,9.2721,9.2134,9.2097,9.2758,9.2097,9.1803,9.1803,9.1803,9.1803,0.0,0.0,0.0,5.108,0.0,0.0,5.3946,5.637,5.845,5.9018,6.1529,6.3655,6.3747,6.4598,6.526,6.5198,6.593,6.6745,6.7354,6.7062,6.6791,6.6791,6.6791,6.6791,6.6791,6.6889,6.6744,6.632,6.8466,6.9947,7.0217,7.1025,7.1798,7.2496,7.2165,7.2151,7.2496,7.2496,7.3156,7.4404,7.472,7.5564,7.6812,7.7142,7.7289,7.7289,7.7289,7.7289,7.7289,7.7289,7.7289,7.7289,7.7289,7.8023,7.914,7.9633,8.0938,8.248,8.226,8.2957,8.3785,8.3141,8.3765,8.4866,8.5196,8.5857,8.6848,8.8463,8.9363,9.017,9.1473,9.1803,9.1803,9.1803,9.1803,9.1803,9.1803,9.1803,9.1803,9.1803,9.1803,9.1803,9.1803,9.1803,9.1803,9.1803,9.1803,9.1803,9.1803,9.1803,9.1803,9.1803,9.1803,9.1803,9.1803,9.1803,9.1803,9.1803,9.2134,9.217,9.1803,9.2464,9.2758,9.2574,9.2427,9.2427,9.2574,9.206,9.1803,9.1803,9.1803,9.1803,0.0,0.0,0.0,0.0,5.2029,0.0,5.4188,5.5345,5.6226,5.6763,5.8411,5.9656,5.9423,6.1167,6.2676,6.2546,6.3545,6.4857,6.6453,6.6677,6.669,6.6791,6.6791,6.6757,6.669,6.6842,6.6892,6.672,6.8497,7.0361,7.2159,7.0881,7.077,7.2202,7.1527,7.1564,7.2349,7.2386,7.2826,7.3722,7.4515,7.5307,7.613,7.6922,7.7289,7.7289,7.7289,7.7289,7.7289,7.7289,7.7289,7.7289,7.7289,7.8332,7.9816,7.9816,8.1709,8.4132,8.27,8.3141,8.4132,8.2884,8.2957,8.3711,8.4609,8.538,8.6261,8.7876,8.9491,9.0922,9.162,9.1803,9.1803,9.1803,9.1803,9.1803,9.1803,9.1803,9.1803,9.1803,9.1803,9.1803,9.1803,9.1803,9.1803,9.1803,9.1803,9.1803,9.1803,9.1803,9.1803,9.1803,9.1803,9.1803,9.1803,9.1803,9.1803,9.1803,9.2611,9.2721,9.184,9.3418,9.3602,9.2097,9.2941,9.2941,9.206,9.1987,9.1877,9.1803,9.1803,9.1803,0.0,0.0,0.0,0.0,5.1998,0.0,5.2618,5.4052,5.5378,5.5337,5.6788,5.8139,5.8408,5.9036,5.9674,6.0237,6.1439,6.3168,6.5587,6.5899,6.6136,6.6724,6.6791,6.6576,6.5967,6.5936,6.5481,6.4271,6.5898,6.8004,7.0443,7.0257,7.022,7.055,7.0403,7.0734,7.1527,7.1527,7.2275,7.3722,7.4515,7.5307,7.613,7.6922,7.7289,7.7289,7.7289,7.7289,7.7289,7.7289,7.7289,7.7289,7.7289,7.8332,7.9816,7.9816,8.1028,8.2627,8.2296,8.2406,8.281,8.3801,8.4242,8.4646,8.6114,8.6664,8.7088,8.8702,9.0335,9.1583,9.1767,9.1803,9.1803,9.1803,9.1803,9.1803,9.1803,9.1803,9.1803,9.1803,9.1803,9.1803,9.1803,9.1803,9.1803,9.1803,9.1803,9.1803,9.1803,9.1803,9.1803,9.1803,9.1803,9.1803,9.1803,9.1803,9.1803,9.1803,9.2611,9.2721,9.184,9.3418,9.4153,9.3822,9.463,9.463,9.3786,9.3161,9.2501,9.1803,9.1803,9.1803,0.0,0.0,0.0,5.2395,5.2608,0.0,0.0,5.3636,5.4198,5.3769,5.495,5.596,5.5763,5.6623,5.7434,5.7695,5.8634,6.005,6.2213,6.3741,6.4749,6.51,6.5134,6.4999,6.4647,6.4613,6.4497,6.4228,6.5075,6.6741,6.931,6.9108,6.9279,7.0073,6.9706,7.0059,7.1307,7.1307,7.1894,7.312,7.3927,7.4735,7.5542,7.6335,7.6922,7.7289,7.7289,7.7289,7.7289,7.7289,7.7289,7.7289,7.7289,7.8332,7.9816,7.9816,8.1048,8.2737,8.2333,8.2443,8.292,8.3765,8.4278,8.4829,8.604,8.6958,8.7876,8.9069,9.028,9.1289,9.1693,9.1803,9.1803,9.1803,9.1803,9.1803,9.1803,9.1803,9.1803,9.1803,9.1803,9.1803,9.1803,9.1803,9.1803,9.1803,9.1803,9.1803,9.1803,9.1803,9.1803,9.1803,9.1803,9.1987,9.2427,9.206,9.217,9.2978,9.3088,9.3088,9.3051,9.4226,9.4887,9.4887,9.529,9.5107,9.4299,9.4299,9.3859,9.3051,9.2648,9.2648,0.0,0.0,0.0,0.0,5.3491,5.3238,0.0,0.0,0.0,5.2614,5.329,5.3787,5.3054,5.4231,5.527,5.515,5.5877,5.6931,5.8288,6.0614,6.2403,6.3133,6.3159,6.3111,6.3091,6.2801,6.3134,6.4377,6.4529,6.5672,6.8193,6.7923,6.8288,6.961,6.9009,6.9449,7.105,7.0903,7.138,7.2496,7.3156,7.3964,7.494,7.5726,7.6533,7.7289,7.7289,7.7289,7.7289,7.7289,7.7289,7.7289,7.7289,7.8332,7.9816,7.9816,8.1232,8.3087,8.2443,8.2737,8.3418,8.3564,8.4278,8.5196,8.582,8.7031,8.839,8.9179,8.9987,9.0812,9.1583,9.1803,9.1803,9.1803,9.1803,9.1803,9.1803,9.1803,9.1803,9.1803,9.1803,9.1803,9.1803,9.1803,9.1803,9.1803,9.1803,9.1803,9.1803,9.1803,9.1803,9.1803,9.195,9.2354,9.3051,9.2611,9.2868,9.4189,9.3859,9.3786,9.4263,9.507,9.5565,9.5712,9.5712,9.5401,9.474,9.5401,9.5254,9.4263,9.3639,9.3675,0.0,0.0,0.0,5.4617,5.4632,5.456,5.4665,0.0,5.342,5.2572,0.0,5.2458,5.1957,0.0,0.0,5.2763,5.4148,5.5272,5.5475,5.6544,5.8534,6.1854,6.1946,6.1675,6.1535,6.0298,6.0443,6.2679,6.298,6.41,6.6554,6.7339,6.7774,6.7958,6.7884,6.8618,7.022,6.9522,7.0279,7.2496,7.2606,7.3435,7.494,7.5726,7.6533,7.7289,7.7289,7.7289,7.7289,7.7289,7.7289,7.7289,7.7289,7.8332,7.9816,7.9816,8.0881,8.2333,8.2223,8.2737,8.3528,8.4242,8.549,8.6721,8.6848,8.7509,8.839,8.9179,8.9987,9.0812,9.1583,9.1803,9.1803,9.1803,9.1803,9.1803,9.1803,9.1803,9.1803,9.1803,9.1803,9.1803,9.1803,9.1803,9.1803,9.1803,9.1803,9.1803,9.1803,9.1803,9.1803,9.1803,9.2501,9.2978,9.3088,9.3639,9.4079,9.4299,9.4887,9.496,9.4336,9.507,9.5841,9.6539,9.6575,9.6539,9.6428,9.6539,9.5768,9.4299,9.4189,9.4189,0.0,5.6401,5.7151,5.6536,5.6192,5.5762,5.4781,5.3815,5.2971,5.2514,0.0,0.0,0.0,0.0,0.0,0.0,5.1695,5.2202,5.23,5.2906,5.4683,5.8425,5.8807,5.8903,5.9287,5.9003,5.9191,6.0094,6.1113,6.254,6.4491,6.5634,6.6705,6.7687,6.77,6.8238,6.9376,6.9522,7.033,7.1821,7.2275,7.3325,7.4903,7.5234,7.6114,7.7289,7.7289,7.7289,7.7289,7.7289,7.7289,7.7289,7.7289,7.8332,7.9853,8.0314,8.1232,8.2186,8.2186,8.2406,8.292,8.4205,8.571,8.6978,8.6978,8.7234,8.7766,8.9033,8.9657,9.0207,9.1473,9.1803,9.1803,9.1803,9.1803,9.1803,9.1803,9.1803,9.1803,9.1803,9.1803,9.1803,9.1803,9.1803,9.1803,9.1803,9.1803,9.1987,9.2501,9.2537,9.2721,9.3198,9.3565,9.4006,9.4427,9.4373,9.4703,9.5621,9.6025,9.5621,9.4336,9.5511,9.6135,9.6025,9.6465,9.6685,9.6685,9.6685,9.6355,9.5694,9.5217,9.5254,5.7551,5.8565,5.9473,5.8208,5.7522,5.6777,5.5293,5.4112,5.3137,5.2371,5.2333,0.0,0.0,0.0,5.1023,5.0165,0.0,5.0089,5.0008,5.0475,5.1912,5.5031,5.5806,5.6292,5.6772,5.7379,5.7843,5.8202,5.9448,6.1007,6.2877,6.4331,6.5817,6.7307,6.759,6.8104,6.8885,6.9486,7.0293,7.1307,7.1894,7.3105,7.4903,7.4903,7.5784,7.7289,7.7289,7.7289,7.7289,7.7289,7.7289,7.7326,7.7546,7.8405,7.9559,8.0351,8.1305,8.2223,8.2443,8.281,8.3361,8.4535,8.5857,8.6978,8.6978,8.6978,8.7323,8.8942,8.9526,9.0074,9.1643,9.2229,9.2431,9.2431,9.2431,9.2431,9.2431,9.2431,9.2431,9.2431,9.2431,9.2431,9.2431,9.2089,9.1803,9.1803,9.1803,9.2024,9.2648,9.2941,9.3308,9.3896,9.4373,9.4887,9.5437,9.518,9.5437,9.6612,9.6502,9.5841,9.4666,9.5547,9.5878,9.5492,9.6061,9.6502,9.6685,9.6685,9.6685,9.6685,9.6098,9.6135,5.821,5.9254,6.046,5.917,5.8359,5.7604,5.6575,5.5647,5.4385,5.2188,5.217,5.2061,5.0287,0.0,0.0,0.0,0.0,0.0,0.0,4.9737,5.0785,5.2363,5.364,5.4295,5.4136,5.4784,5.5943,5.7688,5.8164,5.9473,6.1985,6.3911,6.5427,6.6499,6.7297,6.8104,6.8885,6.8921,6.9729,7.1307,7.1344,7.2591,7.4903,7.4903,7.5784,7.7289,7.7289,7.7289,7.7289,7.7289,7.7289,7.7399,7.8222,7.8589,7.8736,7.9559,8.0844,8.2296,8.3087,8.4389,8.569,8.5764,8.6334,8.6978,8.6978,8.6978,8.7313,8.887,8.9864,9.081,9.2354,9.3378,9.4033,9.4033,9.4033,9.4033,9.4033,9.4033,9.4033,9.4033,9.4033,9.4033,9.4033,9.281,9.1803,9.1803,9.1803,9.1803,9.184,9.2574,9.3125,9.3125,9.4538,9.5474,9.5493,9.6171,9.6649,9.6685,9.5969,9.5528,9.5455,9.4777,9.474,9.5492,9.5528,9.5914,9.6685,9.6685,9.6685,9.6685,9.6685,9.6685,6.2766,6.3788,6.4443,6.1689,6.1488,6.1217,5.8288,5.7151,5.6305,5.4794,5.4507,5.3764,5.1279,0.0,0.0,0.0,0.0,0.0,0.0,4.8088,4.8745,4.9709,5.1377,5.2567,5.2904,5.3756,5.4721,5.5673,5.6427,5.7811,6.006,6.1523,6.3359,6.5642,6.6476,6.7297,6.8091,6.9155,6.9963,7.055,7.2129,7.3597,7.4903,7.5469,7.6261,7.7289,7.7289,7.7289,7.7289,7.7289,7.7289,7.7326,7.7619,7.8112,7.8772,8.0094,8.0938,8.1599,8.2941,8.4095,8.5086,8.5654,8.6334,8.7098,8.7586,8.7709,8.8158,9.0238,9.1029,9.1612,9.3241,9.3876,9.4102,9.4102,9.4102,9.4102,9.4102,9.4102,9.4102,9.4102,9.4102,9.4102,9.4102,9.3677,9.3171,9.2682,9.2998,9.3173,9.2702,9.3815,9.4621,9.4686,9.5658,9.6282,9.6282,9.6539,9.6685,9.6685,9.6428,9.5841,9.474,9.5954,9.6253,9.5437,9.6458,9.7162,9.7422,9.6934,9.6685,9.6685,9.6685,9.6685,6.545,6.6311,6.6748,6.4031,6.3647,6.3085,5.9804,5.8603,5.7709,5.6025,5.5813,5.5237,5.3033,5.2539,0.0,0.0,0.0,0.0,0.0,4.6978,4.7159,4.7906,4.9472,5.0751,5.1387,5.2314,5.3222,5.4061,5.4948,5.6453,5.8633,6.0108,6.2098,6.4798,6.5925,6.688,6.77,6.9316,7.011,7.011,7.2239,7.3854,7.4903,7.5432,7.6261,7.7289,7.7289,7.7289,7.7289,7.7289,7.7289,7.7289,7.7289,7.7839,7.8772,8.0094,8.1122,8.1986,8.3051,8.4115,8.5123,8.5654,8.6518,8.753,8.8289,8.869,8.9419,9.1747,9.2431,9.2784,9.4449,9.4878,9.4878,9.4878,9.4878,9.4878,9.4878,9.4878,9.4878,9.4878,9.4878,9.4878,9.4878,9.4878,9.4528,9.353,9.3793,9.3937,9.3525,9.4835,9.5693,9.5493,9.6436,9.699,9.6724,9.6685,9.6685,9.6685,9.6695,9.6196,9.5163,9.658,9.7461,9.762,9.7723,9.8381,9.9557,9.8192,9.751,9.751,9.751,9.7353]}]]